     2              OBSERVATION DATA    GPS                 RINEX VERSION / TYPE
teqc 1997Sep10 19970910 19:05:20UTC                         PGM / RUN BY / DATE
                                                            COMMENT
BIT 2 OF LLI FLAGS DATA COLLECTED UNDER A-S CONDITION       COMMENT
BIT 2 OF LLI FLAGS DATA COLLECTED UNDER A-S CONDITION       COMMENT
Original Marker Name: unknown                               COMMENT
Campaign Name: Southern California GPS Survey March - A     COMMENT
4-Character Station Name: RYAN                              COMMENT
6-Character Antenna Code: TI4100                            COMMENT
Vertical Measurement Point: PAE                             COMMENT
Vertical Offset to Rinex Ref. Point: 0.0000                 COMMENT
Radial Measurement Point: RRP                               COMMENT
Radial Offset to Rinex Ref. Point: 0.0000                   COMMENT
Antenna Height from Field Measurement: 1.5738 m             COMMENT
Original XYZ: 0.0000 0.0000 0.0000                          COMMENT
New XYZ position is based on association with SCEC monument COMMENT
E1D0O8P4+0011. Position of that monument is believed to be  COMMENT
valid to within 1 m horizontally; vertical accuracy         COMMENT
should be no worse than 3-times this value.                 COMMENT
                                                            COMMENT
Revised Rinex header created by UCSD GPS archive for        COMMENT
GSAC on 12-Apr-1999 (1999:102) 19:42:27 GMT                 COMMENT
For assistance contact dagnew@ucsd.edu or hjohnson@ucsd.edu COMMENT
                                                            COMMENT
(RYAN AIRPORT)                                              MARKER NAME
unknown NATIONAL GEODETIC SURVEY                            OBSERVER / AGENCY
7003 TI 4100 GSI TI4100                                     REC # / TYPE / VERS
4017 TI 4100                                                ANT # / TYPE
 -2412027.0000 -4730451.0000  3522421.0000                  APPROX POSITION XYZ
        1.5738        0.0000        0.0000                  ANTENNA: DELTA H/E/N
     1     1     0                                          WAVELENGTH FACT L1/2
     6    L1    L2    P1    P2    D1    D2                  # / TYPES OF OBSERV
     0                                                      INTERVAL
  1988     3    26     2    57   35.000000                  TIME OF FIRST OBS
  1988     3    26     8    15   59.000000                  TIME OF LAST OBS
     0                                                      # OF SATELLITES
                                                            END OF HEADER
 88  3 26  2 57 34.9200000  0  3G 6G 9G11
   4705228.770 9  -7645131.591 8  19370561.631    19370566.346        1842.874
      1430.575
    133396.898 8    -22636.219 9  22108888.637    22108894.890        2925.257
      2290.127
    114031.205 8                                                        -0.500 1
      3393.352
 88  3 26  3 36 29.0800000  0  3G 6G 9G11
    984694.639 9 -10544247.425 8  18662565.681    18662570.833        1301.814
      1011.884
  -6811251.490 9  -5434044.961 8  20787361.302    20787366.460        2972.290
      2314.548
  -6746772.305 9  -5308189.144 9  19483073.879    19483080.059        2400.959
      1867.273
 88  3 26  3 36 59.0800000  0  3G 6G 9G11
    946391.065 9 -10574094.357 8  18655277.088    18655281.053        1270.307
       985.401
  -6900351.346 9  -5503473.375 9  20770405.584    20770411.263        2960.631
      2315.703
  -6818895.759 9  -5364389.204 9  19469347.849    19469355.132        2415.209
      1882.273
 88  3 26  3 37 29.0800000  0  3G 6G 9G11
    908386.733 9 -10603708.114 8  18648045.155    18648049.743        1256.910
       986.246
  -6989405.513 9  -5572866.167 9  20753459.485    20753464.231        2969.315
      2311.354
  -6890555.078 9  -5420227.589 9  19455712.255    19455718.379        2382.164
      1860.513
 88  3 26  3 37 59.0800000  0  3G 6G 9G11
    870683.426 9 -10633087.296 9  18640870.659    18640874.482        1260.546
       991.558
  -7078412.776 9  -5642222.431 9  20736522.530    20736527.552        2970.288
      2309.943
  -6961749.308 8  -5475703.584 9  19442164.566    19442170.408        2355.433
      1856.691
 88  3 26  3 38 29.0800000  0  3G 6G 9G11
    833283.200 9 -10662230.313 9  18633753.460    18633758.257        1240.483
       974.794
  -7167371.066 9  -5711540.526 9  20719593.901    20719599.632        2963.486
      2308.806
  -7032476.468 8  -5530815.618 8  19428705.666    19428711.548        2346.414
      1835.546
 88  3 26  3 38 59.0800000  0  3G 6G 9G11
    796188.372 9 -10691135.378 9  18626693.889    18626697.911        1239.343
       962.093
  -7256278.574 9  -5780819.039 9  20702675.415    20702680.170        2959.499
      2295.906
  -7102734.747 9  -5585562.294 9  19415335.166    19415342.061        2346.702
      1820.129
 88  3 26  3 39 29.0800000  0  3G 6G 9G11
    759401.376 8 -10719800.550 9  18619694.470    18619698.604        1193.075
       953.847
  -7345133.557 9  -5850056.641 9  20685766.033    20685772.315        2966.987
      2293.943
  -7172522.176 9  -5639942.065 9  19402055.817    19402061.984        2309.804
      1806.459
 88  3 26  3 39 59.0800000  0  3G 6G 9G11
    722924.541 8 -10748224.057 9  18612752.517    18612757.038        1229.470
       949.485
  -7433933.828 9  -5919251.614 9  20668868.178    20668873.888        2966.453
      2303.027
  -7241837.089 9  -5693953.651 8  19388864.551    19388872.108        2302.532
      1808.043
 88  3 26  3 40 29.0800000  0  3G 6G 9G11
    686760.005 9 -10776404.211 9  18605870.925    18605875.659        1189.758
       944.017
  -7522677.656 9  -5988402.594 9  20651980.584    20651986.618        2953.670
      2297.410
  -7310677.546 9  -5747595.522 8  19375765.036    19375772.605        2296.304
      1783.021
 88  3 26  3 40 59.0800000  0  3G 6G 9G11
    650910.195 9 -10804339.115 9  18599048.871    18599053.644        1192.047
       924.226
  -7611362.604 9  -6057507.690 8  20635104.562    20635109.787        2956.229
      2295.869
  -7379042.041 8  -5800866.519 8  19362755.300    19362762.528        2256.799
      1766.262
 88  3 26  3 41 29.0800000  0  3G 6G 9G11
    615377.143 9 -10832027.196 9  18592286.716    18592291.526        1168.363
       918.186
  -7699987.319 9  -6126565.851 9  20618239.038    20618245.134        2955.241
      2308.750
  -7446929.048 8  -5853765.437 9  19349837.496    19349844.750        2266.320
      1765.665
 88  3 26  3 41 59.0800000  0  3G 6G 9G11
    580163.220 9 -10859466.610 8  18585585.790    18585590.298        1165.038
       904.646
  -7788549.791 9  -6195575.510 9  20601386.711    20601392.028        2949.172
      2310.782
  -7514336.600 8  -5906290.770 8  19337009.829    19337016.468        2253.537
      1751.237
 88  3 26  3 42 29.0800000  0  3G 6G 9G11
    545270.747 9 -10886655.541 9  18578946.358    18578950.423        1155.596
       904.485
  -7877047.737 9  -6264534.890 9  20584545.622    20584550.926        2958.462
      2300.902
  -7581263.016 9  -5958441.189 8  19324273.719    19324281.218        2232.844
      1743.252
 88  3 26  3 42 59.0800000  0  3G 6G 9G11
    510701.920 9 -10913592.274 9  18572367.236    18572372.630        1151.226
       889.596
  -7965479.557 9  -6333442.747 9  20567717.324    20567723.272        2956.955
      2289.960
  -7647706.634 9  -6010215.392 9  19311630.594    19311637.391        2209.168
      1731.378
 88  3 26  3 43 29.0800000  0  3G 6G 9G11
    476459.317 9 -10940274.809 9  18565850.879    18565856.590        1138.132
       890.404
  -8053842.762 9  -6402297.139 8  20550902.869    20550908.419        2942.569
      2301.654
  -7713665.819 9  -6061612.126 9  19299078.383    19299086.023        2194.511
      1708.480
 88  3 26  3 43 59.0800000  0  3G 6G 9G11
    442544.895 9 -10966701.624 8  18559397.671    18559402.194        1129.560
       878.579
  -8142135.945 9  -6471096.968 8  20534101.378    20534106.854        2936.086
      2284.895
  -7779139.121 9  -6112630.249 9  19286620.153    19286626.619        2182.821
      1685.769
 88  3 26  3 44 29.0800000  0  3G 6G 9G11
    408960.812 9 -10992871.028 8  18553006.641    18553011.465        1117.917
       867.326
  -8230356.698 9  -6539840.363 9  20517313.543    20517318.568        2947.697
      2290.233
  -7844125.168 9  -6163268.693 7  19274253.196    19274259.635        2164.041
      1687.036
 88  3 26  3 44 59.0800000  0  3G 6G 9G11
    375709.332 9 -11018781.261 9  18546679.620    18546683.773        1098.850
       865.835
  -8318503.422 9  -6608526.069 9  20500539.603    20500545.542        2931.389
      2288.108
  -7908622.185 9  -6213526.068 8  19261980.252    19261985.902        2144.647
      1664.822
 88  3 26  3 45 29.0800000  0  3G 6G 9G11
    342792.805 9 -11044430.489 9  18540415.215    18540420.929        1106.019
       840.166
  -8406573.624 9  -6677152.155 9  20483779.986    20483785.662        2933.782
      2284.156
  -7972628.374 9  -6263400.998 9  19249801.139    19249806.378        2127.120
      1667.867
 88  3 26  3 45 59.0800000  0  3G 6G 9G11
    310213.504 9 -11069816.954 9  18534215.795    18534220.791        1085.350
       847.162
  -8494565.537 9  -6745717.264 9  20467036.321    20467041.396        2936.046
      2282.540
  -8036142.506 9  -6312892.501 9  19237713.754    19237719.507        2108.189
      1644.963
 88  3 26  3 46 29.0800000  0  3G 6G 9G11
    277973.648 9 -11094938.903 9  18528080.668    18528085.190        1081.060
       832.666
  -8582477.228 9  -6814219.836 9  20450307.120    20450312.711        2927.514
      2278.247
  -8099163.061 9  -6361999.391 8  19225720.951    19225727.091        2085.813
      1631.156
 88  3 26  3 46 59.0800000  0  3G 6G 9G11
    246075.429 9 -11119794.641 8  18522010.150    18522015.383        1044.784
       830.037
  -8670306.206 9  -6882657.961 9  20433593.386    20433598.419        2925.042
      2276.339
  -8161688.311 9  -6410720.319 9  19213822.971    19213829.282        2068.867
      1620.083
 88  3 26  3 47 29.0800000  0  3G 6G 9G11
    214521.159 9 -11144382.380 9  18516006.451    18516011.477        1048.971
       829.205
  -8758050.746 9  -6951030.304 9  20416896.123    20416902.283        2935.775
      2286.579
  -8223717.051 8  -6459054.373 9  19202019.078    19202025.560        2062.974
      1607.786
 88  3 26  3 47 59.0800000  0  3G 6G 9G11
    183312.942 9 -11168700.466 9  18510067.319    18510072.305        1050.956
       808.115
  -8845708.798 9  -7019335.233 9  20400215.395    20400220.278        2923.806
      2281.006
  -8285247.980 9  -6507000.507 9  19190310.326    19190316.063        2049.697
      1601.802
 88  3 26  3 48 29.0800000  0  3G 6G 9G11
    152453.019 9 -11192747.152 9  18504195.198    18504198.986        1006.188
       795.265
  -8933278.141 9  -7087571.064 9  20383551.365    20383557.061        2927.179
      2285.368
  -8346279.732 9  -6554557.690 8  19178696.394    19178701.793        2014.275
      1590.679
 88  3 26  3 48 59.0800000  0  3G 6G 9G11
    121943.886 9 -11216520.482 9  18498389.549    18498394.034        1026.332
       785.615
  -9020756.750 8  -7155736.170 9  20366905.301    20366910.264        2906.310
      2273.524
  -8406810.834 9  -6601724.749 8  19167177.240    19167183.620        2013.804
      1563.220
 88  3 26  3 49 29.0800000  0  3G 6G 9G11
     91787.654 9 -11240018.846 9  18492650.758    18492655.389        1004.107
       790.213
  -9108142.232 9  -7223828.713 8  20350275.880    20350281.755        2924.141
      2264.204
  -8466839.794 9  -6648500.519 9  19155753.664    19155760.473        1999.514
      1544.759
 88  3 26  3 49 59.0800000  0  3G 6G 9G11
     61986.737 9 -11263240.324 9  18486980.237    18486984.285        1007.066
       769.155
  -9195432.408 9  -7291846.984 9  20333664.641    20333671.440        2910.194
      2261.488
  -8526365.031 8  -6694883.795 8  19144427.275    19144433.027        1976.444
      1538.782
 88  3 26  3 50 29.0800000  0  3G 6G 9G11
     32543.444 9 -11286183.136 9  18481376.619    18481381.063         974.841
       761.580
  -9282625.027 9  -7359789.263 9  20317073.347    20317078.483        2920.576
      2267.876
  -8585385.067 9  -6740873.389 9  19133195.411    19133201.596        1947.657
      1538.695
 88  3 26  3 50 59.0800000  0  3G 6G 9G11
      3460.018 9 -11308845.546 9  18475841.989    18475847.457         969.211
       757.336
  -9369717.859 9  -7427653.766 9  20300500.228    20300505.266        2916.988
      2264.322
  -8643898.488 9  -6786468.237 8  19122061.598    19122067.594        1930.384
      1506.333
 88  3 26  3 51 29.0800000  0  3G 6G 9G11
    -25260.848 9 -11331225.432 8  18470377.306    18470382.382         944.953
       749.432
  -9456708.599 9  -7495438.714 9  20283945.682    20283951.126        2902.714
      2263.414
  -8701903.611 7  -6831666.988 9  19111022.800    19111030.142        1920.217
      1501.822
 88  3 26  3 51 59.0800000  0  3G 6G 9G11
    -53616.974 9 -11353321.094 9  18464980.980    18464985.738         959.754
       736.501
  -9543594.928 9  -7563142.329 9  20267412.004    20267417.638        2894.293
      2252.733
  -8759399.156 9  -6876468.677 9  19100081.991    19100088.816        1904.492
      1477.433
 88  3 26  3 52 29.0800000  0  3G 6G 9G11
    -81605.852 9 -11375130.603 9  18459655.166    18459658.671         928.414
       712.299
  -9630374.122 9  -7630762.451 9  20250897.834    20250903.006        2876.789
      2269.181
  -8816383.826 9  -6920872.291 8  19089237.829    19089244.956        1889.356
      1480.086
 88  3 26  3 52 59.0800000  0  3G 6G 9G11
   -109225.006 9 -11396652.024 9  18454399.052    18454404.090         921.110
       712.758
  -9717043.970 9  -7698297.382 9  20234406.406    20234411.621        2890.337
      2252.926
  -8872855.997 9  -6964876.540 8  19078491.654    19078498.009        1878.551
      1475.811
 88  3 26  3 53 29.0800000  0  3G 6G 9G11
   -136471.851 9 -11417883.317 8  18449214.217    18449218.156         890.313
       706.893
  -9803601.629 9  -7765744.874 9  20217934.670    20217939.094        2881.191
      2236.403
  -8928814.138 9  -7008480.244 9  19067843.501    19067849.397        1863.623
      1456.921
 88  3 26  3 53 59.0800000  0  3G 6G 9G11
   -163343.575 9 -11438822.320 9  18444101.410    18444105.478         886.884
       703.860
  -9890044.369 9  -7833102.807 9  20201484.885    20201489.420        2883.240
      2241.014
  -8984256.561 8  -7051682.102 8  19057293.279    19057299.288        1843.033
      1435.546
 88  3 26  3 54 29.0800000  0  3G 6G 9G11
   -189837.722 9 -11459467.100 9  18439059.744    18439064.076         864.636
       683.833
  -9976370.008 9  -7900369.500 9  20185057.919    20185063.054        2879.141
      2252.441
  -9039181.667 9  -7094480.854 8  19046841.130    19046846.164        1847.770
      1416.103
 88  3 26  3 54 59.0800000  0  3G 6G 9G11
   -215952.089 9 -11479815.957 8  18434089.823    18434094.097         871.214
       677.582
 -10062576.083 9  -7967543.025 9  20168652.768    20168658.407        2876.119
      2245.425
  -9093588.210 8  -7136875.522 8  19036488.549    19036494.401        1805.315
      1402.060
 88  3 26  3 55 29.0800000  0  3G 6G 9G11
   -241684.686 9 -11499867.318 8  18429193.393    18429197.372         859.380
       665.969
 -10148660.528 9  -8034621.776 9  20152271.748    20152277.004        2864.676
      2234.601
  -9147475.243 9  -7178865.395 9  19026233.932    19026239.997        1786.774
      1388.141
 88  3 26  3 55 59.0800000  0  3G 6G 9G11
   -267033.372 9 -11519619.543 9  18424369.175    18424374.091         839.668
       648.359
 -10234620.736 9  -8101603.731 9  20135914.667    20135919.939        2856.917
      2238.858
  -9200841.871 8  -7220449.746 8  19016077.959    19016084.640        1772.580
      1379.323
 88  3 26  3 56 29.0800000  0  3G 6G 9G11
   -291996.060 8 -11539070.996 9  18419619.474    18419623.441         816.710
       645.544
 -10320454.905 9  -8168487.453 9  20119580.369    20119584.488        2857.930
      2235.527
  -9253687.319 9  -7261627.984 8  19006022.289    19006028.186        1746.998
      1368.213
 88  3 26  3 56 59.0800000  0  3G 6G 9G11
   -316570.680 8 -11558220.049 9  18414942.051    18414947.147         815.729
       642.182
 -10406160.914 9  -8235271.312 9  20103271.118    20103275.692        2844.636
      2226.983
  -9306010.498 8  -7302399.255 9  18996065.104    18996071.044        1726.655
      1361.751
 88  3 26  3 57 29.0800000  0  3G 6G 9G11
   -340755.205 9 -11577065.129 8  18410340.587    18410344.545         803.018
       626.492
 -10491736.411 8  -8301953.462 8  20086986.878    20086992.025        2849.557
      2216.904
  -9357810.243 8  -7342762.675 8  18986208.565    18986214.433        1724.702
      1352.660
 88  3 26  3 57 59.0800000  0  3G 6G 9G11
   -364547.423 9 -11595604.522 8  18405812.503    18405817.185         789.621
       620.832
 -10577178.950 9  -8368532.016 9  20070726.969    20070732.782        2843.440
      2218.855
  -9409085.755 9  -7382717.599 8  18976450.296    18976456.952        1701.720
      1338.002
 88  3 26  3 58 29.0800000  0  3G 6G 9G11
   -387945.285 8 -11613836.616 8  18401361.124    18401364.662         764.828
       616.836
 -10662486.309 9  -8435005.251 9  20054493.291    20054499.053        2842.818
      2213.393
  -9459836.087 8  -7422263.269 8  18966792.915    18966799.158        1671.632
      1323.263
 88  3 26  3 58 59.0800000  0  3G 6G 9G11
   -410946.928 8 -11631759.969 9  18396983.532    18396987.518         761.392
       588.017
 -10747656.569 9  -8501371.603 9  20038286.642    20038291.191        2841.590
      2207.503
  -9510060.568 9  -7461399.189 9  18957235.506    18957241.430        1670.245
      1303.857
 88  3 26  3 59 29.0800000  0  3G 6G 9G11
   -433550.088 9 -11649372.826 8  18392682.139    18392685.539         735.395
       578.913
 -10832687.348 9  -8567629.283 9  20022105.000    20022110.343        2844.596
      2205.856
  -9559758.145 8  -7500124.543 8  18947777.420    18947784.546        1652.877
      1288.683
 88  3 26  3 59 59.0800000  0  3G 6G 9G11
   -455752.870 9 -11666673.690 9  18388456.663    18388460.644         735.650
       576.173
 -10917576.522 9  -8633776.625 8  20005951.798    20005956.613        2833.895
      2193.404
  -9608927.989 9  -7538438.672 7  18938421.530    18938427.812        1637.813
      1268.153
 88  3 26  4  0 29.0800000  0  3G 6G 9G11
   -477553.087 9 -11683660.852 9  18384308.688    18384312.464         729.861
       554.375
 -11002321.619 9  -8699811.715 8  19989825.024    19989830.094        2829.884
      2206.217
  -9657569.367 9  -7576340.995 8  18929164.955    18929172.008        1603.508
      1236.574
 88  3 26  4  0 59.0800000  0  3G 6G 9G11
   -498948.845 9 -11700332.876 9  18380236.679    18380241.016         709.965
       554.574
 -11086920.227 9  -8765732.666 9  19973726.841    19973731.142        2814.573
      2192.093
  -9705681.419 9  -7613830.875 8  18920010.375    18920015.711        1602.224
      1244.105
 88  3 26  4  1 29.0800000  0  3G 6G 9G11
   -519938.513 9 -11716688.448 9  18376243.338    18376247.023         695.587
       538.083
 -11171370.882 9  -8831538.318 9  19957656.190    19957660.817        2807.292
      2201.040
  -9753263.959 9  -7650908.143 8  18910956.065    18910961.302        1585.374
      1229.012
 88  3 26  4  1 59.0800000  0  3G 6G 9G11
   -540528.734 9 -11732732.776 9  18372325.172    18372329.501         686.425
       528.457
 -11255679.539 9  -8897233.364 9  19941612.715    19941616.979        2801.982
      2177.658
  -9800324.784 8  -7687578.877 8  18902000.115    18902005.970        1551.682
      1218.939
 88  3 26  4  2 29.0800000  0  3G 6G 9G11
   -560723.153 9 -11748468.693 9  18368481.307    18368487.206         665.181
       527.252
 -11339849.513 9  -8962820.313 9  19925594.817    19925599.818        2809.445
      2191.397
  -9846868.896 8  -7723846.977 8  18893142.307    18893148.460        1547.161
      1206.767
 88  3 26  4  2 59.0800000  0  3G 6G 9G11
   -580512.322 9 -11763888.816 9  18364716.128    18364721.236         658.913
       500.713
 -11423871.412 9  -9028291.884 9  19909606.531    19909611.278        2797.213
      2175.005
  -9892888.021 9  -7759706.016 9  18884385.636    18884391.531        1531.340
      1193.643
 88  3 26  4  3 29.0800000  0  3G 6G 9G11
   -599888.306 9 -11778986.989 9  18361028.564    18361033.853         639.615
       500.738
 -11507736.893 9  -9093641.579 9  19893647.382    19893652.188        2797.747
      2188.594
  -9938375.741 8  -7795150.969 8  18875730.218    18875735.038        1525.311
      1178.413
 88  3 26  4  3 59.0800000  0  3G 6G 9G11
   -618849.986 9 -11793762.310 9  18357419.816    18357425.413         638.140
       494.431
 -11591444.100 9  -9158867.916 8  19877718.951    19877722.998        2788.457
      2179.982
  -9983332.007 9  -7830181.783 7  18867174.613    18867180.752        1490.176
      1162.860
 88  3 26  4  4 29.0800000  0  3G 6G 9G11
   -637395.522 9 -11808213.370 9  18353891.276    18353895.850         612.598
       488.509
 -11674991.197 9  -9223969.512 9  19861819.708    19861824.322        2782.843
      2170.854
 -10027756.260 8  -7864798.060 9  18858720.777    18858726.987        1477.951
      1141.242
 88  3 26  4  4 59.0800000  0  3G 6G 9G11
   -655522.782 9 -11822338.504 9  18350442.625    18350446.478         596.641
       478.387
 -11758375.144 9  -9288943.982 9  19845952.164    19845957.661        2759.486
      2167.275
 -10071648.255 8  -7898999.577 8  18850368.749    18850373.885        1456.763
      1130.878
 88  3 26  4  5 29.0800000  0  3G 6G 9G11
   -673229.395 9 -11836135.861 8  18347072.597    18347077.566         583.404
       463.505
 -11841593.853 9  -9353789.692 8  19830116.658    19830121.400        2785.857
      2157.998
 -10115006.713 9  -7932785.358 7  18842118.103    18842123.441        1434.180
      1121.917
 88  3 26  4  5 59.0800000  0  3G 6G 9G11
   -690515.540 9 -11849605.587 9  18343783.202    18343787.439         563.875
       440.247
 -11924646.583 9  -9418506.070 8  19814312.210    19814317.176        2766.559
      2159.942
 -10157833.293 8  -7966156.684 8  18833967.949    18833974.085        1429.252
      1104.413
 88  3 26  4  6 29.0800000  0  4G 6G 9G11G13
   -707378.429 8 -11862745.487 9  18340573.307    18340578.714         568.428
       424.644
 -12007530.273 9  -9483090.748 9  19798539.573    19798544.790        2751.719
      2155.953
 -10200126.424 8  -7999112.351 7  18825920.495    18825925.272        1399.220
      1082.553
 -24755063.645 9  31332479.423 8  21823162.961    21823171.820        3739.582
      2904.385
 88  3 26  4  6 59.0800000  0  4G 6G 9G11G13
   -723813.999 9 -11875552.425 9  18337446.283    18337451.964         541.889
       413.975
 -12090240.489 9  -9547540.257 9  19782800.187    19782805.461        2752.341
      2146.894
 -10241883.453 9  -8031650.254 9  18817974.443    18817979.779        1387.993
      1078.893
 -24866790.112 9  31245419.415 9  21801902.475    21801910.997        3717.741
      2902.757
 88  3 26  4  7 29.0800000  0  4G 6G 9G11G13
   -739820.936 9 -11888025.360 9  18334400.791    18334405.236         533.397
       414.503
 -12172774.968 9  -9611852.814 9  19767094.901    19767099.499        2750.236
      2145.999
 -10283104.371 9  -8063770.423 8  18810130.125    18810136.005        1371.382
      1063.154
 -24978304.546 8  31158525.145 9  21780681.829    21780690.607        3702.390
      2898.271
 88  3 26  4  7 59.0800000  0  4G 6G 9G11G13
   -755399.253 9 -11900164.299 9  18331435.664    18331440.517         506.324
       398.297
 -12255133.627 9  -9676028.364 9  19751421.939    19751427.249        2743.394
      2143.830
 -10323790.933 9  -8095474.211 8  18802387.512    18802393.240        1332.866
      1057.729
 -25089606.541 9  31071796.402 8  21759502.523    21759509.980        3716.505
      2888.223
 88  3 26  4  8 29.0800000  0  4G 6G 9G11G13
   -770547.888 9 -11911968.424 9  18328553.297    18328557.334         506.180
       390.188
 -12337314.838 9  -9740065.657 9  19735783.725    19735788.658        2745.475
      2136.852
 -10363943.415 8  -8126761.807 8  18794746.970    18794752.664        1333.033
      1034.527
 -25200693.932 8  30985234.887 8  21738362.843    21738371.318        3703.060
      2887.570
 88  3 26  4  8 59.0800000  0  4G 6G 9G11G13
   -785261.945 9 -11923433.907 9  18325753.968    18325757.918         484.673
       374.380
 -12419312.755 9  -9803960.110 9  19720179.749    19720185.499        2724.224
      2131.552
 -10403558.594 9  -8157630.757 8  18787208.263    18787212.928        1323.863
      1030.979
 -25311561.944 8  30898844.327 9  21717264.952    21717273.178        3687.964
      2880.381
 88  3 26  4  9 29.0800000  0  4G 6G 9G11G13
   -799540.186 8 -11934559.803 9  18323035.836    18323041.179         478.852
       355.329
 -12501125.914 9  -9867710.607 9  19704611.888    19704616.469        2719.878
      2109.940
 -10442636.676 9  -8188081.176 8  18779771.448    18779778.647        1292.189
      1020.608
 -25422208.884 8  30812626.011 9  21696209.977    21696217.702        3684.615
      2859.994
 88  3 26  4  9 59.0800000  0  4G 6G 9G11G13
   -813380.636 9 -11945344.578 8  18320402.106    18320407.344         448.007
       352.670
 -12582751.853 9  -9931315.200 6  19689078.306    19689085.040        2713.506
      2126.699
 -10481176.959 9  -8218112.537 9  18772438.115    18772442.839        1277.604
      1006.198
 -25532631.972 8  30726582.113 8  21675196.581    21675204.729        3682.510
      2864.126
 88  3 26  4 10 29.0800000  0  4G 6G 9G11G13
   -826781.943 9 -11955787.146 9  18317852.057    18317856.778         447.688
       342.591
 -12664188.356 9  -9994772.214 9  19673582.565    19673586.661        2709.894
      2115.042
 -10519179.785 9  -8247725.101 9  18765205.465    18765212.202        1268.210
       975.508
 -25642829.948 8  30640713.630 8  21654226.823    21654234.572        3674.791
      2848.131
 88  3 26  4 10 59.0800000  0  4G 6G 9G11G13
   -839746.026 8 -11965889.034 9  18315385.655    18315390.320         435.519
       329.647
 -12745436.814 9 -10058082.682 9  19658120.883    19658125.768        2714.925
      2106.199
 -10556648.424 8  -8276921.398 8  18758076.234    18758082.114        1242.931
       969.717
 -25752803.836 8  30555019.775 8  21633299.814    21633307.880        3662.662
      2852.040
 88  3 26  4 11 29.0800000  0  4G 6G 9G11G13
   -852274.397 9 -11975651.395 8  18313002.013    18313005.420         416.301
       319.699
 -12826498.337 9 -10121247.479 9  19642695.869    19642699.583        2687.047
      2104.242
 -10593585.926 9  -8305703.844 8  18751047.218    18751053.472        1231.902
       956.767
 -25862554.889 8  30469499.550 8  21612414.247    21612421.461        3651.904
      2836.002
 88  3 26  4 11 59.0800000  0  4G 6G 9G11G13
   -864365.327 9 -11985072.895 9  18310701.084    18310704.949         385.967
       296.379
 -12907369.655 9 -10184264.069 9  19627306.247    19627311.248        2682.709
      2091.541
 -10629992.185 9  -8334072.330 9  18744119.752    18744125.705        1195.779
       943.346
 -25972080.796 9  30384154.765 9  21591572.394    21591580.681        3654.145
      2857.825
 88  3 26  4 12 29.0800000  0  4G 6G 9G11G13
   -876016.258 9 -11994151.539 9  18308483.736    18308487.865         389.013
       303.680
 -12988048.332 9 -10247130.524 9  19611953.416    19611957.640        2695.484
      2089.752
 -10665866.495 8  -8362026.301 8  18737291.984    18737298.708        1185.875
       912.768
 -26081378.696 8  30298987.656 8  21570774.282    21570781.380        3636.976
      2833.510
 88  3 26  4 12 59.0800000  0  4G 6G 9G11G13
   -887224.579 9 -12002885.290 9  18306350.514    18306355.459         372.562
       285.455
 -13068530.981 9 -10309844.257 8  19596637.473    19596642.824        2674.025
      2104.199
 -10701207.429 8  -8389564.667 8  18730567.332    18730572.999        1173.714
       913.165
 -26190444.873 9  30214001.113 8  21550018.634    21550026.790        3637.104
      2833.218
 88  3 26  4 13 29.0800000  0  4G 6G 9G11G13
   -897987.737 8 -12011272.177 8  18304303.728    18304307.179         348.782
       274.239
 -13148814.282 9 -10372402.652 9  19581360.315    19581365.834        2668.682
      2075.162
 -10736014.165 9  -8416686.765 9  18723944.166    18723950.549        1166.042
       912.339
 -26299277.098 9  30129196.863 9  21529309.082    21529316.727        3638.380
      2826.992
 88  3 26  4 13 59.0800000  0  4G 6G 9G11G13
   -908303.420 9 -12019310.366 8  18302339.978    18302344.715         340.601
       257.735
 -13228894.882 9 -10434803.114 9  19566121.615    19566125.904        2665.995
      2075.901
 -10770286.014 8  -8443392.069 9  18717422.735    18717427.529        1134.097
       885.185
 -26407872.553 9  30044577.108 8  21508643.389    21508652.193        3613.213
      2819.741
 88  3 26  4 14 29.0800000  0  4G 6G 9G11G13
   -918169.214 9 -12026997.997 8  18300462.601    18300466.163         322.084
       234.614
 -13308769.805 9 -10497043.292 9  19550921.847    19550927.248        2659.264
      2073.925
 -10804021.934 8  -8469679.775 9  18711002.729    18711008.366        1115.979
       864.281
 -26516227.653 9  29960144.658 8  21488024.652    21488031.768        3607.862
      2806.014
 88  3 26  4 14 59.0800000  0  4G 6G 9G11G13
   -927582.816 9 -12034333.266 9  18298670.784    18298675.470         311.654
       230.475
 -13388435.952 9 -10559120.758 9  19535761.840    19535766.820        2658.140
      2074.267
 -10837221.403 9  -8495549.457 9  18704685.144    18704690.368        1087.535
       856.259
 -26624340.136 9  29875901.232 7  21467451.925    21467458.742        3602.415
      2801.311
 88  3 26  4 15 29.0800000  0  4G 6G 9G11G13
   -936542.012 9 -12041314.468 9  18296966.467    18296970.238         292.061
       222.485
 -13467890.319 9 -10621033.202 9  19520642.373    19520647.369        2648.140
      2054.153
 -10869883.966 9  -8521000.758 7  18698469.026    18698474.832        1097.176
       835.623
 -26732207.410 9  29791848.895 8  21446924.448    21446931.625        3598.069
      2808.798
 88  3 26  4 15 59.0800000  0  4G 6G 9G11G13
   -945044.934 9 -12047940.118 9  18295348.485    18295352.806         283.616
       212.275
 -13547130.181 9 -10682778.505 8  19505564.288    19505568.241        2649.177
      2067.624
 -10902009.102 8  -8546033.313 8  18692355.284    18692361.810        1057.727
       831.547
 -26839826.432 8  29707990.000 8  21426445.536    21426453.212        3588.692
      2789.604
 88  3 26  4 16 29.0800000  0  4G 6G 9G11G13
   -953089.437 8 -12054208.566 8  18293816.690    18293821.381         269.932
       187.973
 -13626152.510 9 -10744354.310 9  19490525.887    19490530.577        2637.494
      2051.630
 -10933596.444 8  -8570646.791 8  18686344.494    18686350.662        1046.586
       816.000
 -26947194.776 8  29624326.439 8  21406013.717    21406021.552        3565.470
      2783.260
 88  3 26  4 16 59.0800000  0  4G 6G 9G11G13
   -960673.193 8 -12060117.993 9  18292374.323    18292378.403         255.658
       194.342
 -13704954.227 9 -10805758.220 8  19475530.672    19475535.660        2623.818
      2054.265
 -10964645.355 8  -8594840.718 9  18680436.784    18680442.265        1027.041
       797.191
 -27054309.918 8  29540860.176 9  21385630.422    21385638.984        3555.319
      2783.440
 88  3 26  4 17 29.0800000  0  4G 6G 9G11G13
   -967790.800 9 -12065664.186 9  18291018.822    18291024.147         240.562
       189.943
 -13783528.886 9 -10866985.178 9  19460577.765    19460582.995        2623.507
      2043.620
 -10995152.171 8  -8618612.234 8  18674630.222    18674636.729        1030.143
       781.613
 -27161165.598 8  29457596.095 9  21365296.990    21365304.761        3554.848
      2780.494
 88  3 26  4 17 59.0800000  0  4G 6G 9G11G13
   -974435.245 9 -12070841.680 8  18289755.638    18289759.834         204.311
       173.731
 -13861868.570 9 -10928029.046 9  19445670.398    19445675.109        2604.425
      2047.411
 -11025111.563 8  -8641957.181 9  18668930.030    18668936.569         990.830
       775.934
 -27267754.192 8  29374540.131 9  21345013.490    21345021.122        3548.748
      2766.650
 88  3 26  4 18 29.0800000  0  4G 6G 9G11G13
   -980603.085 8 -12075647.794 8  18288581.223    18288586.039         195.611
       147.832
 -13939969.031 9 -10988886.490 9  19430808.283    19430813.473        2605.182
      2027.185
 -11054521.697 9  -8664874.135 9  18663333.382    18663339.462         974.602
       751.259
 -27374072.162 8  29291695.044 9  21324781.683    21324789.210        3538.206
      2758.355
 88  3 26  4 18 59.0800000  0  4G 6G 9G11G13
   -986293.594 8 -12080081.957 9  18287498.415    18287503.839         190.069
       137.996
 -14017828.601 9 -11049556.230 9  19415992.195    19415996.829        2580.589
      2018.765
 -11083383.739 8  -8687364.010 8  18657841.101    18657846.296         952.170
       751.837
 -27480117.755 9  29209062.200 9  21304601.205    21304609.138        3542.616
      2756.671
 88  3 26  4 19 29.0800000  0  4G 6G 9G11G13
   -991506.872 9 -12084144.259 9  18286506.746    18286511.303         173.546
       131.310
 -14095446.305 9 -11110037.514 9  19401221.715    19401226.579        2593.811
      2014.540
 -11111698.996 8  -8709427.832 9  18652452.764    18652459.258         951.030
       723.769
 -27585890.847 8  29126641.684 8  21284473.017    21284480.712        3534.283
      2751.544
 88  3 26  4 19 59.0800000  0  4G 6G 9G11G13
   -996242.538 9 -12087834.388 9  18285606.031    18285610.334         135.843
       113.259
 -14172820.650 9 -11170329.175 8  19386498.588    19386503.163        2568.572
      1998.639
 -11139468.996 8  -8731066.762 9  18647168.019    18647173.990         916.269
       732.655
 -27691390.399 9  29044434.315 8  21264398.086    21264405.855        3515.790
      2727.683
 88  3 26  4 20 29.0800000  0  4G 6G 9G11G13
  -1000499.662 9 -12091151.627 8  18284794.978    18284799.770         138.259
        97.799
 -14249950.056 9 -11230429.980 8  19371820.231    19371825.896        2568.987
      1996.035
 -11166694.789 8  -8752281.636 9  18641986.960    18641993.716         893.965
       700.380
 -27796614.968 8  28962441.208 8  21244374.606    21244381.863        3494.251
      2733.549
 88  3 26  4 20 59.0800000  0  4G 6G 9G11G13
  -1004277.032 8 -12094095.046 9  18284076.622    18284080.380         116.226
        93.890
 -14326832.177 9 -11290338.107 9  19357189.758    19357194.927        2561.531
      1972.609
 -11193376.684 8  -8773072.693 8  18636910.996    18636915.420         879.444
       698.212
 -27901562.414 9  28880664.045 7  21224402.658    21224410.926        3486.117
      2725.608
 88  3 26  4 21 29.0800000  0  4G 6G 9G11G13
  -1007573.300 8 -12096663.568 8  18283448.941    18283453.806         111.386
        78.580
 -14403464.155 9 -11350051.325 9  19342608.283    19342612.628        2556.316
      1986.920
 -11219515.153 8  -8793440.299 8  18631936.048    18631942.257         845.968
       655.871
 -28006231.099 9  28799104.091 8  21204485.967    21204493.078        3475.575
      2708.036
 88  3 26  4 21 59.0800000  0  4G 6G 9G11G13
  -1010387.130 8 -12098856.165 9  18282913.586    18282918.181          93.739
        75.069
 -14479844.184 9 -11409568.216 9  19328073.537    19328078.102        2545.590
      1989.355
 -11245110.760 8  -8813384.897 9  18627065.993    18627070.770         842.291
       648.017
 -28110619.228 9  28717762.767 9  21184620.585    21184628.209        3489.052
      2704.394
 88  3 26  4 22 29.0800000  0  4G 6G 9G11G13
  -1012716.738 8 -12100671.449 8  18282470.266    18282474.445          86.609
        60.013
 -14555968.827 8 -11468886.094 9  19313587.121    19313591.949        2535.136
      1964.140
 -11270163.197 9  -8832906.254 8  18622298.813    18622304.193         831.040
       649.601
 -28214724.423 8  28636641.905 7  21164809.895    21164817.279        3476.883
      2689.127
 88  3 26  4 22 59.0800000  0  4G 6G 9G11G13
  -1014560.687 8 -12102108.295 8  18282119.219    18282123.356          57.431
        43.403
 -14631836.018 9 -11528003.356 8  19299150.730    19299155.107        2533.820
      1967.638
 -11294672.918 9  -8852004.707 8  18617633.858    18617639.626         813.153
       640.554
 -28318544.220 9  28555743.431 8  21145053.889    21145061.572        3452.753
      2690.537
 88  3 26  4 23 29.0800000  0  4G 6G 9G11G13
  -1015917.410 9 -12103165.475 8  18281861.388    18281866.061          33.094
        20.226
 -14707442.599 9 -11586917.534 9  19284762.558    19284767.343        2511.117
      1970.031
 -11318640.060 7  -8870680.367 9  18613073.021    18613079.459         797.101
       618.601
 -28422076.815 9  28475068.755 9  21125352.369    21125359.893        3453.781
      2679.054
 88  3 26  4 23 59.0800000  0  4G 6G 9G11G13
  -1016785.185 9 -12103841.662 8  18281696.417    18281700.535          12.376
        28.422
 -14782786.048 9 -11645626.702 8  19270425.084    19270429.958        2507.975
      1967.464
 -11342064.656 8  -8888933.276 9  18608615.035    18608621.474         788.217
       608.423
 -28525319.675 8  28394619.841 8  21105706.055    21105713.536        3434.898
      2672.810
 88  3 26  4 24 29.0800000  0  4G 6G 9G11G13
  -1017162.345 9 -12104135.566 8  18281624.150    18281627.972         -11.411
        -7.972
 -14857863.609 9 -11704128.688 8  19256138.317    19256143.316        2499.546
      1960.996
 -11364946.968 8  -8906763.619 8  18604261.049    18604267.061         754.247
       602.861
 -28628271.199 9  28314397.955 8  21086113.665    21086121.531        3436.597
      2675.438
 88  3 26  4 24 59.0800000  0  4G 6G 9G11G13
  -1017047.443 8 -12104046.023 9  18281646.037    18281651.589         -11.746
       -12.372
 -14932672.165 9 -11762421.047 9  19241903.344    19241907.352        2494.562
      1933.618
 -11387287.415 7  -8924171.729 9  18600009.807    18600015.631         736.129
       580.902
 -28730929.120 8  28234404.847 9  21066579.284    21066586.543        3418.144
      2668.323
 88  3 26  4 25 29.0800000  0  4G 6G 9G11G13
  -1016438.771 8 -12103571.730 9  18281762.510    18281766.047         -40.191
       -22.991
 -15007208.966 9 -11820501.651 8  19227718.709    19227724.938        2470.416
      1929.324
 -11409085.880 9  -8941157.526 8  18595861.956    18595868.710         722.126
       559.968
 -28833290.362 8  28154642.907 8  21047100.888    21047107.986        3403.376
      2651.763
 88  3 26  4 25 59.0800000  0  4G 6G 9G11G13
  -1015334.702 9 -12102711.423 9  18281971.913    18281976.933         -36.291
       -47.511
 -15081471.281 9 -11878368.368 8  19213587.844    19213592.139        2462.872
      1938.272
 -11430342.790 8  -8957721.330 9  18591816.181    18591823.526         679.782
       551.399
 -28935353.014 9  28075113.647 8  21027678.375    21027686.218        3404.165
      2643.561
 88  3 26  4 26 29.0800000  0  4G 6G 9G11G13
  -1013733.715 9 -12101463.892 9  18282276.273    18282281.459         -59.967
       -61.896
 -15155456.190 9 -11936018.942 8  19199508.569    19199512.998        2463.454
      1920.034
 -11451058.078 8  -8973863.090 8  18587874.589    18587880.213         678.530
       523.890
 -29037115.197 8  27995818.501 9  21008313.717    21008321.053        3396.948
      2642.809
 88  3 26  4 26 59.0800000  0  4G 6G 9G11G13
  -1011634.181 8 -12099827.894 8  18282676.240    18282680.156         -87.606
       -56.620
 -15229160.874 9 -11993451.164 8  19185483.220    19185488.268        2458.223
      1924.415
 -11471232.247 7  -8989583.181 8  18584036.082    18584041.907         649.974
       516.061
 -29138574.103 9  27916759.691 8  20989006.846    20989015.253        3388.073
      2625.498
 88  3 26  4 27 29.0800000  0  4G 6G 9G11G13
  -1009034.486 9 -12097802.165 9  18283170.745    18283176.032         -81.275
       -74.795
 -15302582.567 9 -12050662.869 9  19171511.280    19171515.075        2442.984
      1904.500
 -11490865.880 8  -9004882.097 8  18580299.682    18580306.364         647.916
       500.297
 -29239727.812 9  27837938.676 9  20969758.009    20969765.591        3385.720
      2626.076
 88  3 26  4 27 59.0800000  0  4G 6G 9G11G13
  -1005933.161 8 -12095385.552 8  18283761.128    18283766.489        -116.266
       -88.223
 -15375718.134 9 -12107651.608 9  19157593.631    19157598.737        2428.423
      1899.237
 -11509958.730 7  -9019759.616 8  18576666.849    18576672.244         624.089
       487.403
 -29340574.125 9  27759357.212 8  20950567.631    20950575.301        3367.969
      2622.751
 88  3 26  4 28 29.0800000  0  4G 6G 9G11G13
  -1002328.483 8 -12092576.718 9  18284447.375    18284451.796        -125.054
      -107.101
 -15448564.657 9 -12164415.128 9  19143732.514    19143736.083        2417.322
      1896.211
 -11528510.994 8  -9034215.915 8  18573135.065    18573141.805         622.630
       480.698
 -29441111.044 9  27681016.821 8  20931436.665    20931443.253        3347.220
      2602.836
 88  3 26  4 28 59.0800000  0  4G 6G 9G11G13
   -998219.112 8 -12089374.607 8  18285229.165    18285234.139        -145.189
      -106.597
 -15521119.269 9 -12220951.157 9  19129924.597    19129929.344        2413.519
      1877.911
 -11546523.204 8  -9048251.375 8  18569707.572    18569713.668         592.941
       462.461
 -29541336.046 9  27602919.477 8  20912364.408    20912371.837        3341.439
      2595.088
 88  3 26  4 29 29.0800000  0  4G 6G 9G11G13
   -993603.054 9 -12085777.689 9  18286107.367    18286112.068        -158.738
      -137.182
 -15593378.704 9 -12277257.184 9  19116174.667    19116179.487        2409.053
      1870.647
 -11563995.196 8  -9061865.889 8  18566382.930    18566388.998         579.600
       448.853
 -29641246.549 9  27525067.186 8  20893351.853    20893358.651        3335.801
      2580.616
 88  3 26  4 29 59.0800000  0  4G 6G 9G11G13
   -988478.544 9 -12081784.572 9  18287083.358    18287087.022        -183.123
      -140.550
 -15665339.912 9 -12333330.846 9  19102480.901    19102485.118        2393.495
      1860.656
 -11580927.171 9  -9075059.621 8  18563162.032    18563166.887         531.555
       440.458
 -29740840.307 9  27447461.720 8  20874398.845    20874406.806        3319.214
      2579.050
 88  3 26  4 30 29.0800000  0  4G 6G 9G11G13
   -982843.728 9 -12077393.797 9  18288155.140    18288159.039        -184.933
      -149.460
 -15736999.383 9 -12389169.375 9  19088843.301    19088849.169        2390.696
      1853.864
 -11597318.923 8  -9087832.394 9  18560042.592    18560047.602         531.571
       433.119
 -29840114.856 9  27370104.978 9  20855508.147    20855515.007        3287.979
      2575.812
 88  3 26  4 30 59.0800000  0  4G 6G 9G11G13
   -976696.119 9 -12072603.458 9  18289325.059    18289329.588        -214.893
      -174.284
 -15808353.434 9 -12444769.904 8  19075266.103    19075270.754        2373.416
      1856.032
 -11613169.904 7  -9100183.772 8  18557025.969    18557031.277         520.446
       405.835
 -29939066.931 9  27292999.515 8  20836678.747    20836685.005        3300.530
      2564.230
 88  3 26  4 31 29.0800000  0  4G 6G 9G11G13
   -970034.261 9 -12067412.420 9  18290592.881    18290597.507        -233.027
      -165.324
 -15879398.833 9 -12500129.966 9  19061746.855    19061751.888        2365.712
      1841.461
 -11628480.490 8  -9112114.096 8  18554111.710    18554116.950         502.703
       403.449
 -30037694.012 9  27216147.305 9  20817909.180    20817916.996        3279.366
      2560.297
 88  3 26  4 31 59.0800000  0  4G 6G 9G11G13
   -962857.236 8 -12061819.927 9  18291958.069    18291962.856        -232.014
      -185.463
 -15950133.181 9 -12555247.640 9  19048285.982    19048291.340        2356.446
      1834.228
 -11643251.753 8  -9123624.148 7  18551300.344    18551307.527         489.346
       378.904
 -30135995.058 8  27139549.143 8  20799202.154    20799211.506        3295.411
      2533.236
 88  3 26  4 32 29.0800000  0  4G 6G 9G11G13
   -955164.468 8 -12055825.569 9  18293421.503    18293426.871        -256.671
      -204.253
 -16020554.678 9 -12610121.528 8  19034884.958    19034890.975        2346.614
      1830.283
 -11657484.886 8  -9134714.878 9  18548591.885    18548598.296         458.446
       362.295
 -30233968.651 9  27063206.137 8  20780560.997    20780566.913        3250.874
      2547.652
 88  3 26  4 32 59.0800000  0  4G 6G 9G11G13
   -946955.199 8 -12049428.745 8  18294984.210    18294989.404        -276.630
      -224.858
 -16090660.716 9 -12664749.586 8  19021544.616    19021550.053        2343.009
      1820.222
 -11671181.368 8  -9145387.424 9  18545986.907    18545993.004         434.212
       350.134
 -30331612.763 9  26987119.880 8  20761978.613    20761986.111        3245.451
      2529.122
 88  3 26  4 33 29.0800000  0  4G 6G 9G11G13
   -938228.892 8 -12042629.008 9  18296645.176    18296650.171        -288.026
      -226.468
 -16160449.400 9 -12719130.360 8  19008265.157    19008268.618        2319.932
      1803.246
 -11684342.143 7  -9155642.539 8  18543481.265    18543487.547         425.193
       328.405
 -30428926.461 9  26911291.094 8  20743460.067    20743467.256        3231.608
      2531.583
 88  3 26  4 33 59.0800000  0  4G 6G 9G11G13
   -928984.893 9 -12035425.891 8  18298404.150    18298408.037        -318.599
      -241.536
 -16229918.486 9 -12773262.110 9  18995045.358    18995049.947        2316.917
      1804.651
 -11696968.776 9  -9165481.449 8  18541079.621    18541083.228         411.086
       328.051
 -30525908.388 9  26835720.819 8  20725005.929    20725013.120        3231.823
      2523.629
 88  3 26  4 34 29.0800000  0  4G 6G 9G11G13
   -919222.831 9 -12027819.102 8  18300261.700    18300265.521        -341.542
      -268.187
 -16299065.813 9 -12827143.130 8  18981886.731    18981891.131        2300.099
      1792.068
 -11709062.412 7  -9174905.036 9  18538777.052    18538783.221         396.230
       318.804
 -30622557.972 8  26760409.509 8  20706613.676    20706620.829        3215.986
      2515.974
 88  3 26  4 34 59.0800000  0  4G 6G 9G11G13
   -908942.364 9 -12019808.352 9  18302218.858    18302221.820        -354.213
      -279.359
 -16367889.513 9 -12880771.971 9  18968790.168    18968794.194        2294.015
      1776.328
 -11720624.892 9  -9183914.734 8  18536577.796    18536582.179         354.819
       304.382
 -30718873.200 9  26685358.739 8  20688285.158    20688292.476        3206.848
      2511.618
 88  3 26  4 35 29.0800000  0  4G 6G 9G11G13
   -898143.254 8 -12011393.465 9  18304273.140    18304276.969        -359.460
      -280.919
 -16436387.631 9 -12934147.124 8  18955755.414    18955759.896        2281.089
      1768.729
 -11731657.594 8  -9192511.616 8  18534477.960    18534482.054         343.296
       281.099
 -30814853.511 9  26610568.932 8  20670020.942    20670028.009        3213.594
      2492.249
 88  3 26  4 35 59.0800000  0  4G 6G 9G11G13
   -886824.829 8 -12002573.924 8  18306428.077    18306431.170        -402.737
      -306.203
 -16504557.989 9 -12987266.854 9  18942783.621    18942788.153        2272.795
      1767.101
 -11742162.088 8  -9200696.936 7  18532479.088    18532484.826         342.387
       266.596
 -30910497.480 9  26536041.212 8  20651820.565    20651828.105        3186.186
      2470.464
 88  3 26  4 36 29.0800000  0  4G 6G 9G11G13
   -874986.448 9 -11993349.216 8  18308679.802    18308684.098        -405.656
      -306.911
 -16572398.035 9 -13040129.212 8  18929873.792    18929878.009        2258.250
      1754.903
 -11752139.016 8  -9208471.131 9  18530581.273    18530586.352         324.461
       253.044
 -31005803.638 9  26461776.742 8  20633684.645    20633691.032        3165.516
      2479.977
 88  3 26  4 36 59.0800000  0  4G 6G 9G11G13
   -862626.812 8 -11983718.338 9  18311031.120    18311036.342        -409.061
      -333.767
 -16639905.037 9 -13092732.048 8  18917026.552    18917032.101        2243.665
      1756.985
 -11761589.058 9  -9215834.772 8  18528782.095    18528787.563         307.053
       245.743
 -31100769.603 9  26387777.343 9  20615612.771    20615620.579        3170.811
      2455.675
 88  3 26  4 37 29.0800000  0  4G 6G 9G11G13
   -849744.739 9 -11973680.364 9  18313482.754    18313488.005        -435.886
      -346.574
 -16707075.785 9 -13145072.867 8  18904244.946    18904249.335        2241.456
      1743.631
 -11770513.386 8  -9222788.771 8  18527084.230    18527089.427         278.066
       230.500
 -31195393.567 9  26314044.443 8  20597606.584    20597613.388        3157.111
      2455.041
 88  3 26  4 37 59.0800000  0  4G 6G 9G11G13
   -836338.692 8 -11963234.097 9  18316033.526    18316039.351        -446.883
      -351.445
 -16773907.174 9 -13197149.264 9  18891526.827    18891532.251        2225.300
      1737.654
 -11778912.267 8  -9229333.323 8  18525484.732    18525492.730         265.259
       205.403
 -31289673.317 9  26240579.766 8  20579665.725    20579671.878        3128.364
      2458.335
 88  3 26  4 38 29.0800000  0  4G 6G 9G11G13
   -822407.237 9 -11952378.432 8  18318685.169    18318690.435        -461.978
      -366.638
 -16840396.053 9 -13248958.754 8  18878874.865    18878879.153        2210.819
      1736.933
 -11786786.315 9  -9235468.924 8  18523987.650    18523992.989         255.307
       207.820
 -31383606.695 9  26167384.988 8  20561790.592    20561797.822        3122.479
      2455.333
 88  3 26  4 38 59.0800000  0  4G 6G 9G11G13
   -807949.034 9 -11941112.311 8  18321436.211    18321441.745        -496.659
      -387.504
 -16906539.202 9 -13300498.883 8  18866287.825    18866292.954        2185.636
      1717.061
 -11794135.604 8  -9241195.628 8  18522588.592    18522594.117         225.786
       192.261
 -31477191.449 9  26094461.857 8  20543982.803    20543988.655        3115.852
      2426.856
 88  3 26  4 39 29.0800000  0  4G 6G 9G11G13
   -792962.498 8 -11929434.492 9  18324288.215    18324292.306        -503.317
      -405.244
 -16972333.037 9 -13351766.788 8  18853767.987    18853772.312        2189.471
      1708.536
 -11800960.582 8  -9246513.770 8  18521288.842    18521296.367         223.553
       175.546
 -31570425.513 9  26021811.995 9  20526240.270    20526247.449        3090.358
      2422.860
 88  3 26  4 39 59.0800000  0  4G 6G 9G11G13
   -777446.337 9 -11917343.990 8  18327241.491    18327245.941        -521.347
      -419.480
 -17037774.551 9 -13402760.166 9  18841315.559    18841319.040        2180.412
      1699.694
 -11807261.922 8  -9251423.887 8  18520090.930    18520096.212         192.597
       159.483
 -31663306.300 9  25949437.418 7  20508565.140    20508572.794        3093.715
      2409.662
 88  3 26  4 40 29.0800000  0  4G 6G 9G11G13
   -761399.196 8 -11904839.729 9  18330295.261    18330299.070        -546.626
      -417.330
 -17102860.722 8 -13453476.653 8  18828930.018    18828934.053        2166.776
      1695.450
 -11813040.465 9  -9255926.619 9  18518990.820    18518997.204         185.101
       157.308
 -31755832.059 9  25877339.485 8  20490958.210    20490964.953        3073.102
      2397.005
 88  3 26  4 40 59.0800000  0  4G 6G 9G11G13
   -744819.995 9 -11891920.875 7  18333449.388    18333453.968        -563.731
      -440.887
 -17167588.559 9 -13503913.912 9  18816612.255    18816616.580        2153.922
      1680.201
 -11818296.708 8  -9260022.379 7  18517991.417    18517996.080         179.638
       134.665
 -31848000.018 9  25805520.348 8  20473418.294    20473426.425        3070.247
      2395.476
 88  3 26  4 41 29.0800000  0  4G 6G 9G11G13
   -727707.334 8 -11878586.356 8  18336705.606    18336710.014        -575.055
      -455.129
 -17231954.721 9 -13554069.341 8  18804363.427    18804368.236        2139.312
      1660.367
 -11823031.075 8  -9263711.472 9  18517089.021    18517095.219         152.119
       130.390
 -31939809.103 8  25733980.869 9  20455948.290    20455955.461        3062.791
      2377.444
 88  3 26  4 41 59.0800000  0  4G 6G 9G11G13
   -710060.025 8 -11864835.208 9  18340063.780    18340069.261        -578.675
      -459.702
 -17295955.915 9 -13603940.392 9  18792185.006    18792189.155        2132.829
      1656.060
 -11827244.343 8  -9266994.513 8  18516288.657    18516294.209         137.167
       104.783
 -32031256.496 9  25662723.211 8  20438547.531    20438553.923        3045.088
      2367.868
 88  3 26  4 42 29.0800000  0  4G 6G 9G11G13
   -691877.017 9 -11850666.634 9  18343523.677    18343529.236        -603.770
      -480.537
 -17359589.229 9 -13653524.775 9  18780075.761    18780080.451        2108.205
      1650.586
 -11830937.471 8  -9269872.256 8  18515585.051    18515591.002         113.308
        81.407
 -32122340.576 8  25591748.655 8  20421212.694    20421220.697        3035.495
      2369.130
 88  3 26  4 42 59.0800000  0  4G 6G 9G11G13
   -673158.427 9 -11836080.735 9  18347086.264    18347092.155        -639.073
      -495.444
 -17422852.979 9 -13702821.182 8  18768036.962    18768042.051        2106.697
      1628.875
 -11834112.237 8  -9272346.088 8  18514981.578    18514986.514          98.962
        76.647
 -32213060.163 9  25521058.119 8  20403950.234    20403956.319        3004.020
      2364.028
 88  3 26  4 43 29.0800000  0  4G 6G 9G11G13
   -653905.714 9 -11821078.624 8  18350749.032    18350755.257        -637.566
      -505.230
 -17485746.716 9 -13751829.274 9  18756068.650    18756073.745        2085.358
      1631.280
 -11836772.179 8  -9274418.742 8  18514475.376    18514481.256          77.614
        55.564
 -32303415.738 8  25450651.218 8  20386755.921    20386763.134        3000.966
      2350.849
 88  3 26  4 43 59.0800000  0  4G 6G 9G11G13
   -634118.216 8 -11805659.794 8  18354515.776    18354520.134        -661.864
      -516.017
 -17548267.607 9 -13800546.839 8  18744171.129    18744175.983        2068.987
      1629.577
 -11838918.540 8  -9276091.212 8  18514067.312    18514072.061          61.666
        44.907
 -32393405.966 9  25380529.013 8  20369631.313    20369638.293        2991.301
      2339.160
 88  3 26  4 44 29.0800000  0  4G 6G 9G11G13
   -613794.686 7 -11789823.290 8  18358382.471    18358387.598        -693.474
      -526.513
 -17610412.517 8 -13848971.419 8  18732345.919    18732350.247        2068.078
      1611.762
 -11840551.824 7  -9277363.884 8  18513755.999    18513761.479          46.403
        36.835
 -32483028.834 8  25310693.052 8  20352576.388    20352583.597        3003.645
      2328.311
 88  3 26  4 44 59.0800000  0  4G 6G 9G11G13
   -592934.382 8 -11773568.517 8  18362352.150    18362356.409        -706.400
      -548.000
 -17672178.465 9 -13897100.718 9  18720591.510    18720596.427        2068.612
      1597.458
 -11841673.165 9  -9278237.629 8  18513542.876    18513547.070          14.769
        23.911
 -32572283.440 9  25241144.061 8  20335592.737    20335598.339        2980.121
      2295.782
 88  3 26  4 45 29.0800000  0  4G 6G 9G11G13
   -571535.709 8 -11756894.227 7  18366424.647    18366428.247        -720.116
      -559.576
 -17733561.913 9 -13944931.953 9  18708911.269    18708915.582        2041.914
      1591.735
 -11842283.310 9  -9278713.040 8  18513425.968    18513431.835           4.394
         3.828
 -32661166.314 8  25171884.724 8  20318678.038    20318685.170        2956.620
      2298.075
 88  3 26  4 45 59.0800000  0  4G 6G 9G11G13
   -549597.576 8 -11739799.588 9  18370599.511    18370603.268        -736.775
      -577.584
 -17794559.556 9 -13992462.568 9  18697303.491    18697308.022        2038.556
      1586.864
 -11842382.743 8  -9278790.513 7  18513407.053    18513411.977          -5.255
         5.822
 -32749675.852 9  25102916.288 8  20301835.951    20301842.400        2946.142
      2292.315
 88  3 26  4 46 29.0800000  0  4G 6G 9G11G13
   -527120.135 9 -11722284.714 8  18374877.025    18374881.343        -778.736
      -595.672
 -17855169.751 9 -14039691.292 9  18685770.432    18685774.862        2023.317
      1563.388
 -11841973.306 8  -9278471.451 8  18513485.064    18513489.944         -28.995
       -17.181
 -32837811.577 9  25034239.138 8  20285063.979    20285070.956        2933.311
      2292.806
 88  3 26  4 46 59.0800000  0  4G 6G 9G11G13
   -504103.218 8 -11704349.471 8  18379256.175    18379261.457        -762.037
      -595.144
 -17915389.980 9 -14086616.137 8  18674310.075    18674314.816        2000.351
      1549.656
 -11841056.947 8  -9277757.394 9  18513658.032    18513664.213         -25.988
       -24.302
 -32925571.923 9  24965854.498 9  20268363.810    20268370.683        2918.527
      2278.396
 88  3 26  4 47 29.0800000  0  4G 6G 9G11G13
   -480544.581 8 -11685992.094 8  18383739.233    18383743.373        -778.839
      -631.352
 -17975215.962 9 -14133233.783 8  18662925.804    18662929.638        1988.677
      1557.864
 -11839633.222 9  -9276647.986 8  18513930.676    18513936.284         -56.658
       -54.563
 -33012953.168 8  24897765.261 8  20251735.706    20251742.115        2899.891
      2261.525
 88  3 26  4 47 59.0800000  0  4G 6G 9G11G13
   -456443.287 9 -11667211.877 8  18388325.440    18388330.635        -804.485
      -633.570
 -18034644.654 9 -14179541.830 8  18651617.133    18651621.439        1977.074
      1547.145
 -11837703.011 9  -9275143.891 9  18514297.219    18514302.613         -76.091
       -64.282
 -33099953.866 9  24829972.554 9  20235180.433    20235186.931        2892.825
      2254.404
 88  3 26  4 48 29.0800000  0  4G 6G 9G11G13
   -431798.896 9 -11648008.460 8  18393014.880    18393019.138        -824.907
      -643.537
 -18093673.511 9 -14225538.333 8  18640383.855    18640388.307        1967.226
      1540.459
 -11835267.906 8  -9273246.386 7  18514760.946    18514766.858         -90.286
       -57.850
 -33186572.658 9  24762477.437 7  20218696.219    20218703.741        2896.175
      2254.348
 88  3 26  4 48 59.0800000  0  4G 6G 9G11G13
   -406612.178 8 -11628382.468 8  18397807.977    18397812.759        -844.022
      -655.467
 -18152300.842 9 -14271221.944 9  18629227.618    18629232.403        1930.472
      1519.892
 -11832330.108 8  -9270957.186 7  18515319.775    18515325.183         -89.783
       -71.546
 -33272809.707 9  24695279.774 9  20202286.192    20202292.689        2861.462
      2232.302
 88  3 26  4 49 29.0800000  0  4G 6G 9G11G13
   -380882.080 8 -11608333.042 8  18402704.156    18402709.250        -867.921
      -683.777
 -18210523.663 9 -14316590.381 9  18618148.468    18618151.526        1939.666
      1507.433
 -11828891.014 8  -9268277.360 8  18515974.612    18515980.494        -113.826
       -86.036
 -33358662.595 9  24628381.482 9  20185949.365    20185955.961        2844.852
      2217.041
 88  3 26  4 49 59.0800000  0  4G 6G 9G11G13
   -354607.256 8 -11587859.167 8  18407704.593    18407708.271        -888.495
      -694.856
 -18268338.175 9 -14361640.646 8  18607146.962    18607150.954        1914.324
      1497.646
 -11824950.908 8  -9265207.130 8  18516724.527    18516730.222        -143.164
      -106.051
 -33444129.172 9  24561784.191 9  20169685.008    20169692.434        2837.252
      2210.802
 88  3 26  4 50 29.0800000  0  4G 6G 9G11G13
   -327787.022 8 -11566960.285 8  18412807.427    18412812.214        -896.525
      -698.697
 -18325741.634 9 -14406370.588 9  18596222.927    18596226.562        1904.890
      1491.085
 -11820510.912 9  -9261747.376 7  18517569.426    18517575.074        -132.917
      -121.939
 -33529207.496 9  24495489.434 7  20153495.111    20153502.471        2849.317
      2201.463
 88  3 26  4 50 59.0800000  0  4G 6G 9G11G13
   -300420.996 8 -11545636.112 8  18418016.182    18418019.611        -929.611
      -724.527
 -18382731.115 9 -14450777.966 9  18585377.340    18585383.012        1884.588
      1482.696
 -11815572.027 7  -9257898.877 8  18518508.416    18518514.139        -172.956
      -131.701
 -33613896.440 9  24429498.084 8  20137379.931    20137385.904        2825.737
      2194.516
 88  3 26  4 51 29.0800000  0  4G 6G 9G11G13
   -272509.091 8 -11523886.602 8  18423326.976    18423330.857        -941.668
      -724.018
 -18439304.804 9 -14494861.344 8  18574612.573    18574615.942        1867.140
      1468.746
 -11810136.393 8  -9253663.323 8  18519543.553    18519548.662        -191.943
      -150.933
 -33698195.249 8  24363810.739 9  20121338.104    20121343.744        2809.764
      2182.548
 88  3 26  4 51 59.0800000  0  4G 6G 9G11G13
   -244050.950 8 -11501711.444 8  18428743.340    18428747.518        -958.199
      -754.155
 -18495459.774 9 -14538618.448 9  18563926.052    18563931.272        1867.650
      1450.366
 -11804205.607 9  -9249041.912 8  18520672.028    18520677.208        -199.319
      -154.879
 -33782102.297 9  24298428.665 8  20105370.722    20105378.270        2802.404
      2177.148
 88  3 26  4 52 29.0800000  0  4G 6G 9G11G13
   -215045.950 8 -11479110.154 8  18434262.383    18434266.526        -971.946
      -763.270
 -18551192.748 9 -14582046.732 8  18553320.933    18553325.349        1851.032
      1444.326
 -11797780.654 8  -9244035.461 8  18521894.797    18521900.549        -213.808
      -169.984
 -33865615.740 9  24233353.301 8  20089478.276    20089485.401        2773.744
      2159.961
 88  3 26  4 52 59.0800000  0  4G 6G 9G11G13
   -185493.411 9 -11456082.222 9  18439886.311    18439890.726        -992.082
      -777.052
 -18606501.050 9 -14625144.098 9  18542795.750    18542800.590        1842.890
      1439.106
 -11790862.929 8  -9238645.004 8  18523210.921    18523216.987        -233.162
      -189.048
 -33948733.928 8  24168585.925 8  20073661.596    20073668.571        2761.193
      2165.510
 88  3 26  4 53 29.0800000  0  4G 6G 9G11G13
   -155392.081 9 -11432626.642 9  18445614.729    18445618.522       -1006.627
      -781.402
 -18661381.311 9 -14667907.937 8  18532352.461    18532357.039        1826.439
      1417.830
 -11783452.844 8  -9232870.883 8  18524619.761    18524626.272        -258.983
      -197.760
 -34031454.683 9  24104128.246 8  20057920.229    20057927.418        2762.437
      2145.141
 88  3 26  4 53 59.0800000  0  4G 6G 9G11G13
   -124742.842 9 -11408744.123 9  18451446.472    18451451.383       -1027.711
      -785.795
 -18715831.578 9 -14710336.703 9  18521990.755    18521995.750        1802.404
      1410.106
 -11775553.094 8  -9226715.216 7  18526124.389    18526129.616        -287.037
      -196.722
 -34113777.520 9  24039980.637 7  20042255.182    20042261.059        2731.743
      2145.446
 88  3 26  4 54 29.0800000  0  4G 6G 9G11G13
    -93544.937 8 -11384434.080 8  18457383.871    18457387.900       -1034.497
      -819.213
 -18769848.992 9 -14752428.187 9  18511711.835    18511717.358        1786.702
      1388.383
 -11767164.723 8  -9220178.805 8  18527720.741    18527725.163        -289.964
      -219.800
 -34195701.466 8  23976143.830 9  20026664.805    20026672.201        2731.735
      2137.343
 88  3 26  4 54 59.0800000  0  4G 6G 9G11G13
    -61798.037 9 -11359696.234 8  18463424.105    18463429.813       -1044.968
      -833.343
 -18823430.603 9 -14794180.074 8  18501515.603    18501520.428        1801.878
      1381.989
 -11758289.294 7  -9213262.870 9  18529409.811    18529415.235        -300.099
      -234.011
 -34277224.148 9  23912619.717 8  20011151.802    20011158.672        2729.080
      2124.785
 88  3 26  4 55 29.0800000  0  4G 6G 9G11G13
    -29501.879 8 -11334530.413 8  18469569.457    18469575.187       -1078.021
      -850.046
 -18876573.830 9 -14835590.378 9  18491403.613    18491407.994        1758.194
      1388.364
 -11748928.108 9  -9205968.428 8  18531190.924    18531196.935        -321.781
      -240.337
 -34358344.929 9  23849408.784 9  19995714.259    19995722.657        2704.846
      2095.419
 88  3 26  4 55 59.0800000  0  4G 6G 9G11G13
      3343.960 8 -11308936.264 8  18475820.576    18475825.224       -1109.225
      -848.126
 -18929276.029 9 -14876657.022 9  18481373.560    18481378.699        1743.194
      1363.839
 -11739082.737 8  -9198296.702 8  18533064.610    18533070.391        -340.625
      -264.334
 -34439062.224 9  23786512.250 9  19980355.422    19980362.277        2672.295
      2081.643
 88  3 26  4 56 29.0800000  0  4G 6G 9G11G13
     36738.104 9 -11282914.861 9  18482176.337    18482180.132       -1124.631
      -874.354
 -18981535.906 9 -14917378.988 9  18471428.213    18471433.533        1732.158
      1356.600
 -11728756.040 9  -9190249.909 8  18535028.987    18535034.037        -350.345
      -286.499
 -34519376.434 9  23723929.808 8  19965071.936    19965078.972        2679.089
      2084.066
 88  3 26  4 56 59.0800000  0  4G 6G 9G11G13
     70681.770 8 -11256465.257 8  18488634.239    18488639.634       -1130.413
      -884.029
 -19033349.850 9 -14957753.485 8  18461569.988    18461573.423        1717.724
      1344.228
 -11717948.567 8  -9181828.477 8  18537085.782    18537091.805        -377.594
      -292.265
 -34599284.965 9  23661663.481 9  19949865.945    19949872.386        2659.081
      2064.791
 88  3 26  4 57 29.0800000  0  4G 6G 9G11G13
    105176.478 9 -11229586.275 9  18495198.628    18495203.444       -1161.545
      -902.919
 -19084713.738 9 -14997777.287 9  18451794.745    18451799.501        1704.742
      1343.308
 -11706660.514 8  -9173032.591 8  18539234.264    18539239.799        -369.237
      -301.803
 -34678785.066 9  23599715.390 8  19934737.538    19934744.097        2641.801
      2053.507
 88  3 26  4 57 59.0800000  0  4G 6G 9G11G13
    140222.031 9 -11202278.070 9  18501867.018    18501872.796       -1201.425
      -924.487
 -19135625.204 9 -15037448.550 9  18442106.487    18442111.788        1677.549
      1307.362
 -11694894.110 9  -9163863.954 8  18541473.573    18541478.810        -394.771
      -307.582
 -34757875.832 8  23538086.265 8  19919687.291    19919693.624        2625.054
      2032.355
 88  3 26  4 58 29.0800000  0  4G 6G 9G11G13
    175818.147 9 -11174540.841 9  18508641.021    18508646.181       -1180.588
      -920.423
 -19186082.282 9 -15076765.756 9  18432505.466    18432510.238        1675.827
      1304.143
 -11682651.568 8  -9154324.288 8  18543802.975    18543809.287        -423.024
      -321.886
 -34836556.460 9  23476776.744 8  19904714.323    19904720.668        2611.020
      2039.439
 88  3 26  4 58 59.0800000  0  4G 6G 9G11G13
    211964.464 8 -11146374.886 9  18515520.379    18515524.351       -1215.156
      -947.235
 -19236082.797 9 -15115727.192 9  18422990.376    18422995.094        1667.597
      1295.319
 -11669934.756 8  -9144415.064 8  18546223.128    18546227.564        -437.226
      -336.880
 -34914826.660 9  23415787.038 9  19889819.892    19889826.304        2613.037
      2028.856
 88  3 26  4 59 29.0800000  0  4G 6G 9G11G13
    248661.166 8 -11117780.067 8  18522502.801    18522507.615       -1230.092
      -964.988
 -19285623.879 9 -15154330.616 9  18413562.972    18413567.247        1647.327
      1281.711
 -11656745.307 8  -9134137.556 8  18548732.884    18548738.879        -450.128
      -351.340
 -34992684.848 9  23355118.373 8  19875004.508    19875010.522        2589.274
      2020.673
 88  3 26  4 59 59.0800000  0  4G 6G 9G11G13
    285908.846 9 -11088755.914 9  18529589.853    18529595.363       -1241.854
      -970.494
 -19334702.659 9 -15192573.813 8  18404223.678    18404227.997        1626.266
      1276.610
 -11643084.180 8  -9123492.513 8  18551332.734    18551337.797        -469.147
      -369.341
 -35070129.339 9  23294772.062 9  19860266.926    19860273.572        2580.023
      2005.567
 88  3 26  5  0 29.0800000  0  4G 6G 9G11G13
    323707.331 9 -11059302.560 9  18536783.205    18536788.112       -1249.653
      -987.830
 -19383316.341 9 -15230454.605 7  18394973.202    18394977.529        1603.476
      1251.469
 -11628953.257 7  -9112481.389 9  18554021.060    18554026.014        -486.101
      -358.100
 -35147159.215 9  23234748.844 8  19845608.363    19845614.176        2546.938
      2008.127
 88  3 26  5  0 59.0800000  0  4G 6G 9G11G13
    362056.828 8 -11029419.850 9  18544081.991    18544086.379       -1285.355
      -993.429
 -19431462.329 9 -15267970.944 8  18385810.582    18385815.710        1591.235
      1254.619
 -11614353.978 8  -9101105.312 8  18556798.487    18556805.366        -488.358
      -395.719
 -35223773.788 9  23175049.235 9  19831029.626    19831035.350        2545.877
      1984.807
 88  3 26  5  1 29.0800000  0  4G 6G 9G11G13
    400957.222 8 -10999107.863 9  18551484.603    18551488.398       -1316.407
     -1017.252
 -19479138.033 9 -15305120.844 9  18376737.462    18376742.478        1587.056
      1236.767
 -11599288.083 8  -9089365.640 9  18559666.275    18559670.899        -525.375
      -397.024
 -35299971.151 9  23115674.729 8  19816529.814    19816536.060        2541.252
      1984.596
 88  3 26  5  1 59.0800000  0  4G 6G 9G11G13
    440408.110 9 -10968366.925 9  18558991.180    18558996.305       -1328.352
     -1028.108
 -19526341.379 9 -15341902.649 8  18367756.267    18367760.541        1572.846
      1224.302
 -11583757.915 8  -9077264.185 9  18562620.900    18562626.982        -512.544
      -403.181
 -35375750.201 9  23056626.139 8  19802108.867    19802115.162        2505.734
      1972.435
 88  3 26  5  2 29.0800000  0  4G 6G 9G11G13
    480410.100 9 -10937196.562 9  18566603.295    18566607.818       -1340.107
     -1041.294
 -19573069.107 8 -15378313.852 8  18358863.922    18358868.256        1565.709
      1188.977
 -11567764.572 8  -9064801.827 8  18565665.730    18565670.697        -548.428
      -414.602
 -35451109.280 9  22997904.854 8  19787768.560    19787774.855        2510.216
      1954.608
 88  3 26  5  2 59.0800000  0  4G 6G 9G11G13
    520963.539 9 -10905596.494 9  18574320.363    18574325.338       -1362.698
     -1055.231
 -19619318.275 8 -15414352.150 8  18350062.882    18350068.252        1532.424
      1197.999
 -11551309.042 8  -9051979.312 8  18568795.671    18568801.838        -547.878
      -426.788
 -35526047.522 9  22939511.445 8  19773508.246    19773514.415        2497.513
      1937.688
 88  3 26  5  3 29.0800000  0  4G 6G 9G11G13
    562067.962 8 -10873567.091 8  18582142.544    18582147.363       -1384.548
     -1066.814
 -19665086.671 8 -15450015.827 8  18341354.130    18341357.795        1526.108
      1178.382
 -11534393.927 8  -9038798.694 8  18572014.984    18572021.176        -551.833
      -454.725
 -35600564.212 8  22881446.538 8  19759328.142    19759334.967        2473.948
      1929.504
 88  3 26  5  3 59.0800000  0  4G 6G 9G11G13
    603723.045 9 -10841108.604 8  18590069.019    18590073.897       -1391.047
     -1103.984
 -19710371.697 9 -15485302.833 9  18332735.706    18332740.201        1509.466
      1168.465
 -11517020.934 9  -9025261.293 8  18575321.378    18575327.761        -596.729
      -457.198
 -35674658.339 9  22823710.880 8  19745228.831    19745234.848        2456.197
      1921.221
 88  3 26  5  4 29.0800000  0  4G 6G 9G11G13
    645929.086 9 -10808220.787 9  18598100.590    18598105.709       -1418.120
     -1093.533
 -19755170.724 9 -15520211.153 8  18324210.746    18324215.131        1484.060
      1154.670
 -11499190.988 8  -9011367.812 8  18578714.716    18578718.941        -614.217
      -454.663
 -35748328.257 8  22766305.775 8  19731209.470    19731215.319        2456.580
      1910.745
 88  3 26  5  4 59.0800000  0  4G 6G 9G11G13
    688686.913 9 -10774903.015 8  18606237.143    18606241.536       -1430.926
     -1118.407
 -19799479.903 9 -15554737.773 9  18315779.765    18315784.129        1475.399
      1145.412
 -11480904.997 9  -8997118.971 8  18582193.140    18582199.749        -612.247
      -494.350
 -35821571.801 8  22709232.928 8  19717271.287    19717277.076        2441.022
      1907.800
 88  3 26  5  5 29.0800000  0  4G 6G 9G11G13
    731994.472 9 -10741156.888 9  18614477.969    18614483.731       -1455.910
     -1128.585
 -19843298.890 9 -15588882.417 9  18307440.985    18307444.901        1445.950
      1137.589
 -11462167.064 9  -8982517.982 9  18585758.642    18585764.696        -638.594
      -491.311
 -35894390.061 9  22652491.465 8  19703414.819    19703420.786        2410.791
      1899.523
 88  3 26  5  5 59.0800000  0  4G 6G 9G11G13
    775851.525 8 -10706982.577 9  18622824.458    18622828.379       -1457.569
     -1136.942
 -19886625.051 8 -15622643.064 8  18299195.740    18299200.671        1455.448
      1119.252
 -11442978.581 7  -8967565.913 7  18589410.978    18589417.589        -641.999
      -503.981
 -35966782.408 8  22596081.892 8  19689638.521    19689645.690        2416.565
      1881.540
 88  3 26  5  6 29.0800000  0  4G 6G 9G11G13
    820258.569 8 -10672379.702 9  18631273.435    18631278.729       -1466.676
     -1153.061
 -19929455.080 9 -15656017.080 8  18291045.865    18291050.409        1423.455
      1120.619
 -11423340.857 9  -8952263.775 9  18593147.391    18593153.533        -662.677
      -501.254
 -36038746.444 9  22540006.050 8  19675944.644    19675950.316        2392.985
      1866.478
 88  3 26  5  6 59.0800000  0  4G 6G 9G11G13
    865215.869 8 -10637348.050 9  18639828.678    18639834.392       -1489.259
     -1178.525
 -19971786.323 9 -15689002.450 8  18282990.409    18282993.907        1399.962
      1116.455
 -11403255.322 7  -8936612.692 8  18596969.491    18596975.742        -672.924
      -532.807
 -36110281.723 8  22484264.321 8  19662331.653    19662337.936        2378.200
      1852.590
 88  3 26  5  7 29.0800000  0  4G 6G 9G11G13
    910722.482 9 -10601888.373 8  18648489.802    18648493.671       -1543.301
     -1187.516
 -20013616.581 8 -15721597.438 8  18275030.376    18275034.904        1397.506
      1086.909
 -11382724.379 8  -8920614.555 8  18600877.181    18600881.798        -682.270
      -544.700
 -36181386.432 9  22428858.103 8  19648800.727    19648807.560        2375.449
      1842.288
 88  3 26  5  7 59.0800000  0  4G 6G 9G11G13
    956777.111 9 -10566001.666 8  18657252.471    18657258.168       -1537.296
     -1194.010
 -20054944.578 9 -15753801.068 8  18267165.663    18267170.138        1368.950
      1076.221
 -11361750.731 9  -8904271.439 8  18604867.547    18604872.701        -693.761
      -530.135
 -36252061.758 9  22373786.455 8  19635351.820    19635359.471        2354.142
      1824.833
 88  3 26  5  8 29.0800000  0  4G 6G 9G11G13
   1003380.349 8 -10529687.474 8  18666120.928    18666125.775       -1548.859
     -1224.743
 -20095766.850 9 -15785610.619 8  18259397.857    18259402.084        1362.706
      1060.065
 -11340335.300 9  -8887584.082 9  18608943.400    18608948.447        -724.446
      -567.219
 -36322305.713 9  22319050.956 7  19621983.969    19621992.044        2347.172
      1823.491
 88  3 26  5  8 59.0800000  0  4G 6G 9G11G13
   1050531.622 8 -10492946.238 9  18675093.953    18675098.640       -1586.650
     -1244.180
 -20136081.079 8 -15817024.293 8  18251726.646    18251731.068        1342.730
      1051.055
 -11318480.491 8  -8870554.355 9  18613101.982    18613108.334        -742.779
      -575.987
 -36392117.235 9  22264652.421 8  19608700.212    19608706.889        2325.227
      1801.662
 88  3 26  5  9 29.0800000  0  4G 6G 9G11G13
   1098230.421 8 -10455778.355 9  18684171.267    18684175.867       -1603.364
     -1255.862
 -20175885.292 8 -15848040.552 8  18244151.628    18244156.324        1326.742
      1017.122
 -11296188.210 8  -8853183.727 9  18617344.274    18617349.425        -754.709
      -580.479
 -36461495.795 9  22210591.236 9  19595498.294    19595505.271        2304.174
      1800.637
 88  3 26  5  9 59.0800000  0  4G 6G 9G11G13
   1146476.653 9 -10418183.890 8  18693352.050    18693357.025       -1624.584
     -1259.826
 -20215176.648 8 -15878657.188 8  18236674.680    18236679.523        1304.661
      1024.697
 -11273459.643 8  -8835473.147 9  18621668.590    18621675.411        -759.071
      -594.883
 -36530440.730 9  22156867.946 8  19582378.625    19582384.582        2294.015
      1783.940
 88  3 26  5 10 29.0800000  0  4G 6G 9G11G13
   1195270.017 8 -10380163.115 9  18702637.069    18702641.886       -1653.523
     -1266.680
 -20253952.483 9 -15908872.110 8  18229295.481    18229300.387        1294.932
      1000.140
 -11250296.780 9  -8817424.150 8  18626077.146    18626082.385        -790.498
      -605.844
 -36598950.413 9  22103483.824 8  19569340.735    19569347.579        2275.028
      1785.003
 88  3 26  5 10 59.0800000  0  4G 6G 9G11G13
   1244609.922 9 -10341716.457 9  18712025.922    18712031.498       -1652.175
     -1286.272
 -20292210.622 9 -15938683.635 9  18222015.447    18222021.202        1265.937
       980.075
 -11226701.997 8  -8799038.599 9  18630566.440    18630572.595        -803.855
      -615.997
 -36667024.068 9  22050439.454 8  19556387.053    19556393.191        2269.717
      1766.616
 88  3 26  5 11 29.0800000  0  4G 6G 9G11G13
   1294495.996 9 -10302844.198 9  18721518.654    18721523.376       -1656.210
     -1300.029
 -20329948.660 8 -15968089.892 8  18214835.119    18214838.263        1252.444
       976.633
 -11202676.985 8  -8780317.795 9  18635139.184    18635143.625        -826.502
      -622.615
 -36734660.961 9  21997735.442 8  19543516.259    19543522.756        2245.395
      1765.168
 88  3 26  5 11 59.0800000  0  4G 6G 9G11G13
   1344927.702 9 -10263546.787 9  18731115.879    18731120.987       -1682.517
     -1320.727
 -20367164.301 8 -15997089.082 8  18207752.344    18207757.759        1239.359
       961.285
 -11178223.875 8  -8761263.410 9  18639791.894    18639798.459        -820.832
      -641.617
 -36801860.647 9  21945372.111 8  19530728.884    19530734.397        2232.437
      1733.938
 88  3 26  5 12 29.0800000  0  4G 6G 9G11G13
   1395904.301 9 -10223824.780 8  18740815.885    18740821.697       -1685.580
     -1336.287
 -20403855.369 8 -16025679.518 8  18200770.867    18200774.960        1213.099
       956.631
 -11153344.632 8  -8741876.968 8  18644526.073    18644532.195        -845.545
      -658.319
 -36868622.402 9  21893350.018 9  19518024.295    19518030.098        2206.831
      1723.648
 88  3 26  5 12 59.0800000  0  4G 6G 9G11G13
   1447425.189 9 -10183678.637 8  18750620.034    18750625.247       -1733.944
     -1342.619
 -20440019.661 8 -16053859.479 8  18193889.321    18193893.321        1203.522
       928.283
 -11128041.172 9  -8722159.987 8  18649340.790    18649346.694        -844.851
      -665.465
 -36934945.193 9  21841669.946 8  19505403.377    19505409.512        2206.010
      1705.640
 88  3 26  5 13 29.0800000  0  4G 6G 9G11G13
   1499491.051 9 -10143107.856 8  18760528.387    18760533.388       -1738.761
     -1335.293
 -20475654.444 9 -16081626.835 9  18187107.932    18187112.072        1168.243
       924.667
 -11102315.367 9  -8702113.892 9  18654236.256    18654242.868        -861.127
      -664.104
 -37000828.711 8  21790332.159 8  19492866.438    19492873.030        2196.369
      1700.489
 88  3 26  5 13 59.0800000  0  4G 6G 9G11G13
   1552099.299 9 -10102114.428 9  18770539.545    18770544.011       -1778.760
     -1362.919
 -20510757.258 8 -16108979.670 8  18180427.033    18180432.452        1159.910
       903.478
 -11076169.176 8  -8681740.226 9  18659212.223    18659218.666        -907.761
      -688.301
 -37066271.515 9  21739337.799 9  19480412.629    19480418.605        2179.328
      1687.434
 88  3 26  5 14 29.0800000  0  4G 6G 9G11G13
   1605250.452 9 -10060697.960 8  18780654.181    18780658.242       -1794.166
     -1385.885
 -20545325.959 8 -16135916.301 8  18173849.357    18173853.843        1152.885
       896.382
 -11049603.927 9  -8661040.030 9  18664267.559    18664272.910        -898.774
      -700.064
 -37131272.882 9  21688687.411 8  19468043.585    19468049.888        2158.666
      1675.062
 88  3 26  5 14 59.0800000  0  4G 6G 9G11G13
   1658944.714 9 -10018858.301 9  18790871.316    18790876.131       -1786.774
     -1399.189
 -20579357.974 9 -16162434.756 9  18167373.715    18167378.036        1121.490
       884.787
 -11022621.567 8  -8640014.794 8  18669402.053    18669408.872        -891.405
      -713.044
 -37195831.990 9  21638381.649 8  19455758.124    19455764.523        2136.513
      1678.356
 88  3 26  5 15 29.0800000  0  4G 6G 9G11G13
   1713180.641 9  -9976596.550 8  18801192.450    18801197.431       -1811.343
     -1414.605
 -20612851.223 9 -16188533.373 8  18160999.382    18161004.272        1096.673
       862.231
 -10995224.804 9  -8618666.651 8  18674615.901    18674620.904        -914.196
      -722.700
 -37259948.795 8  21588420.537 8  19443556.962    19443563.023        2131.625
      1664.325
 88  3 26  5 15 59.0800000  0  4G 6G 9G11G13
   1767957.285 8  -9933913.467 9  18811616.130    18811621.083       -1829.557
     -1447.961
 -20645804.043 8 -16214210.883 8  18154728.729    18154734.071        1086.514
       852.221
 -10967416.026 9  -8596997.471 8  18679907.812    18679913.448        -930.966
      -727.572
 -37323622.708 8  21538804.548 7  19431440.083    19431446.446        2122.231
      1643.521
 88  3 26  5 16 29.0800000  0  4G 6G 9G11G13
   1823272.884 9  -9890810.415 9  18822142.127    18822146.155       -1843.982
     -1443.307
 -20678215.202 8 -16239466.344 8  18148560.776    18148565.575        1068.851
       837.966
 -10939197.878 9  -8575009.290 9  18685277.343    18685283.350        -935.942
      -733.947
 -37386854.258 8  21489533.248 8  19419407.288    19419414.096        2105.581
      1645.969
 88  3 26  5 16 59.0800000  0  4G 6G 9G11G13
   1879125.393 9  -9847289.006 9  18832770.196    18832775.062       -1863.495
     -1453.485
 -20710083.434 8 -16264298.721 9  18142497.056    18142502.257        1052.806
       819.374
 -10910573.892 8  -8552704.885 9  18690724.452    18690729.743        -950.017
      -746.679
 -37449644.034 9  21440606.199 8  19407458.615    19407464.730        2094.871
      1627.272
 88  3 26  5 17 29.0800000  0  4G 6G 9G11G13
   1935513.081 9  -9803350.561 8  18843500.988    18843505.987       -1887.897
     -1462.414
 -20741408.111 9 -16288707.563 8  18136536.306    18136541.091        1037.105
       803.865
 -10881547.134 9  -8530086.628 8  18696247.745    18696254.514        -965.017
      -742.460
 -37511992.635 9  21392022.935 8  19395594.244    19395600.282        2081.004
      1604.337
 88  3 26  5 17 59.0800000  0  4G 6G 9G11G13
   1992434.358 9  -9758996.344 8  18854332.929    18854337.056       -1910.209
     -1475.755
 -20772187.510 9 -16312691.505 8  18130679.906    18130683.088        1006.643
       789.604
 -10852120.682 9  -8507156.911 9  18701847.585    18701852.425        -993.637
      -757.243
 -37573900.126 9  21343783.372 8  19383814.582    19383820.290        2056.913
      1603.399
 88  3 26  5 18 29.0800000  0  4G 6G 9G11G13
   2049887.777 9  -9714227.465 9  18865265.661    18865269.304       -1917.633
     -1496.068
 -20802420.093 9 -16336249.358 7  18124925.837    18124930.492        1009.011
       782.415
 -10822296.888 9  -8483917.577 9  18707522.065    18707528.487        -999.713
      -782.576
 -37635366.223 9  21295887.751 8  19372117.061    19372124.205        2046.985
      1573.535
 88  3 26  5 18 59.0800000  0  4G 6G 9G11G13
   2107872.420 9  -9669044.643 8  18876299.619    18876304.867       -1952.681
     -1515.828
 -20832104.003 8 -16359379.667 8  18119277.143    18119282.197         996.906
       762.748
 -10792077.882 9  -8460370.296 9  18713273.670    18713278.536       -1015.159
      -780.886
 -37696391.077 9  21248335.956 8  19360504.855    19360510.826        2025.303
      1586.584
 88  3 26  5 19 29.0800000  0  4G 6G 9G11G13
   2166387.455 9  -9623448.531 9  18887434.548    18887439.639       -1955.998
     -1519.798
 -20861237.038 9 -16382080.741 8  18113733.315    18113737.954         963.701
       737.787
 -10761466.137 9  -8436516.980 7  18719097.994    18719103.240       -1026.619
      -812.285
 -37756973.810 9  21201128.663 9  19348976.095    19348982.571        2012.129
      1574.237
 88  3 26  5 19 59.0800000  0  4G 6G 9G11G13
   2225432.251 9  -9577439.628 9  18898670.144    18898675.467       -1969.188
     -1535.171
 -20889816.985 9 -16404350.835 8  18108295.104    18108300.049         948.430
       738.055
 -10730462.916 9  -8412358.625 9  18724998.700    18725004.032       -1035.414
      -818.206
 -37817113.669 9  21154266.479 8  19337532.370    19337538.490        2013.828
      1556.404
 88  3 26  5 20 29.0800000  0  4G 6G 9G11G13
   2285006.270 8  -9531018.333 9  18910006.637    18910012.088       -1983.573
     -1553.166
 -20917841.193 8 -16426187.863 8  18102961.367    18102966.805         927.912
       708.862
 -10699070.353 9  -8387896.874 9  18730971.924    18730977.644       -1046.602
      -821.711
 -37876809.838 9  21107750.020 9  19326172.001    19326178.402        1989.203
      1546.586
 88  3 26  5 20 59.0800000  0  4G 6G 9G11G13
   2345109.302 9  -9484184.830 8  18921444.080    18921449.604       -2004.347
     -1566.831
 -20945307.266 8 -16447590.004 8  18097735.577    18097740.259         923.909
       712.876
 -10667289.857 9  -8363132.843 8  18737019.412    18737024.474       -1057.376
      -826.930
 -37936061.323 9  21061580.087 9  19314896.738    19314902.669        1976.923
      1546.226
 88  3 26  5 21 29.0800000  0  4G 6G 9G11G13
   2405741.010 9  -9436939.370 9  18932983.541    18932987.342       -2043.118
     -1590.828
 -20972212.350 8 -16468554.998 8  18092615.545    18092620.486         875.441
       697.137
 -10635122.816 9  -8338067.607 9  18743141.273    18743145.298       -1089.146
      -831.442
 -37994867.099 9  21015757.450 8  19303706.656    19303712.498        1963.765
      1524.726
 88  3 26  5 21 59.0800000  0  4G 6G 9G11G13
   2466900.910 8  -9389282.328 9  18944620.735    18944626.347       -2053.660
     -1597.048
 -20998553.928 8 -16489080.899 8  18087603.296    18087606.678         871.286
       674.985
 -10602570.855 9  -8312702.439 8  18749335.404    18749339.714       -1088.827
      -832.007
 -38053226.471 9  20970282.656 8  19292600.258    19292606.742        1925.353
      1513.989
 88  3 26  5 22 29.0800000  0  4G 6G 9G11G13
   2528588.625 9  -9341214.001 9  18956358.784    18956364.467       -2066.020
     -1607.388
 -21024329.582 8 -16509165.820 8  18082697.732    18082702.689         849.229
       657.188
 -10569635.551 9  -8287038.565 9  18755602.160    18755608.196       -1099.823
      -855.725
 -38111138.291 9  20925156.596 8  19281580.413    19281587.620        1930.903
      1494.129
 88  3 26  5 22 59.0800000  0  4G 6G 9G11G13
   2590805.174 9  -9292733.596 9  18968198.667    18968203.023       -2085.254
     -1609.370
 -21049534.949 8 -16528806.362 8  18077901.302    18077906.961         824.437
       668.330
 -10536317.014 9  -8261076.066 8  18761943.411    18761948.975       -1116.936
      -870.203
 -38168599.684 9  20880381.531 8  19270646.290    19270652.551        1907.251
      1477.681
 88  3 26  5 23 29.0800000  0  4G 6G 9G11G13
   2653553.655 9  -9243838.706 9  18980139.231    18980144.078       -2102.607
     -1633.243
 -21074164.159 8 -16547997.952 8  18073214.529    18073219.661         798.608
       631.178
 -10502613.354 9  -8234813.466 8  18768356.956    18768361.460       -1126.258
      -883.600
 -38225606.848 9  20835960.407 7  19259797.654    19259804.067        1885.465
      1479.546
 88  3 26  5 23 59.0800000  0  4G 6G 9G11G13
   2716835.390 9  -9194528.277 8  18992180.803    18992187.544       -2113.053
     -1650.648
 -21098212.854 8 -16566737.190 8  18068638.665    18068643.254         783.002
       619.788
 -10468524.022 9  -8208250.333 9  18774843.335    18774848.442       -1143.315
      -890.019
 -38282156.796 9  20791895.567 9  19249036.674    19249042.460        1861.677
      1460.606
 88  3 26  5 24 29.0800000  0  4G 6G 9G11G13
   2780649.340 9  -9144803.141 9  19004324.696    19004329.742       -2136.354
     -1666.114
 -21121679.226 7 -16585022.674 8  18064173.854    18064177.089         776.024
       606.608
 -10434051.415 9  -8181388.565 8  18781403.230    18781409.122       -1150.915
      -903.490
 -38338248.871 9  20748187.509 8  19238363.197    19238368.978        1867.403
      1455.772
 88  3 26  5 24 59.0800000  0  4G 6G 9G11G13
   2844993.245 9  -9094665.056 9  19016568.751    19016573.830       -2155.325
     -1687.844
 -21144562.606 8 -16602853.877 8  18059817.723    18059823.334         754.988
       581.293
 -10399199.030 8  -8154230.861 9  18788035.472    18788040.221       -1172.214
      -910.916
 -38393883.779 9  20704835.683 8  19227775.414    19227782.259        1853.304
      1437.174
 88  3 26  5 25 29.0800000  0  4G 6G 9G11G13
   2909864.638 9  -9044115.945 9  19028913.843    19028918.487       -2173.108
     -1696.382
 -21166862.085 8 -16620230.093 8  18055574.535    18055578.615         751.679
       577.938
 -10363970.111 9  -8126779.739 8  18794739.228    18794744.980       -1188.809
      -921.691
 -38449062.996 9  20661838.936 8  19217275.933    19217281.235        1834.525
      1434.701
 88  3 26  5 25 59.0800000  0  4G 6G 9G11G13
   2975261.695 9  -8993157.222 9  19041358.411    19041363.487       -2187.868
     -1696.612
 -21188576.975 6 -16637150.792 8  18051441.928    18051446.966         716.775
       551.051
 -10328367.712 8  -8099037.618 9  18801514.362    18801519.084       -1192.693
      -922.424
 -38503787.201 9  20619196.746 8  19206862.040    19206867.435        1820.817
      1433.265
 88  3 26  5 26 29.0800000  0  4G 6G 9G11G13
   3041182.552 9  -8941790.343 8  19053903.161    19053907.800       -2203.522
     -1716.732
 -21209705.911 8 -16653614.900 8  18047421.576    18047426.476         695.739
       539.269
 -10292394.378 9  -8071006.441 8  18808359.575    18808364.755       -1203.609
      -931.738
 -38558056.203 9  20576909.232 8  19196534.168    19196541.242        1799.605
      1395.094
 88  3 26  5 26 59.0800000  0  4G 6G 9G11G13
   3107625.734 8  -8890016.451 9  19066546.926    19066551.094       -2225.316
     -1729.377
 -21230247.220 8 -16669621.119 8  18043513.558    18043517.115         657.071
       529.321
 -10256052.754 9  -8042688.280 9  18815275.167    18815280.747       -1222.891
      -944.564
 -38611870.679 9  20534975.897 8  19186294.276    19186299.871        1786.678
      1392.428
 88  3 26  5 27 29.0800000  0  4G 6G 9G11G13
   3174589.941 9  -8837836.572 9  19079289.048    19079294.602       -2235.356
     -1739.661
 -21250199.408 8 -16685168.280 8  18039715.581    18039721.173         646.736
       513.861
 -10219344.845 9  -8014084.715 9  18822260.953    18822266.203       -1226.480
      -954.456
 -38665229.868 9  20493397.337 8  19176140.005    19176146.160        1771.950
      1392.584
 88  3 26  5 27 59.0800000  0  4G 6G 9G11G13
   3242073.982 9  -8785251.626 8  19092130.751    19092135.793       -2250.395
     -1764.205
 -21269560.590 9 -16700254.903 7  18036031.769    18036036.767         635.102
       500.464
 -10182273.136 9  -7985197.663 9  18829315.428    18829320.534       -1232.772
      -960.514
 -38718133.995 9  20452173.368 7  19166072.851    19166078.712        1760.969
      1378.646
 88  3 26  5 28 29.0800000  0  4G 6G 9G11G13
   3310076.379 9  -8732262.759 8  19105071.538    19105077.099       -2272.508
     -1771.954
 -21288329.258 8 -16714879.839 8  18032461.309    18032465.227         623.635
       477.132
 -10144840.175 9  -7956029.124 8  18836438.053    18836443.774       -1249.653
      -979.087
 -38770582.652 9  20411304.301 9  19156091.433    19156098.392        1746.177
      1355.233
 88  3 26  5 28 59.0800000  0  4G 6G 9G11G13
   3378595.410 9  -8678871.324 9  19118110.281    19118114.146       -2284.581
     -1782.530
 -21306504.203 7 -16729042.132 8  18029000.598    18029006.395         605.620
       467.500
 -10107048.426 9  -7926581.000 9  18843629.577    18843634.342       -1268.656
      -984.027
 -38822576.715 9  20370789.471 9  19146197.872    19146203.485        1744.335
      1337.884
 88  3 26  5 29 29.0800000  0  4G 6G 9G11G13
   3447629.138 9  -8625078.833 9  19131246.914    19131252.195       -2303.441
     -1797.704
 -21324084.275 9 -16742740.886 9  18025655.997    18025660.639         593.117
       457.055
 -10068900.593 9  -7896855.419 8  18850888.723    18850893.970       -1274.135
     -1000.009
 -38874116.117 9  20330628.912 8  19136390.120    19136396.141        1712.469
      1338.008
 88  3 26  5 29 59.0800000  0  4G 6G 9G11G13
   3517175.689 8  -8570886.739 8  19144481.117    19144486.610       -2329.070
     -1804.520
 -21341068.388 8 -16755975.272 8  18022423.830    18022428.790         577.016
       429.677
 -10030399.524 9  -7866854.574 9  18858217.035    18858220.713       -1296.256
     -1000.270
 -38925201.441 9  20290822.172 8  19126668.542    19126674.865        1692.860
      1319.137
 88  3 26  5 30 29.0800000  0  4G 6G 9G11G13
   3587233.248 9  -8516296.461 8  19157813.170    19157818.152       -2341.925
     -1820.142
 -21357455.261 8 -16768744.258 8  18019305.666    18019310.953         543.173
       412.036
  -9991547.888 9  -7836580.587 9  18865609.394    18865614.105       -1292.444
      -994.982
 -38975833.279 9  20251368.800 7  19117034.244    19117039.539        1675.532
      1318.807
 88  3 26  5 30 59.0800000  0  4G 6G 9G11G13
   3657800.004 9  -8461309.390 9  19171241.221    19171246.776       -2368.687
     -1843.102
 -21373243.830 8 -16781047.043 7  18016301.652    18016306.653         502.783
       416.379
  -9952348.365 9  -7806035.486 8  18873067.839    18873073.532       -1302.595
     -1015.606
 -39026011.969 8  20212268.533 7  19107485.195    19107490.778        1672.717
      1298.544
 88  3 26  5 31 29.0800000  0  4G 6G 9G11G13
   3728874.288 9  -8405926.863 9  19184766.800    19184770.621       -2379.763
     -1856.287
 -21388432.853 8 -16792882.643 8  18013410.957    18013416.107         509.187
       387.964
  -9912803.467 9  -7775221.278 8  18880593.755    18880597.304       -1325.665
     -1028.046
 -39075737.729 9  20173521.218 8  19098023.386    19098028.608        1653.634
      1286.676
 88  3 26  5 31 59.0800000  0  4G 6G 9G11G13
   3800454.606 9  -8350150.010 9  19198386.979    19198393.018       -2390.329
     -1864.738
 -21403020.699 8 -16804249.807 7  18010635.252    18010640.496         485.957
       375.325
  -9872915.673 9  -7744139.883 9  18888184.411    18888189.198       -1323.943
     -1047.352
 -39125010.423 9  20135126.943 8  19088647.201    19088652.182        1643.012
      1276.392
 88  3 26  5 32 29.0800000  0  4G 6G 9G11G13
   3872539.307 9  -8293980.150 8  19212105.411    19212109.443       -2421.908
     -1881.173
 -21417006.142 8 -16815147.560 7  18007973.629    18007978.782         468.063
       357.920
  -9832687.082 9  -7712792.927 9  18895838.450    18895844.175       -1342.323
     -1038.006
 -39173830.745 9  20097085.145 7  19079356.310    19079361.916        1619.512
      1264.225
 88  3 26  5 32 59.0800000  0  4G 6G 9G11G13
   3945127.179 9  -8237418.199 9  19225917.394    19225922.686       -2430.217
     -1889.096
 -21430387.275 8 -16825574.405 7  18005427.281    18005431.199         447.553
       341.553
  -9792119.889 9  -7681182.115 8  18903559.200    18903564.967       -1357.698
     -1052.186
 -39222197.864 9  20059396.505 8  19070152.721    19070158.019        1589.592
      1265.313
 88  3 26  5 33 29.0800000  0  4G 6G 9G11G13
   4018217.077 9  -8180465.057 8  19239825.924    19239831.422       -2445.568
     -1902.505
 -21443162.567 8 -16835529.188 8  18002996.703    18003000.795         415.639
       334.184
  -9751216.254 9  -7649309.158 9  18911343.195    18911347.659       -1375.545
     -1066.410
 -39270111.337 9  20022061.367 8  19061034.621    19061040.858        1605.964
      1237.425
 88  3 26  5 33 59.0800000  0  4G 6G 9G11G13
   4091807.649 9  -8123121.773 9  19253830.712    19253834.985       -2467.266
     -1924.452
 -21455330.164 8 -16845010.429 8  18000681.437    18000685.660         390.313
       306.445
  -9709978.049 9  -7617175.490 9  18919189.380    18919195.318       -1376.183
     -1071.878
 -39317571.468 9  19985079.472 7  19052003.477    19052009.030        1584.122
      1216.547
 88  3 26  5 34 29.0800000  0  4G 6G 9G11G13
   4165898.080 9  -8065389.006 9  19267929.542    19267933.798       -2488.350
     -1922.967
 -21466887.758 8 -16854016.354 8  17998482.168    17998485.857         387.960
       294.148
  -9668407.081 9  -7584782.511 9  18927100.527    18927106.248       -1382.921
     -1079.309
 -39364577.674 9  19948451.281 8  19043059.228    19043064.556        1564.385
      1213.067
 88  3 26  5 34 59.0800000  0  4G 6G 9G11G13
   4240487.175 9  -8007267.658 8  19282123.630    19282129.070       -2498.071
     -1944.374
 -21477833.678 8 -16862545.645 8  17996398.706    17996403.808         356.438
       293.794
  -9626505.230 9  -7552131.725 9  18935073.998    18935079.492       -1400.305
     -1089.873
 -39411129.668 9  19912177.027 8  19034200.020    19034206.811        1533.788
      1200.068
 88  3 26  5 35 29.0800000  0  4G 6G 9G11G13
   4315573.817 9  -7948758.622 9  19296411.691    19296416.165       -2512.114
     -1957.541
 -21488166.289 9 -16870597.034 8  17994434.344    17994436.812         337.491
       249.496
  -9584274.010 9  -7519224.282 9  18943110.518    18943116.267       -1417.713
     -1113.703
 -39457227.258 9  19876256.854 8  19025428.151    19025433.661        1535.239
      1210.023
 88  3 26  5 35 59.0800000  0  4G 6G 9G11G13
   4391156.482 9  -7889863.063 8  19310795.897    19310800.049       -2534.657
     -1973.336
 -21497884.014 8 -16878169.282 8  17992582.605    17992588.436         323.560
       232.277
  -9541715.669 9  -7486061.930 9  18951209.344    18951214.404       -1422.609
     -1120.606
 -39502869.721 9  19840691.323 8  19016742.573    19016747.789        1519.872
      1177.003
 88  3 26  5 36 29.0800000  0  4G 6G 9G11G13
   4467233.825 9  -7830582.040 9  19325271.963    19325277.023       -2532.073
     -1973.572
 -21506985.367 8 -16885261.262 8  17990851.272    17990855.902         303.137
       223.647
  -9498832.509 9  -7452646.474 9  18959368.865    18959375.035       -1438.965
     -1106.035
 -39548057.520 9  19805480.093 8  19008143.497    19008149.107        1496.109
      1177.866
 88  3 26  5 36 59.0800000  0  4G 6G 9G11G13
   4543804.047 9  -7770916.960 9  19339842.802    19339847.794       -2561.882
     -2005.642
 -21515468.871 7 -16891871.783 9  17989238.560    17989242.576         264.446
       215.432
  -9455626.660 8  -7418979.577 9  18967591.460    18967596.738       -1451.157
     -1129.181
 -39592791.272 9  19770622.666 9  18999631.289    18999637.535        1480.989
      1158.827
 88  3 26  5 37 29.0800000  0  4G 6G 9G11G13
   4620865.910 9  -7710868.767 9  19354507.452    19354512.569       -2578.317
     -2009.240
 -21523333.253 8 -16897999.878 8  17987741.300    17987745.213         264.278
       193.590
  -9412100.504 9  -7385063.095 8  18975873.692    18975879.701       -1459.331
     -1139.465
 -39637070.802 9  19736119.168 7  18991204.253    18991211.435        1465.248
      1156.391
 88  3 26  5 37 59.0800000  0  4G 6G 9G11G13
   4698417.566 9  -7650438.932 9  19369264.864    19369270.751       -2586.570
     -2026.626
 -21530577.158 7 -16903644.486 8  17986361.954    17986366.903         245.132
       173.271
  -9368255.918 9  -7350898.480 9  18984217.229    18984222.408       -1470.607
     -1144.778
 -39680895.318 9  19701970.202 8  18982864.591    18982870.505        1464.267
      1136.103
 88  3 26  5 38 29.0800000  0  4G 6G 9G11G13
   4776457.348 9  -7589628.730 9  19384115.556    19384119.469       -2614.616
     -2022.922
 -21537199.379 8 -16908804.664 8  17985101.845    17985105.160         209.072
       172.377
  -9324095.225 9  -7316487.549 9  18992621.061    18992626.237       -1475.272
     -1155.950
 -39724265.902 9  19668174.978 8  18974611.798    18974617.304        1443.996
      1112.317
 88  3 26  5 38 59.0800000  0  4G 6G 9G11G13
   4854983.675 9  -7528439.399 9  19399058.426    19399063.001       -2618.380
     -2034.542
 -21543198.437 8 -16913479.258 7  17983960.458    17983964.607         184.447
       128.066
  -9279620.646 9  -7281832.036 9  19001084.357    19001090.009       -1493.844
     -1158.560
 -39767182.278 9  19634733.681 7  18966444.981    18966451.070        1432.370
      1120.122
 88  3 26  5 39 29.0800000  0  4G 6G 9G11G13
   4933994.652 9  -7466872.426 8  19414093.745    19414099.288       -2631.601
     -2061.628
 -21548573.529 8 -16917667.657 8  17982936.703    17982942.467         168.817
       121.995
  -9234834.768 9  -7246933.945 8  19009606.668    19009612.490       -1502.002
     -1170.882
 -39809644.957 9  19601645.900 8  18958365.156    18958370.750        1404.053
      1093.446
 88  3 26  5 39 59.0800000  0  4G 6G 9G11G13
   5013488.574 9  -7404929.140 9  19429220.266    19429225.947       -2657.678
     -2072.036
 -21553323.234 7 -16921368.719 8  17982034.119    17982038.954         171.536
       107.455
  -9189739.866 9  -7211795.055 9  19018187.561    19018193.780       -1506.810
     -1180.812
 -39851654.236 9  19568911.429 8  18950371.105    18950376.701        1396.740
      1086.300
 88  3 26  5 40 29.0800000  0  4G 6G 9G11G13
   5093463.626 9  -7342610.933 9  19444439.645    19444445.538       -2671.489
     -2077.075
 -21557446.583 8 -16924581.738 8  17981249.083    17981253.210         140.086
        98.234
  -9144338.050 9  -7176417.029 9  19026827.374    19026833.623       -1509.657
     -1181.383
 -39893210.522 8  19536529.976 8  18942463.289    18942467.827        1375.162
      1066.627
 88  3 26  5 40 59.0800000  0  4G 6G 9G11G13
   5173918.355 9  -7279918.958 8  19459749.271    19459755.025       -2680.811
     -2092.038
 -21560942.167 8 -16927305.569 7  17980583.995    17980589.398         112.024
        86.347
  -9098631.447 9  -7140801.486 9  19035525.510    19035530.334       -1532.145
     -1183.272
 -39934313.819 8  19504501.435 7  18934640.228    18934647.199        1366.749
      1063.352
 88  3 26  5 41 29.0800000  0  4G 6G 9G11G13
   5254851.234 9  -7216854.407 9  19475150.886    19475156.672       -2700.635
     -2116.241
 -21563808.571 8 -16929539.142 8  17980039.032    17980043.474          81.171
        67.668
  -9052621.925 9  -7104949.911 9  19044280.144    19044286.005       -1525.375
     -1198.173
 -39974964.034 9  19472825.974 8  18926905.350    18926911.728        1350.633
      1040.778
 88  3 26  5 41 59.0800000  0  4G 6G 9G11G13
   5336260.442 9  -7153418.675 9  19490642.356    19490647.968       -2724.359
     -2119.634
 -21566044.839 8 -16931281.701 8  17979612.547    17979617.894          66.705
        60.479
  -9006311.873 9  -7068864.160 9  19053093.263    19053099.171       -1547.583
     -1205.076
 -40015161.191 9  19441503.564 8  18919256.558    18919261.787        1335.848
      1032.346
 88  3 26  5 42 29.0800000  0  4G 6G 9G11G13
   5418144.622 9  -7089612.849 8  19506225.076    19506229.937       -2739.550
     -2127.183
 -21567649.457 8 -16932532.055 7  17979307.882    17979312.162          44.066
        45.056
  -8959703.173 9  -7032545.688 9  19061962.159    19061968.255       -1556.403
     -1207.885
 -40054905.578 9  19410533.926 7  18911693.365    18911698.730        1315.306
      1023.721
 88  3 26  5 42 59.0800000  0  4G 6G 9G11G13
   5500502.075 9  -7025438.231 9  19521897.380    19521901.320       -2747.389
     -2131.048
 -21568621.044 8 -16933289.135 7  17979123.745    17979127.440          30.319
        18.244
  -8912797.536 9  -6995995.833 9  19070888.184    19070893.836       -1576.538
     -1222.028
 -40094197.625 9  19379916.782 8  18904215.624    18904221.747        1310.362
      1020.055
 88  3 26  5 43 29.0800000  0  4G 6G 9G11G13
   5583331.226 9  -6960896.062 9  19537658.353    19537663.108       -2764.255
     -2172.283
 -21568958.675 9 -16933552.226 8  17979058.355    17979064.100          25.047
         7.121
  -8865597.497 8  -6959216.577 8  19079870.069    19079875.091       -1576.004
     -1224.035
 -40133036.984 9  19349652.375 8  18896825.397    18896832.246        1283.656
      1003.483
 88  3 26  5 43 59.0800000  0  4G 6G 9G11G13
   5666630.535 8  -6895987.529 9  19553509.684    19553515.185       -2782.133
     -2171.910
 -21568660.658 7 -16933320.015 8  17979115.164    17979120.225         -10.925
        -7.904
  -8818104.720 9  -6922209.225 9  19088908.497    19088913.519       -1585.892
     -1234.579
 -40171423.785 9  19319740.628 8  18889520.626    18889526.464        1255.538
       990.508
 88  3 26  5 44 29.0800000  0  4G 6G 9G11G13
   5750398.123 9  -6830714.115 9  19569450.143    19569455.642       -2804.350
     -2175.812
 -21567726.104 8 -16932591.797 8  17979292.833    17979298.714         -55.757
       -29.584
  -8770321.540 9  -6884975.565 9  19098000.791    19098005.756       -1600.094
     -1241.520
 -40209358.309 9  19290181.279 8  18882301.839    18882307.800        1252.157
       983.207
 88  3 26  5 44 59.0800000  0  4G 6G 9G11G13
   5834633.673 9  -6765076.043 8  19585479.502    19585484.903       -2806.846
     -2192.869
 -21566153.893 7 -16931366.698 7  17979593.077    17979596.296         -75.996
       -38.320
  -8722249.484 9  -6847516.820 9  19107148.145    19107153.363       -1604.448
     -1258.894
 -40246840.508 9  19260974.441 8  18875168.785    18875175.397        1249.829
       971.022
 88  3 26  5 45 29.0800000  0  4G 6G 9G11G13
   5919332.528 9  -6699076.966 8  19601596.907    19601603.100       -2826.144
     -2195.672
 -21563943.270 8 -16929644.151 7  17980013.329    17980017.858         -68.619
       -57.415
  -8673891.379 9  -6809835.176 9  19116350.641    19116355.691       -1608.595
     -1252.252
 -40283871.303 8  19232119.310 8  18868123.175    18868128.023        1217.126
       951.790
 88  3 26  5 45 59.0800000  0  4G 6G 9G11G13
   6004494.588 9  -6632716.941 9  19617802.665    19617809.068       -2843.488
     -2221.676
 -21561092.921 7 -16927423.116 8  17980555.428    17980560.235        -118.818
       -72.745
  -8625249.468 9  -6771932.380 8  19125606.510    19125612.332       -1628.627
     -1270.352
 -40320451.075 9  19203615.603 8  18861160.987    18861167.034        1200.412
       942.035
 88  3 26  5 46 29.0800000  0  4G 6G 9G11G13
   6090117.399 9  -6565997.896 8  19634096.332    19634102.416       -2864.365
     -2228.735
 -21557602.447 8 -16924703.285 7  17981219.279    17981224.581        -129.918
      -103.553
  -8576325.782 9  -6733810.019 9  19134916.296    19134922.180       -1640.923
     -1264.499
 -40356579.916 9  19175463.282 9  18854285.656    18854292.336        1193.570
       933.223
 88  3 26  5 46 59.0800000  0  4G 6G 9G11G13
   6176198.962 9  -6498921.383 9  19650477.774    19650483.167       -2880.050
     -2235.260
 -21553471.146 8 -16921484.074 7  17982006.898    17982009.927        -157.948
      -116.086
  -8527122.410 9  -6695469.740 9  19144280.196    19144285.189       -1649.934
     -1281.761
 -40392258.452 8  19147661.880 9  18847497.043    18847503.067        1180.245
       919.522
 88  3 26  5 47 29.0800000  0  4G 6G 9G11G13
   6262737.320 9  -6431488.914 9  19666945.120    19666949.988       -2889.811
     -2249.564
 -21548697.930 8 -16917764.709 8  17982913.374    17982918.482        -171.919
      -141.264
  -8477642.128 9  -6656913.667 9  19153695.785    19153700.104       -1651.473
     -1290.777
 -40427487.530 9  19120210.720 8  18840793.341    18840797.933        1165.269
       906.280
 88  3 26  5 47 59.0800000  0  4G 6G 9G11G13
   6349730.509 9  -6363702.036 9  19683499.277    19683505.749       -2894.356
     -2271.300
 -21543282.341 7 -16913544.775 7  17983944.287    17983948.316        -192.142
      -170.357
  -8427886.817 9  -6618143.291 9  19163164.086    19163168.478       -1659.607
     -1294.555
 -40462267.434 9  19093109.530 8  18834174.586    18834180.059        1160.054
       895.232
 88  3 26  5 48 29.0800000  0  4G 6G 9G11G13
   6437176.539 9  -6295562.287 9  19700140.448    19700145.199       -2915.457
     -2273.798
 -21537223.523 8 -16908823.631 7  17985097.768    17985102.687        -213.824
      -173.203
  -8377858.748 9  -6579160.378 9  19172683.617    19172689.206       -1659.113
     -1304.491
 -40496599.121 9  19066357.594 8  18827641.497    18827647.005        1135.381
       884.004
 88  3 26  5 48 59.0800000  0  4G 6G 9G11G13
   6525073.304 9  -6227071.318 9  19716865.515    19716871.389       -2931.254
     -2288.655
 -21530520.626 8 -16903600.593 7  17986372.816    17986377.983        -233.912
      -190.334
  -8327560.469 9  -6539966.912 9  19182255.885    19182260.702       -1674.551
     -1316.670
 -40530482.567 9  19039954.923 8  18821193.670    18821198.650        1129.504
       880.468
 88  3 26  5 49 29.0800000  0  4G 6G 9G11G13
   6613418.778 9  -6158230.711 9  19733678.012    19733682.972       -2957.059
     -2304.388
 -21523173.065 6 -16897875.222 8  17987772.034    17987776.387        -240.499
      -200.531
  -8276994.032 9  -6500564.488 9  19191878.058    19191882.882       -1697.182
     -1310.425
 -40563918.385 9  19013901.068 9  18814831.166    18814836.358        1099.425
       874.410
 88  3 26  5 49 59.0800000  0  4G 6G 9G11G13
   6702211.063 9  -6089041.935 9  19750574.370    19750580.154       -2966.357
     -2306.519
 -21515180.119 8 -16891646.966 8  17989291.663    17989297.243        -282.787
      -210.293
  -8226161.634 9  -6460954.830 9  19201550.406    19201556.738       -1689.120
     -1333.789
 -40596907.289 9  18988195.434 9  18808553.786    18808557.680        1092.144
       847.560
 88  3 26  5 50 29.0800000  0  4G 6G 9G11G13
   6791447.868 9  -6019506.778 8  19767555.242    19767561.053       -2987.210
     -2325.813
 -21506541.223 8 -16884915.354 7  17990937.077    17990940.647        -316.813
      -221.316
  -8175065.314 9  -6421139.517 9  19211273.921    19211278.683       -1698.873
     -1327.445
 -40629449.621 9  18962837.791 7  18802361.100    18802366.559        1082.694
       833.542
 88  3 26  5 50 59.0800000  0  4G 6G 9G11G13
   6881126.780 9  -5949627.129 9  19784620.235    19784625.982       -3013.501
     -2349.239
 -21497256.254 8 -16877680.323 7  17992702.840    17992708.361        -318.847
      -257.331
  -8123707.995 9  -6381120.826 9  19221047.342    19221051.607       -1703.370
     -1320.386
 -40661546.596 9  18937827.199 8  18796252.520    18796258.049        1058.508
       832.392
 88  3 26  5 51 29.0800000  0  4G 6G 9G11G13
   6971245.749 9  -5879404.578 8  19801770.052    19801774.241       -3013.270
     -2343.541
 -21487324.470 7 -16869941.285 7  17994592.943    17994598.906        -349.731
      -265.882
  -8072091.756 9  -6340900.371 9  19230870.072    19230874.779       -1725.340
     -1339.667
 -40693198.593 9  18913163.325 7  18790229.397    18790235.442        1055.342
       811.713
 88  3 26  5 51 59.0800000  0  4G 6G 9G11G13
   7061802.483 9  -5808840.898 9  19819002.109    19819007.584       -3016.619
     -2350.923
 -21476745.559 7 -16861697.969 6  17996606.528    17996612.057        -349.596
      -275.202
  -8020218.946 9  -6300480.007 9  19240740.942    19240745.589       -1732.054
     -1352.045
 -40724406.308 9  18888845.631 9  18784290.890    18784295.773        1032.855
       815.335
 88  3 26  5 52 29.0800000  0  4G 6G 9G11G13
   7152794.820 9  -5737937.790 9  19836317.732    19836322.648       -3035.447
     -2365.202
 -21465519.055 8 -16852950.063 8  17998742.421    17998748.128        -365.951
      -302.406
  -7968091.575 9  -6259861.280 9  19250660.166    19250665.502       -1741.129
     -1356.469
 -40755170.576 9  18864873.508 9  18778436.555    18778442.307        1011.037
       786.448
 88  3 26  5 52 59.0800000  0  4G 6G 9G11G13
   7244220.546 9  -5666696.981 8  19853715.680    19853720.899       -3043.605
     -2366.837
 -21453644.496 7 -16843697.163 8  18001003.697    18001006.645        -427.170
      -311.789
  -7915712.536 9  -6219046.439 9  19260626.683    19260632.558       -1726.544
     -1358.824
 -40785492.201 9  18841246.300 9  18772666.777    18772671.517         996.077
       785.764
 88  3 26  5 53 29.0800000  0  4G 6G 9G11G13
   7336077.541 9  -5595120.128 8  19871195.554    19871200.686       -3072.392
     -2392.848
 -21441121.360 7 -16833938.868 7  18003385.127    18003389.497        -433.183
      -333.711
  -7863083.564 9  -6178036.858 9  19270642.311    19270647.538       -1764.342
     -1358.905
 -40815372.118 8  18817963.296 8  18766981.439    18766986.328        1000.710
       781.874
 88  3 26  5 53 59.0800000  0  4G 6G 9G11G13
   7428363.195 9  -5523209.244 8  19888757.138    19888761.388       -3071.156
     -2408.786
 -21427949.580 7 -16823675.163 7  18005892.591    18005895.939        -438.191
      -360.020
  -7810207.610 9  -6136834.809 9  19280704.172    19280709.021       -1768.106
     -1381.964
 -40844810.820 9  18795024.087 8  18761378.524    18761384.207         974.163
       757.566
 88  3 26  5 54 29.0800000  0  4G 6G 9G11G13
   7521074.953 9  -5450966.335 8  19906399.043    19906404.525       -3095.246
     -2414.391
 -21414129.145 8 -16812905.998 7  18008521.724    18008525.703        -464.171
      -366.744
  -7757086.967 9  -6095442.099 9  19290812.547    19290817.535       -1763.960
     -1387.171
 -40873809.979 9  18772427.388 8  18755860.495    18755865.043         974.395
       765.544
 88  3 26  5 54 59.0800000  0  4G 6G 9G11G13
   7614210.590 9  -5378393.124 8  19924123.036    19924127.347       -3112.001
     -2430.248
 -21399660.033 7 -16801631.377 7  18011276.168    18011279.747        -486.348
      -376.767
  -7703723.912 9  -6053860.503 9  19300966.378    19300972.457       -1774.876
     -1388.284
 -40902370.178 9  18750172.742 9  18750426.135    18750431.064         930.448
       739.440
 88  3 26  5 55 29.0800000  0  4G 6G 9G11G13
   7707767.105 9  -5305491.968 8  19941925.287    19941930.147       -3130.469
     -2434.573
 -21384542.298 8 -16789851.330 7  18014152.371    18014156.541        -523.564
      -402.324
  -7650121.155 9  -6012092.121 8  19311166.949    19311173.529       -1786.272
     -1395.367
 -40930492.661 9  18728259.143 8  18745074.762    18745078.905         937.130
       724.223
 88  3 26  5 55 59.0800000  0  4G 6G 9G11G13
   7801742.235 9  -5232264.603 9  19959808.371    19959812.611       -3134.871
     -2432.721
 -21368775.777 8 -16777565.737 8  18017151.878    18017156.367        -549.050
      -419.462
  -7596280.974 9  -5970138.743 9  19321413.076    19321418.316       -1801.016
     -1389.539
 -40958178.250 9  18706685.979 9  18739806.240    18739810.338         921.030
       699.218
 88  3 26  5 56 29.0800000  0  4G 6G 9G11G13
   7896133.494 9  -5158712.992 9  19977771.266    19977774.919       -3155.445
     -2464.505
 -21352360.411 8 -16764774.540 6  18020276.324    18020280.168        -563.356
      -429.136
  -7542206.087 9  -5928002.463 9  19331703.367    19331708.346       -1807.061
     -1402.731
 -40985427.918 9  18685452.461 8  18734619.241    18734625.388         906.166
       702.586
 88  3 26  5 56 59.0800000  0  4G 6G 9G11G13
   7990938.512 9  -5084838.959 9  19995810.651    19995816.824       -3156.896
     -2468.264
 -21335295.904 8 -16751477.543 7  18023523.028    18023527.958        -566.514
      -452.295
  -7487898.704 9  -5885685.027 9  19342037.519    19342042.340       -1814.278
     -1411.461
 -41012242.500 9  18664557.992 8  18729517.138    18729522.638         888.917
       701.953
 88  3 26  5 57 29.0800000  0  4G 6G 9G11G13
   8086155.128 9  -5010644.211 8  20013930.599    20013936.026       -3171.896
     -2477.504
 -21317582.078 8 -16737674.565 8  18026894.397    18026898.135        -598.141
      -453.115
  -7433360.897 9  -5843188.041 8  19352415.491    19352421.670       -1819.254
     -1419.247
 -41038622.706 9  18644002.003 8  18724497.881    18724503.023         871.932
       687.735
 88  3 26  5 57 59.0800000  0  4G 6G 9G11G13
   8181780.455 9  -4936130.985 9  20032127.010    20032132.542       -3198.355
     -2502.049
 -21299219.181 8 -16723365.823 8  18030389.371    18030393.272        -623.276
      -466.052
  -7378595.285 9  -5800513.538 9  19362837.361    19362842.985       -1837.284
     -1422.571
 -41064569.657 8  18623783.669 8  18719560.272    18719565.687         864.022
       661.234
 88  3 26  5 58 29.0800000  0  4G 6G 9G11G13
   8277812.227 8  -4861301.054 9  20050401.863    20050406.505       -3206.481
     -2506.802
 -21280207.273 8 -16708551.352 7  18034006.410    18034010.700        -642.518
      -500.949
  -7323604.016 9  -5757663.199 8  19373301.474    19373307.552       -1831.622
     -1434.496
 -41090084.693 9  18603901.873 7  18714704.621    18714709.723         843.559
       651.640
 88  3 26  5 58 59.0800000  0  4G 6G 9G11G13
   8374248.254 9  -4786156.129 9  20068752.340    20068757.758       -3214.631
     -2502.204
 -21260545.959 8 -16693230.868 7  18037747.542    18037752.336        -664.679
      -513.203
  -7268389.359 9  -5714638.786 9  19383807.878    19383814.283       -1844.516
     -1448.980
 -41115168.810 9  18584355.835 8  18709931.146    18709936.917         841.231
       636.770
 88  3 26  5 59 29.0800000  0  4G 6G 9G11G13
   8471086.266 9  -4710697.950 8  20087180.467    20087185.547       -3217.605
     -2508.293
 -21240234.985 8 -16677404.151 7  18041613.005    18041617.474        -668.419
      -551.890
  -7212953.139 9  -5671441.738 9  19394357.644    19394363.065       -1841.853
     -1434.378
 -41139822.335 8  18565145.309 8  18705239.533    18705245.199         808.121
       641.281
 88  3 26  5 59 59.0800000  0  4G 6G 9G11G13
   8568324.537 9  -4634927.878 9  20105683.290    20105689.313       -3232.342
     -2519.422
 -21219273.662 7 -16661070.653 8  18045602.679    18045607.025        -717.812
      -549.243
  -7157296.825 9  -5628073.181 9  19404949.216    19404953.853       -1866.542
     -1443.972
 -41164045.512 9  18546270.130 8  18700630.155    18700635.548         790.992
       623.392
 88  3 26  6  0 29.0800000  0  4G 6G 9G11G13
   8665961.206 9  -4558847.375 9  20124263.970    20124269.071       -3259.917
     -2535.473
 -21197661.427 8 -16644229.957 8  18049714.911    18049718.651        -734.765
      -576.459
  -7101422.558 9  -5584534.795 9  19415581.884    19415585.902       -1857.842
     -1451.298
 -41187838.978 9  18527729.786 9  18696102.101    18696107.016         798.161
       610.759
 88  3 26  6  0 59.0800000  0  4G 6G 9G11G13
   8763994.041 9  -4482458.167 9  20142918.928    20142924.696       -3269.996
     -2549.143
 -21175398.283 8 -16626882.061 7  18053951.036    18053955.636        -764.980
      -597.810
  -7045331.882 9  -5540827.773 9  19426255.154    19426259.988       -1875.848
     -1467.764
 -41211202.671 9  18509524.283 9  18691656.860    18691662.679         771.583
       601.762
 88  3 26  6  1 29.0800000  0  4G 6G 9G11G13
   8862421.164 8  -4405761.722 9  20161649.011    20161654.225       -3285.889
     -2551.019
 -21152483.651 8 -16609026.506 7  18058311.571    18058315.815        -779.613
      -598.878
  -6989026.631 9  -5496953.550 9  19436969.989    19436974.981       -1872.235
     -1457.176
 -41234137.568 9  18491652.917 8  18687292.031    18687296.386         761.734
       601.650
 88  3 26  6  1 59.0800000  0  4G 6G 9G11G13
   8961240.281 9  -4328759.822 9  20180454.302    20180459.762       -3293.234
     -2575.495
 -21128917.390 7 -16590663.213 8  18062796.312    18062800.402        -798.927
      -631.805
  -6932508.823 9  -5452913.691 9  19447724.881    19447729.645       -1884.436
     -1470.094
 -41256644.601 9  18474115.013 8  18683008.641    18683014.077         729.686
       581.691
 88  3 26  6  2 29.0800000  0  4G 6G 9G11G13
   9060448.650 9  -4251454.625 9  20199331.766    20199337.334       -3325.793
     -2580.709
 -21104699.901 8 -16571792.451 8  18067404.296    18067408.901        -815.832
      -635.676
  -6875780.626 9  -5408709.899 9  19458519.005    19458525.275       -1901.557
     -1472.095
 -41278724.982 9  18456909.567 9  18678807.117    18678812.760         723.984
       571.289
 88  3 26  6  2 59.0800000  0  4G 6G 9G11G13
   9160044.305 8  -4173847.630 8  20218284.925    20218290.141       -3321.902
     -2582.511
 -21079830.933 7 -16552414.045 7  18072138.812    18072141.067        -849.723
      -644.922
  -6818843.873 9  -5364343.601 9  19469355.127    19469359.990       -1895.608
     -1476.606
 -41300378.644 9  18440036.620 8  18674686.873    18674691.898         705.029
       546.341
 88  3 26  6  3 29.0800000  0  4G 6G 9G11G13
   9260024.830 9  -4095940.740 9  20237310.665    20237315.517       -3334.956
     -2601.811
 -21054310.582 7 -16532528.063 7  18076994.150    18076997.112        -867.427
      -672.661
  -6761700.942 9  -5319816.638 9  19480228.555    19480233.145       -1894.460
     -1480.248
 -41321607.107 9  18423494.982 8  18670646.222    18670652.979         698.362
       545.421
 88  3 26  6  3 59.0800000  0  4G 6G 9G11G13
   9360387.500 9  -4017736.079 8  20256408.415    20256414.274       -3347.619
     -2604.066
 -21028139.225 8 -16512134.808 7  18081973.171    18081978.701        -881.015
      -698.398
  -6704353.790 9  -5275130.544 9  19491141.354    19491146.633       -1916.517
     -1492.657
 -41342411.748 9  18407283.601 9  18666688.125    18666692.882         691.177
       552.089
 88  3 26  6  4 29.0800000  0  4G 6G 9G11G13
   9461130.045 9  -3939235.420 8  20275579.114    20275585.394       -3349.270
     -2624.678
 -21001316.782 8 -16491234.214 9  18087077.583    18087082.196        -910.927
      -714.399
  -6646804.762 9  -5230287.150 9  19502091.945    19502098.167       -1916.828
     -1494.123
 -41362793.340 9  18391401.832 9  18662809.113    18662814.300         690.858
       526.252
 88  3 26  6  4 59.0800000  0  4G 6G 9G11G13
   9562249.799 9  -3860440.823 9  20294821.469    20294827.370       -3370.737
     -2633.837
 -20973843.878 8 -16469826.773 8  18092305.131    18092310.174        -905.145
      -715.486
  -6589056.147 9  -5185288.219 9  19513081.963    19513086.725       -1914.914
     -1494.111
 -41382752.413 9  18375849.331 9  18659011.822    18659016.811         651.904
       507.902
 88  3 26  6  5 29.0800000  0  4G 6G 9G11G13
   9663743.578 9  -3781354.785 8  20314135.633    20314140.713       -3388.160
     -2642.921
 -20945721.332 8 -16447913.119 8  18097657.139    18097662.192        -936.030
      -725.559
  -6531110.554 9  -5140135.821 9  19524108.806    19524113.124       -1920.225
     -1501.312
 -41402290.548 9  18360624.806 8  18655293.373    18655298.212         634.799
       490.771
 88  3 26  6  5 59.0800000  0  4G 6G 9G11G13
   9765609.046 9  -3701979.103 9  20333519.924    20333524.644       -3393.240
     -2644.164
 -20916949.162 8 -16425493.267 7  18103132.350    18103136.925        -973.350
      -749.855
  -6472969.866 9  -5094831.381 9  19535172.054    19535177.559       -1939.276
     -1514.716
 -41421409.043 9  18345727.284 8  18651655.529    18651660.705         645.277
       483.327
 88  3 26  6  6 29.0800000  0  4G 6G 9G11G13
   9867843.346 9  -3622316.033 9  20352975.073    20352979.835       -3407.084
     -2670.274
 -20887528.363 8 -16402567.978 7  18108730.448    18108735.838        -990.160
      -763.724
  -6414636.463 9  -5049376.780 9  19546271.902    19546278.129       -1946.493
     -1505.364
 -41440110.255 9  18331154.932 9  18648096.429    18648101.694         610.485
       488.590
 88  3 26  6  6 59.0800000  0  4G 6G 9G11G13
   9970444.018 9  -3542367.478 9  20372498.706    20372504.823       -3412.706
     -2666.751
 -20857458.895 7 -16379137.234 8  18114453.219    18114457.209       -1011.627
      -790.629
  -6356112.512 9  -5003773.692 9  19557408.701    19557414.765       -1954.802
     -1525.782
 -41458394.547 9  18316907.434 9  18644617.153    18644622.872         596.259
       465.642
 88  3 26  6  7 29.0800000  0  4G 6G 9G11G13
  10073408.679 9  -3462135.295 8  20392092.232    20392097.880       -3443.718
     -2679.732
 -20826740.928 8 -16355201.165 8  18120298.223    18120304.385       -1041.874
      -804.747
  -6297399.836 9  -4958023.562 8  19568582.063    19568586.686       -1961.285
     -1523.154
 -41476262.231 9  18302984.602 9  18641216.727    18641222.555         595.940
       465.978
 88  3 26  6  7 59.0800000  0  4G 6G 9G11G13
  10176734.535 9  -3381621.658 9  20411754.724    20411759.635       -3452.745
     -2679.185
 -20795375.375 8 -16330760.489 7  18126267.264    18126272.490       -1066.403
      -814.683
  -6238500.950 9  -4912128.320 9  19579789.925    19579795.217       -1969.666
     -1530.697
 -41493715.067 9  18289385.008 8  18637895.487    18637901.759         566.116
       450.785
 88  3 26  6  8 29.0800000  0  4G 6G 9G11G13
  10280418.880 9  -3300828.679 9  20431486.201    20431491.254       -3462.386
     -2684.112
 -20763362.695 7 -16305815.575 7  18132359.554    18132363.452       -1084.855
      -840.800
  -6179417.754 9  -4866089.469 9  19591033.116    19591038.298       -1982.042
     -1531.213
 -41510754.040 8  18276107.914 8  18634653.158    18634658.884         573.237
       442.633
 88  3 26  6  8 59.0800000  0  4G 6G 9G11G13
  10384459.499 9  -3219758.084 9  20451284.168    20451288.906       -3483.326
     -2702.400
 -20730703.268 8 -16280366.667 8  18138574.730    18138578.871       -1095.254
      -856.962
  -6120152.383 9  -4819908.658 9  19602311.167    19602316.136       -1993.103
     -1533.904
 -41527380.278 9  18263152.439 8  18631488.731    18631494.026         549.066
       425.601
 88  3 26  6  9 29.0800000  0  4G 6G 9G11G13
  10488853.507 9  -3138412.101 8  20471149.313    20471154.376       -3484.539
     -2713.709
 -20697397.404 8 -16254414.044 7  18144911.616    18144916.608       -1101.713
      -877.622
  -6060706.777 9  -4773587.413 9  19613622.788    19613629.283       -1986.436
     -1549.569
 -41543595.104 8  18250517.529 8  18628404.402    18628409.053         532.073
       426.881
 88  3 26  6  9 59.0800000  0  4G 6G 9G11G13
  10593598.598 9  -3056792.562 9  20491080.947    20491087.137       -3498.239
     -2739.185
 -20663445.574 9 -16227958.106 8  18151372.190    18151376.725       -1133.642
      -899.476
  -6001082.986 9  -4727127.320 9  19624969.269    19624974.345       -1981.452
     -1551.750
 -41559399.699 9  18238202.280 9  18625396.705    18625401.815         518.668
       401.243
 88  3 26  6 10 29.0800000  0  4G 6G 9G11G13
  10698692.434 9  -2974901.267 8  20511080.031    20511084.743       -3496.492
     -2730.293
 -20628848.267 8 -16200999.177 7  18157956.600    18157962.202       -1163.881
      -908.437
  -5941282.593 9  -4680529.608 9  19636348.967    19636353.960       -1989.115
     -1550.501
 -41574794.632 8  18226206.243 8  18622466.500    18622471.808         500.782
       402.690
 88  3 26  6 10 59.0800000  0  4G 6G 9G11G13
  10804132.348 9  -2892740.313 9  20531144.127    20531149.664       -3511.899
     -2755.757
 -20593605.925 8 -16173537.613 6  18164662.427    18164666.620       -1183.913
      -928.457
  -5881307.645 9  -4633795.891 9  19647761.724    19647767.315       -2005.694
     -1567.483
 -41589780.997 9  18214528.589 8  18619614.819    18619620.929         497.807
       379.277
 88  3 26  6 11 29.0800000  0  4G 6G 9G11G13
  10909916.173 9  -2810311.363 9  20551274.166    20551280.203       -3527.791
     -2750.575
 -20557718.936 8 -16145573.748 8  18171492.501    18171496.141       -1205.069
      -943.178
  -5821160.102 9  -4586927.682 9  19659207.273    19659212.511       -2004.976
     -1555.428
 -41604359.795 9  18203168.497 8  18616840.933    18616845.961         473.589
       377.574
 88  3 26  6 11 59.0800000  0  4G 6G 9G11G13
  11016041.352 9  -2727616.429 8  20571469.382    20571473.888       -3552.273
     -2753.303
 -20521187.570 8 -16117107.774 8  18178442.959    18178448.972       -1218.131
      -962.441
  -5760841.815 9  -4539926.420 9  19670685.446    19670690.237       -2006.723
     -1570.310
 -41618531.945 9  18192125.305 9  18614144.167    18614150.372         470.232
       360.723
 88  3 26  6 12 29.0800000  0  4G 6G 9G11G13
  11122505.257 9  -2644657.563 9  20591728.319    20591734.370       -3554.099
     -2768.868
 -20484012.445 8 -16088140.150 8  18185516.718    18185522.698       -1269.183
      -967.778
  -5700354.399 9  -4492793.378 9  19682195.762    19682201.294       -1998.438
     -1574.927
 -41632298.383 8  18181398.237 9  18611524.276    18611529.243         458.374
       352.800
 88  3 26  6 12 59.0800000  0  4G 6G 9G11G13
  11229305.391 9  -2561436.682 8  20612051.980    20612057.524       -3553.317
     -2777.462
 -20446194.317 9 -16058671.510 8  18192713.886    18192719.212       -1262.404
      -996.797
  -5639699.956 9  -4445530.168 9  19693738.299    19693743.060       -2021.109
     -1579.774
 -41645660.795 9  18170985.975 9  18608980.948    18608986.506         449.985
       339.068
 88  3 26  6 13 29.0800000  0  4G 6G 9G11G13
  11336439.054 9  -2477955.934 9  20632439.745    20632444.486       -3581.905
     -2782.694
 -20407733.812 7 -16028702.282 7  18200032.214    18200038.372       -1294.461
     -1012.344
  -5578880.774 9  -4398138.606 9  19705311.452    19705316.820       -2033.612
     -1569.913
 -41658620.445 9  18160887.568 8  18606514.689    18606520.107         414.619
       345.176
 88  3 26  6 13 59.0800000  0  4G 6G 9G11G13
  11443903.386 9  -2394217.511 9  20652888.193    20652894.986       -3585.582
     -2790.567
 -20368632.162 7 -15998233.486 8  18207474.645    18207479.291       -1302.723
     -1036.695
  -5517898.685 9  -4350620.091 9  19716916.346    19716921.611       -2040.367
     -1582.725
 -41671178.667 9  18151101.943 8  18604124.940    18604129.226         425.671
       326.739
 88  3 26  6 14 29.0800000  0  4G 6G 9G11G13
  11551695.589 9  -2310223.612 9  20673400.805    20673407.130       -3590.279
     -2799.341
 -20328890.056 8 -15967265.633 7  18215036.000    18215040.704       -1335.043
     -1041.051
  -5456755.705 9  -4302976.206 9  19728551.088    19728556.809       -2035.789
     -1589.275
 -41683336.554 9  18141628.273 8  18601811.709    18601817.551         395.767
       311.677
 88  3 26  6 14 59.0800000  0  4G 6G 9G11G13
  11659812.801 9  -2225976.456 9  20693975.424    20693980.865       -3602.057
     -2815.006
 -20288508.339 8 -15935799.375 7  18222721.052    18222726.416       -1352.913
     -1062.010
  -5395454.325 9  -4255208.897 9  19740216.849    19740222.056       -2048.891
     -1595.631
 -41695095.301 9  18132465.634 8  18599574.029    18599579.714         391.932
       308.639
 88  3 26  6 15 29.0800000  0  4G 6G 9G11G13
  11768252.258 9  -2141478.189 9  20714611.121    20714616.769       -3633.045
     -2814.428
 -20247488.334 7 -15903835.751 8  18230525.994    18230532.037       -1394.284
     -1071.598
  -5333996.427 9  -4207319.622 9  19751911.656    19751916.760       -2055.063
     -1611.303
 -41706456.546 9  18123612.735 8  18597412.440    18597417.835         383.973
       292.396
 88  3 26  6 15 59.0800000  0  4G 6G 9G11G13
  11877011.180 9  -2056731.000 9  20735306.653    20735312.108       -3628.284
     -2834.020
 -20205830.318 8 -15871374.966 8  18238454.847    18238458.402       -1387.251
     -1083.870
  -5272384.320 9  -4159310.190 9  19763635.597    19763640.463       -2056.028
     -1594.892
 -41717421.400 9  18115068.726 9  18595326.259    18595331.465         350.002
       280.490
 88  3 26  6 16 29.0800000  0  4G 6G 9G11G13
  11986086.639 9  -1971737.145 9  20756063.128    20756068.068       -3638.188
     -2841.439
 -20163536.210 9 -15838418.544 7  18246501.810    18246507.274       -1424.850
     -1109.260
  -5210619.764 9  -4111181.954 9  19775389.564    19775394.038       -2048.788
     -1605.431
 -41727991.719 9  18106832.131 8  18593314.181    18593319.677         349.014
       268.485
 88  3 26  6 16 59.0800000  0  4G 6G 9G11G13
  12095476.059 9  -1886498.650 9  20776879.421    20776884.871       -3645.485
     -2839.749
 -20120606.490 9 -15804966.826 7  18254671.663    18254676.901       -1442.744
     -1120.028
  -5148705.003 9  -4062936.690 9  19787170.650    19787176.471       -2057.583
     -1610.768
 -41738168.797 8  18098901.971 8  18591377.559    18591382.798         340.609
       263.365
 88  3 26  6 17 29.0800000  0  4G 6G 9G11G13
  12205176.707 9  -1801017.636 9  20797755.565    20797759.727       -3674.528
     -2863.703
 -20077042.054 8 -15771020.531 8  18262961.502    18262966.263       -1463.023
     -1139.826
  -5086641.803 9  -4014575.753 9  19798981.472    19798986.266       -2074.034
     -1609.209
 -41747953.640 9  18091277.437 9  18589515.310    18589521.023         318.671
       250.471
 88  3 26  6 17 59.0800000  0  4G 6G 9G11G13
  12315185.870 9  -1715296.232 8  20818688.499    20818694.372       -3664.169
     -2864.430
 -20032843.879 8 -15736580.412 7  18271372.535    18271377.806       -1491.364
     -1154.502
  -5024431.943 9  -3966100.532 8  19810819.397    19810824.922       -2079.074
     -1607.338
 -41757347.343 8  18083957.700 8  18587728.065    18587732.673         307.691
       255.915
 88  3 26  6 18 29.0800000  0  4G 6G 9G11G13
  12425500.632 9  -1629336.696 8  20839681.339    20839686.832       -3678.339
     -2866.773
 -19988013.267 8 -15701647.480 7  18279902.035    18279907.617       -1503.501
     -1175.375
  -4962077.384 9  -3917512.569 9  19822686.283    19822690.272       -2072.256
     -1621.400
 -41766351.938 9  18076941.157 9  18586013.549    18586019.985         299.684
       237.460
 88  3 26  6 18 59.0800000  0  4G 6G 9G11G13
  12536118.346 9  -1543141.082 9  20860731.081    20860736.107       -3688.499
     -2880.710
 -19942551.136 8 -15666222.457 8  18288554.685    18288559.161       -1532.584
     -1193.774
  -4899580.131 9  -3868813.412 9  19834578.124    19834583.630       -2077.663
     -1620.835
 -41774968.492 9  18070226.962 9  18584374.086    18584381.124         292.962
       207.652
 88  3 26  6 19 29.0800000  0  4G 6G 9G11G13
  12647035.776 9  -1456711.927 9  20881837.198    20881843.350       -3695.253
     -2882.158
 -19896459.111 8 -15630306.601 7  18297325.968    18297330.200       -1534.569
     -1195.545
  -4836942.724 9  -3820005.041 9  19846497.317    19846502.578       -2086.642
     -1637.382
 -41783199.010 9  18063813.607 8  18582807.955    18582813.485         279.118
       212.915
 88  3 26  6 19 59.0800000  0  4G 6G 9G11G13
  12758250.431 9  -1370051.172 9  20903001.180    20903006.204       -3714.575
     -2895.307
 -19849737.772 9 -15593900.395 7  18306216.038    18306222.436       -1559.561
     -1211.570
  -4774166.474 9  -3771088.477 9  19858443.415    19858449.606       -2101.099
     -1645.454
 -41791044.664 9  18057700.129 7  18581315.892    18581320.482         250.467
       200.780
 88  3 26  6 20 29.0800000  0  4G 6G 9G11G13
  12869759.549 9  -1283160.968 8  20924219.683    20924226.581       -3730.587
     -2909.648
 -19802388.577 9 -15557004.919 8  18315226.433    18315231.505       -1582.734
     -1235.462
  -4711253.361 9  -3722065.275 9  19870414.752    19870420.846       -2105.461
     -1641.023
 -41798506.342 9  18051885.866 8  18579896.018    18579900.282         239.693
       178.373
 88  3 26  6 20 59.0800000  0  4G 6G 9G11G13
  12981560.558 9  -1196043.308 8  20945495.695    20945500.862       -3748.346
     -2906.342
 -19754412.123 8 -15519620.685 9  18324355.809    18324360.899       -1612.726
     -1255.234
  -4648204.923 8  -3672936.625 9  19882414.569    19882418.574       -2111.315
     -1642.719
 -41805585.083 9  18046369.978 8  18578548.778    18578552.669         228.226
       188.259
 88  3 26  6 21 29.0800000  0  4G 6G 9G11G13
  13093650.597 9  -1108700.432 9  20966826.149    20966830.611       -3739.271
     -2913.277
 -19705809.914 8 -15481748.861 7  18333604.966    18333609.751       -1625.182
     -1260.851
  -4585023.305 9  -3623704.199 9  19894436.160    19894442.655       -2111.115
     -1643.391
 -41812282.452 9  18041151.277 8  18577274.149    18577279.136         219.398
       165.610
 88  3 26  6 21 59.0800000  0  4G 6G 9G11G13
  13206027.071 9  -1021134.356 9  20988210.071    20988215.491       -3745.898
     -2935.156
 -19656582.724 8 -15443390.026 7  18342972.032    18342977.038       -1641.290
     -1286.489
  -4521710.156 9  -3574369.277 9  19906484.507    19906489.644       -2111.330
     -1639.557
 -41818600.015 9  18036228.506 8  18576071.768    18576076.929         210.276
       161.751
 88  3 26  6 22 29.0800000  0  4G 6G 9G11G13
  13318687.104 8   -933347.335 9  21009648.894    21009653.947       -3749.981
     -2928.954
 -19606732.240 9 -15404545.510 8  18352459.702    18352463.781       -1677.087
     -1312.575
  -4458267.775 9  -3524933.655 9  19918556.750    19918562.346       -2126.019
     -1644.459
 -41824539.412 9  18031600.422 9  18574941.482    18574946.094         183.227
       151.250
 88  3 26  6 22 59.0800000  0  4G 6G 9G11G13
  13431627.864 8   -845341.568 9  21031140.748    21031146.533       -3768.864
     -2942.991
 -19556259.280 8 -15365215.940 7  18362063.640    18362067.968       -1695.324
     -1323.014
  -4394697.588 9  -3475398.449 9  19930654.116    19930659.367       -2126.179
     -1657.937
 -41830101.598 9  18027266.283 9  18573883.509    18573888.105         172.342
       155.705
 88  3 26  6 23 29.0800000  0  4G 6G 9G11G13
  13544846.685 9   -757119.136 9  21052685.865    21052691.589       -3785.052
     -2943.414
 -19505165.585 9 -15325402.688 7  18371785.772    18371790.920       -1702.629
     -1335.814
  -4331001.444 9  -3425765.082 9  19942775.531    19942780.253       -2122.710
     -1648.666
 -41835287.627 9  18023225.240 9  18572896.638    18572901.284         164.950
       128.638
 88  3 26  6 23 59.0800000  0  4G 6G 9G11G13
  13658340.780 9   -668682.205 9  21074283.153    21074287.895       -3786.025
     -2948.639
 -19453452.191 8 -15285106.562 8  18381627.235    18381630.767       -1728.179
     -1356.320
  -4267181.193 9  -3376035.029 9  19954919.863    19954924.724       -2113.635
     -1654.426
 -41840099.966 9  18019475.398 9  18571980.131    18571985.350         150.787
       123.934
 88  3 26  6 24 29.0800000  0  4G 6G 9G11G13
  13772107.286 9   -580033.001 9  21095931.544    21095938.142       -3795.475
     -2968.188
 -19401120.476 9 -15244328.627 8  18391584.725    18391590.571       -1751.025
     -1366.722
  -4203238.518 9  -3326209.573 9  19967087.399    19967092.659       -2118.037
     -1664.300
 -41844539.510 9  18016016.032 9  18571134.696    18571141.389         148.227
       121.212
 88  3 26  6 24 59.0800000  0  4G 6G 9G11G13
  13886143.164 9   -491173.896 9  21117632.475    21117637.136       -3802.907
     -2970.021
 -19348171.930 8 -15203070.023 7  18401660.354    18401665.306       -1774.805
     -1367.940
  -4139175.624 9  -3276290.445 9  19979278.340    19979284.461       -2131.912
     -1672.838
 -41848607.513 9  18012846.177 7  18570360.944    18570366.513         129.304
       103.484
 88  3 26  6 25 29.0800000  0  4G 6G 9G11G13
  14000445.839 9   -402106.901 9  21139383.232    21139388.540       -3810.108
     -2963.055
 -19294607.777 9 -15161331.734 7  18411854.145    18411858.999       -1789.804
     -1394.727
  -4074993.890 9  -3226278.702 8  19991492.527    19991497.104       -2144.496
     -1670.862
 -41852305.267 8  18009964.829 9  18569657.493    18569662.887         132.925
        90.734
 88  3 26  6 25 59.0800000  0  4G 6G 9G11G13
  14115012.039 9   -312834.571 9  21161184.539    21161188.450       -3830.235
     -2974.737
 -19240429.897 9 -15119115.222 8  18422162.455    18422168.117       -1817.228
     -1408.727
  -4010695.458 9  -3176176.031 8  20003728.262    20003732.410       -2144.568
     -1670.545
 -41855635.108 9  18007370.165 9  18569024.377    18569029.199         104.129
        92.579
 88  3 26  6 26 29.0800000  0  4G 6G 9G11G13
  14229838.999 7   -223359.046 9  21183035.553    21183040.911       -3824.948
     -2981.498
 -19185639.652 9 -15076421.549 8  18432590.169    18432594.868       -1846.016
     -1425.094
  -3946282.414 9  -3125984.043 9  20015984.428    20015989.922       -2140.485
     -1665.015
 -41858598.275 9  18005061.229 9  18568460.434    18568465.307         100.126
        72.086
 88  3 26  6 26 59.0800000  0  4G 6G 9G11G13
  14344923.917 9   -133682.519 9  21204933.949    21204941.419       -3836.327
     -2993.615
 -19130238.410 9 -15033251.766 7  18443132.622    18443137.459       -1857.323
     -1441.890
  -3881756.325 9  -3075703.972 9  20028263.918    20028268.995       -2145.158
     -1674.006
 -41861196.063 9  18003036.994 9  18567966.230    18567970.502          86.099
        59.944
 88  3 26  6 27 29.0800000  0  4G 6G 9G11G13
  14460263.990 9    -43807.177 8  21226883.974    21226888.917       -3836.351
     -2997.349
 -19074227.840 9 -14989607.184 9  18453791.402    18453794.723       -1879.548
     -1460.432
  -3817118.896 9  -3025337.152 9  20040564.296    20040568.689       -2160.038
     -1680.853
 -41863429.690 8  18001296.527 7  18567540.810    18567545.871          63.340
        48.536
 88  3 26  6 27 59.0800000  0  4G 6G 9G11G13
  14575855.884 9     46264.406 9  21248880.717    21248885.183       -3850.203
     -3003.252
 -19017609.821 9 -14945489.256 8  18464564.970    18464569.446       -1903.216
     -1476.594
  -3752372.379 9  -2974885.316 9  20052883.656    20052889.947       -2147.462
     -1683.314
 -41865301.379 8  17999838.092 9  18567184.398    18567189.662          56.682
        51.916
 88  3 26  6 28 29.0800000  0  4G 6G 9G11G13
  14691696.865 9    136530.079 9  21270924.189    21270928.791       -3870.306
     -3004.265
 -18960385.705 8 -14900899.059 8  18475454.204    18475458.823       -1919.906
     -1488.027
  -3687518.278 9  -2924349.652 9  20065225.638    20065231.421       -2170.787
     -1675.882
 -41866812.669 8  17998660.472 8  18566896.479    18566902.829          42.312
        40.253
 88  3 26  6 28 59.0800000  0  4G 6G 9G11G13
  14807783.994 9    226987.580 8  21293014.726    21293020.431       -3873.623
     -3016.687
 -18902557.329 9 -14855838.004 8  18486458.458    18486464.268       -1936.246
     -1487.897
  -3622558.331 9  -2873731.516 9  20077587.437    20077591.841       -2153.674
     -1682.568
 -41867965.042 9  17997762.540 9  18566677.478    18566683.054          31.810
        23.842
 88  3 26  6 29 29.0800000  0  4G 6G 9G11G13
  14924113.700 9    317634.078 9  21315151.107    21315157.443       -3874.708
     -3023.739
 -18844126.917 9 -14810307.817 8  18497578.279    18497582.796       -1961.875
     -1519.177
  -3557495.113 9  -2823032.900 9  20089968.423    20089974.448       -2171.170
     -1686.955
 -41868760.273 9  17997142.888 8  18566526.161    18566531.915          25.390
        15.503
 88  3 26  6 29 59.0800000  0  4G 6G 9G11G13
  15040682.897 9    408467.201 9  21337333.329    21337339.542       -3881.662
     -3036.316
 -18785096.164 9 -14764309.853 8  18508810.815    18508815.145       -1967.712
     -1540.695
  -3492330.470 9  -2772255.254 8  20102368.849    20102373.475       -2172.318
     -1675.323
 -41869201.178 9  17996799.355 9  18566442.383    18566447.900          13.501
         3.206
 88  3 26  6 30 29.0800000  0  4G 6G 9G11G13
  15157488.807 9    499484.772 9  21359561.340    21359566.570       -3888.910
     -3038.416
 -18725466.977 8 -14717845.568 7  18520158.591    18520162.773       -2005.519
     -1563.767
  -3427066.176 9  -2721399.960 9  20114787.365    20114793.416       -2173.467
     -1693.151
 -41869288.587 9  17996731.252 8  18566425.266    18566430.825          -4.577
        -8.879
 88  3 26  6 30 59.0800000  0  4G 6G 9G11G13
  15274528.316 9    590684.366 9  21381833.666    21381838.886       -3906.039
     -3040.411
 -18665241.100 8 -14670916.340 8  18531618.768    18531623.418       -2009.769
     -1559.504
  -3361703.710 9  -2670468.167 9  20127226.452    20127231.714       -2174.097
     -1699.600
 -41869023.983 9  17996937.466 9  18566476.279    18566481.557         -13.812
        -5.058
 88  3 26  6 31 29.0800000  0  4G 6G 9G11G13
  15391798.874 9    682064.001 8  21404149.167    21404155.516       -3907.116
     -3042.157
 -18604419.709 9 -14623523.065 8  18543192.772    18543197.186       -2038.413
     -1576.555
  -3296244.678 9  -2619461.133 9  20139682.670    20139687.778       -2190.875
     -1704.540
 -41868408.901 9  17997416.764 8  18566593.265    18566598.271         -33.141
       -19.263
 88  3 26  6 31 59.0800000  0  4G 6G 9G11G13
  15509297.782 9    773621.559 9  21426508.047    21426514.852       -3938.893
     -3046.942
 -18543004.552 9 -14575667.108 8  18554878.146    18554884.000       -2063.907
     -1604.902
  -3230690.520 9  -2568379.974 9  20152157.332    20152162.708       -2187.262
     -1712.867
 -41867444.375 9  17998168.366 9  18566776.827    18566781.963         -35.135
       -36.326
 88  3 26  6 32 29.0800000  0  4G 6G 9G11G13
  15627022.390 9    865354.984 9  21448909.166    21448916.237       -3917.714
     -3065.626
 -18480997.219 8 -14527349.726 8  18566679.589    18566683.278       -2087.886
     -1620.263
  -3165042.926 9  -2517225.997 8  20164649.740    20164654.599       -2170.835
     -1706.864
 -41866132.156 9  17999190.896 9  18567026.762    18567031.439         -30.901
       -40.408
 88  3 26  6 32 59.0800000  0  4G 6G 9G11G13
  15744969.578 8    957261.852 8  21471354.664    21471360.516       -3930.425
     -3058.356
 -18418399.533 9 -14478572.337 8  18578590.674    18578596.333       -2109.712
     -1634.729
  -3099303.780 9  -2466000.691 9  20177159.418    20177164.440       -2189.144
     -1703.142
 -41864473.592 9  18000483.296 8  18567342.795    18567346.587         -73.843
       -40.495
 88  3 26  6 33 29.0800000  0  4G 6G 9G11G13
  15863136.573 8   1049339.992 9  21493841.027    21493847.247       -3943.734
     -3068.590
 -18355213.285 9 -14429336.320 7  18590614.572    18590620.489       -2097.128
     -1653.320
  -3033474.438 9  -2414705.111 9  20189686.012    20189691.107       -2200.548
     -1707.585
 -41862470.297 9  18002044.323 8  18567723.194    18567727.825         -73.244
       -57.459
 88  3 26  6 33 59.0800000  0  4G 6G 9G11G13
  15981520.369 7   1141587.065 9  21516368.209    21516375.073       -3946.342
     -3072.014
 -18291440.511 9 -14379643.269 8  18602750.726    18602754.876       -2122.550
     -1666.947
  -2967556.924 9  -2363340.795 9  20202230.072    20202235.223       -2190.468
     -1701.042
 -41860123.904 9  18003872.695 8  18568169.810    18568174.954         -71.650
       -70.154
 88  3 26  6 34 29.0800000  0  4G 6G 9G11G13
  16100117.932 9   1234000.721 9  21538937.113    21538942.856       -3949.204
     -3076.743
 -18227082.933 9 -14329494.522 8  18614997.928    18615002.809       -2176.154
     -1690.764
  -2901552.429 9  -2311908.722 9  20214790.237    20214795.740       -2187.262
     -1719.857
 -41857435.722 9  18005967.402 8  18568680.475    18568686.490         -89.010
       -60.833
 88  3 26  6 34 59.0800000  0  4G 6G 9G11G13
  16218926.155 8   1326578.539 8  21561545.276    21561551.449       -3957.027
     -3084.100
 -18162142.863 8 -14278891.889 8  18627354.817    18627359.636       -2162.111
     -1694.381
  -2835462.901 9  -2260410.384 9  20227366.911    20227372.249       -2206.050
     -1710.729
 -41854408.296 9  18008326.449 8  18569257.143    18569262.790         -99.042
       -77.057
 88  3 26  6 35 29.0800000  0  4G 6G 9G11G13
  16337942.091 9   1419318.194 8  21584194.383    21584199.970       -3970.121
     -3093.153
 -18096622.148 8 -14227836.821 7  18639822.827    18639828.106       -2188.347
     -1699.675
  -2769290.257 9  -2208847.289 9  20239959.239    20239964.077       -2203.315
     -1712.693
 -41851042.733 9  18010948.977 8  18569898.008    18569902.709        -118.930
       -97.022
 88  3 26  6 35 59.0800000  0  4G 6G 9G11G13
  16457162.627 9   1512217.302 9  21606881.757    21606886.374       -3979.523
     -3097.994
 -18030522.921 8 -14176330.939 8  18652401.521    18652406.150       -2203.410
     -1724.431
  -2703035.920 9  -2157220.517 9  20252566.458    20252571.909       -2209.694
     -1715.085
 -41847341.187 9  18013833.310 8  18570602.574    18570606.926        -124.512
      -101.129
 88  3 26  6 36 29.0800000  0  4G 6G 9G11G13
  16576584.914 9   1605273.621 9  21629606.317    21629612.403       -3981.062
     -3100.305
 -17963847.145 8 -14124375.804 7  18665088.788    18665094.810       -2233.306
     -1734.876
  -2636701.518 9  -2105531.372 9  20265189.749    20265195.693       -2203.458
     -1741.003
 -41843304.958 9  18016978.453 9  18571369.665    18571375.221        -139.073
      -103.453
 88  3 26  6 36 59.0800000  0  4G 6G 9G11G13
  16696206.369 9   1698485.128 8  21652370.288    21652374.849       -3996.046
     -3108.520
 -17896596.270 9 -14071972.544 9  18677887.342    18677891.955       -2249.670
     -1737.685
  -2570288.587 8  -2053781.039 9  20277827.579    20277832.916       -2207.190
     -1722.641
 -41838935.304 8  18020383.389 9  18572201.652    18572206.369        -142.071
      -109.139
 88  3 26  6 37 29.0800000  0  4G 6G 9G11G13
  16816024.213 9   1791849.669 9  21675170.519    21675176.010       -3991.006
     -3114.448
 -17828772.433 9 -14019122.822 7  18690793.335    18690798.802       -2283.274
     -1775.931
  -2503798.184 9  -2001970.321 9  20290480.494    20290485.343       -2216.831
     -1728.333
 -41834233.200 9  18024047.386 8  18573096.932    18573102.322        -158.825
      -124.512
 88  3 26  6 37 59.0800000  0  4G 6G 9G11G13
  16936035.606 8   1885365.032 8  21698008.357    21698014.006       -4002.872
     -3123.110
 -17760377.262 9 -13965827.899 8  18703808.878    18703814.149       -2281.152
     -1793.845
  -2437232.016 9  -1950100.592 9  20303147.058    20303152.679       -2219.710
     -1733.273
 -41829200.565 9  18027968.940 9  18574055.253    18574059.787        -166.225
      -144.185
 88  3 26  6 38 29.0800000  0  4G 6G 9G11G13
  17056237.720 8   1979028.993 9  21720882.105    21720887.483       -4025.918
     -3121.432
 -17691412.851 9 -13912089.430 8  18716932.462    18716936.622       -2309.318
     -1790.533
  -2370591.575 9  -1898172.973 9  20315828.700    20315834.463       -2223.282
     -1738.138
 -41823839.072 9  18032146.739 9  18575074.567    18575080.038        -187.086
      -135.591
 88  3 26  6 38 59.0800000  0  4G 6G 9G11G13
  17176627.446 8   2072839.140 9  21743789.997    21743796.658       -4009.419
     -3133.239
 -17621881.502 9 -13857909.181 9  18730163.435    18730168.118       -2325.259
     -1813.338
  -2303878.419 9  -1846188.703 9  20328524.251    20328528.672       -2226.321
     -1732.776
 -41818150.559 9  18036579.367 8  18576156.087    18576161.706        -183.673
      -142.041
 88  3 26  6 39 29.0800000  0  4G 6G 9G11G13
  17297201.995 8   2166793.296 9  21766736.196    21766741.897       -4012.329
     -3134.854
 -17551785.135 8 -13803288.634 8  18743501.700    18743507.909       -2343.073
     -1824.118
  -2237093.997 9  -1794148.887 9  20341232.912    20341237.718       -2215.715
     -1729.203
 -41812136.433 9  18041265.707 9  18577302.224    18577305.799        -204.526
      -153.773
 88  3 26  6 39 59.0800000  0  4G 6G 9G11G13
  17417958.346 8   2260889.123 9  21789714.163    21789719.404       -4036.125
     -3135.003
 -17481125.965 8 -13748229.578 8  18756947.894    18756954.065       -2363.113
     -1841.057
  -2170239.754 9  -1742054.671 9  20353954.132    20353959.923       -2222.621
     -1745.166
 -41805798.333 9  18046204.508 9  18578507.039    18578512.131        -196.967
      -147.671
 88  3 26  6 40 29.0800000  0  4G 6G 9G11G13
  17538893.718 8   2355124.440 7  21812728.474    21812734.542       -4030.607
     -3144.858
 -17409905.955 8 -13692733.488 9  18770501.341    18770506.074       -2376.900
     -1843.164
  -2103316.837 9  -1689906.934 9  20366689.431    20366694.414       -2242.198
     -1728.749
 -41799138.058 9  18051394.358 8  18579775.642    18579780.064        -215.451
      -178.143
 88  3 26  6 40 59.0800000  0  4G 6G 9G11G13
  17660005.207 9   2449496.989 9  21835773.886    21835780.870       -4034.028
     -3145.784
 -17338126.995 8 -13636801.849 9  18784159.374    18784165.198       -2407.147
     -1874.910
  -2036327.332 9  -1637707.320 9  20379436.669    20379443.149       -2232.286
     -1738.039
 -41792156.608 9  18056834.458 8  18581103.229    18581108.362        -236.838
      -183.754
 88  3 26  6 41 29.0800000  0  4G 6G 9G11G13
  17781289.870 8   2544004.515 9  21858854.181    21858860.867       -4063.421
     -3155.558
 -17265791.365 9 -13580436.435 8  18797925.052    18797930.819       -2424.619
     -1884.492
  -1969272.708 8  -1585456.961 9  20392196.781    20392202.905       -2223.418
     -1730.222
 -41784855.738 9  18062523.461 8  18582492.311    18582498.031        -254.781
      -198.605
 88  3 26  6 41 59.0800000  0  4G 6G 9G11G13
  17902744.937 8   2638644.794 9  21881967.748    21881972.577       -4046.715
     -3163.450
 -17192901.542 8 -13523639.187 8  18811796.150    18811800.775       -2442.856
     -1889.040
  -1902154.118 9  -1533156.767 9  20404969.079    20404974.262       -2251.607
     -1736.920
 -41777237.080 9  18068460.098 8  18583942.208    18583947.098        -262.763
      -203.980
 88  3 26  6 42 29.0800000  0  4G 6G 9G11G13
  18024367.192 9   2733415.340 9  21905110.526    21905115.749       -4065.335
     -3162.617
 -17119459.386 9 -13466411.553 8  18825771.331    18825775.714       -2468.558
     -1909.048
  -1834972.894 9  -1480807.762 9  20417753.885    20417759.620       -2240.029
     -1750.100
 -41769302.309 9  18074643.055 8  18585452.268    18585457.200        -266.814
      -205.801
 88  3 26  6 42 59.0800000  0  4G 6G 9G11G13
  18146153.775 9   2828313.940 9  21928285.774    21928290.434       -4067.129
     -3165.469
 -17045467.396 8 -13408755.472 8  18839851.916    18839856.416       -2476.715
     -1917.512
  -1767730.844 9  -1428411.354 9  20430549.627    20430554.602       -2239.789
     -1752.275
 -41761053.267 9  18081070.892 9  18587022.631    18587026.723        -289.557
      -214.842
 88  3 26  6 43 29.0800000  0  4G 6G 9G11G13
  18268101.091 9   2923337.805 9  21951491.905    21951497.244       -4065.797
     -3181.495
 -16970928.518 9 -13350673.248 8  18854035.396    18854041.023       -2497.034
     -1946.232
  -1700429.782 9  -1375968.969 9  20443355.980    20443361.505       -2248.753
     -1741.158
 -41752491.687 9  18087742.269 8  18588651.616    18588656.321        -299.884
      -225.678
 88  3 26  6 43 59.0800000  0  4G 6G 9G11G13
  18390206.085 9   3018484.527 9  21974727.298    21974732.786       -4047.959
     -3172.814
 -16895844.872 9 -13292166.539 9  18868324.054    18868328.886       -2498.222
     -1952.222
  -1633071.210 9  -1323481.772 8  20456173.582    20456179.420       -2242.875
     -1740.350
 -41743619.821 9  18094655.435 8  18590339.191    18590344.540        -289.573
      -241.884
 88  3 26  6 44 29.0800000  0  4G 6G 9G11G13
  18512465.720 9   3113751.739 8  21997992.970    21997998.791       -4076.706
     -3184.546
 -16820219.118 9 -13233237.391 8  18882714.869    18882720.369       -2530.790
     -1975.884
  -1565656.836 9  -1270951.079 9  20469002.204    20469008.213       -2247.979
     -1748.379
 -41734440.210 9  18101808.385 8  18592085.581    18592092.279        -304.589
      -241.294
 88  3 26  6 44 59.0800000  0  4G 6G 9G11G13
  18634877.229 9   3209137.313 9  22021286.817    22021291.961       -4071.252
     -3179.997
 -16744053.270 9 -13173887.394 8  18897208.919    18897214.085       -2550.375
     -1986.118
  -1498187.861 9  -1218377.864 9  20481841.294    20481846.703       -2255.690
     -1748.087
 -41724953.701 9  18109200.477 8  18593891.375    18593896.310        -323.105
      -244.655
 88  3 26  6 45 29.0800000  0  3G 9G11G13
 -16667350.014 9 -13114118.635 8  18911805.004    18911810.974       -2559.513
     -1994.718
  -1430666.008 9  -1165763.423 9  20494691.026    20494696.198       -2255.882
     -1756.407
 -41715162.094 9  18116830.329 8  18595754.806    18595759.277        -321.271
      -258.674
 88  3 26  6 45 59.0800000  0  4G 3G 9G11G13
 -82203590.495 9   3585624.359 9                                      2139.544
     -3176.002
 -16590111.642 9 -13053932.905 8  18926503.675    18926508.379       -2591.140
     -2008.481
  -1363092.523 9  -1113108.756 9  20507549.806    20507554.366       -2249.359
     -1749.671
 -41705066.663 9  18124696.917 8  18597675.961    18597681.376        -334.803
      -275.047
 88  3 26  6 46 29.0800000  0  4G 3G 9G11G13
 -82266920.919 8 104182747.113 9  20944286.878    20944292.424        2111.203
      1649.847
 -16512340.959 9 -12993332.393 8  18941303.057    18941308.271       -2603.229
     -2035.058
  -1295469.250 9  -1060415.297 9  20520418.027    20520422.490       -2262.604
     -1754.108
 -41694670.089 9  18132798.151 8  18599654.765    18599659.306        -330.936
      -268.473
 88  3 26  6 46 59.0800000  0  4G 3G 9G11G13
 -82330021.570 9 104133577.772 8  20932279.216    20932285.531        2092.431
      1631.976
 -16434040.652 9 -12932319.181 8  18956202.994    18956207.588       -2617.176
     -2036.599
  -1227797.677 9  -1007684.199 9  20533294.582    20533300.616       -2252.556
     -1753.337
 -41683973.585 9  18141133.111 8  18601689.533    18601694.879        -356.884
      -291.830
 88  3 26  6 47 29.0800000  0  4G 3G 9G11G13
 -82392882.133 8 104084595.546 9  20920316.896    20920323.831        2098.420
      1633.355
 -16355212.712 9 -12870894.827 9  18971203.421    18971208.265       -2631.809
     -2049.113
  -1160079.011 9   -954916.409 9  20546181.632    20546187.190       -2263.362
     -1774.856
 -41672978.166 9  18149700.988 9  18603782.334    18603786.770        -370.249
      -281.006
 88  3 26  6 47 59.0800000  0  4G 3G 9G11G13
 -82455502.861 9 104035800.215 9  20908400.673    20908406.934        2082.559
      1627.129
 -16275859.873 9 -12809061.476 9  18986303.343    18986308.447       -2645.748
     -2074.764
  -1092314.547 9   -902112.934 9  20559076.675    20559081.994       -2260.547
     -1752.648
 -41661687.027 9  18158499.293 8  18605931.084    18605935.900        -380.297
      -313.355
 88  3 26  6 48 29.0800000  0  4G 3G 9G11G13
 -82517884.013 9 103987191.543 9  20896530.281    20896536.138        2076.658
      1622.388
 -16195984.735 9 -12746821.121 8  19001503.684    19001508.302       -2676.736
     -2073.422
  -1024505.875 9   -849275.016 9  20571980.361    20571985.644       -2244.359
     -1765.858
 -41650101.341 9  18167527.114 8  18608135.083    18608140.201        -387.522
      -304.003
 88  3 26  6 48 59.0800000  0  4G 3G 9G11G13
 -82580025.751 9 103938769.430 8  20884704.869    20884711.114        2065.621
      1604.194
 -16115589.407 9 -12684175.429 8  19016802.407    19016806.858       -2693.100
     -2094.841
   -956653.999 9   -796403.430 9  20584891.559    20584897.163       -2258.290
     -1758.402
 -41638222.460 9  18176783.401 8  18610394.964    18610401.477        -401.445
      -320.600
 88  3 26  6 49 29.0800000  0  4G 3G 9G11G13
 -82641927.662 9 103890534.158 9  20872926.321    20872932.025        2039.872
      1603.703
 -16034676.454 9 -12621126.394 9  19032199.641    19032203.556       -2699.017
     -2097.457
   -888760.464 9   -743499.377 9  20597811.117    20597816.852       -2272.476
     -1761.129
 -41626052.363 9  18186266.601 8  18612711.789    18612716.813        -411.915
      -313.032
 88  3 26  6 49 59.0800000  0  4G 3G 9G11G13
 -82703590.102 9 103842485.514 8  20861190.718    20861197.008        2049.737
      1604.064
 -15953248.167 9 -12557675.813 7  19047694.626    19047699.048       -2716.193
     -2112.326
   -820826.088 9   -690563.513 9  20610738.292    20610745.540       -2261.567
     -1767.772
 -41613592.614 9  18195975.509 9  18615082.266    18615088.407        -435.001
      -329.821
 88  3 26  6 50 29.0800000  0  4G 3G 9G11G13
 -82765012.821 9 103794623.678 8  20849503.712    20849508.991        2043.333
      1593.687
 -15871307.092 9 -12493825.643 9  19063286.819    19063291.601       -2740.116
     -2126.009
   -752852.185 9   -637596.843 9  20623673.622    20623679.236       -2263.234
     -1773.507
 -41600844.198 9  18205909.359 9  18617508.731    18617513.667        -437.290
      -315.424
 88  3 26  6 50 59.0800000  0  4G 3G 9G11G13
 -82826195.679 9 103746948.735 8  20837861.008    20837866.637        2038.915
      1582.788
 -15788855.028 8 -12429577.292 8  19078977.550    19078981.584       -2747.636
     -2144.178
   -684839.510 9   -584599.957 8  20636616.248    20636621.355       -2265.180
     -1750.908
 -41587808.416 9  18216067.119 8  18619989.316    18619993.707        -437.098
      -344.101
 88  3 26  6 51 29.0800000  0  4G 3G 9G11G13
 -82887138.995 9 103699460.451 8  20826263.286    20826269.451        2019.139
      1583.154
 -15705894.849 9 -12364933.025 8  19094763.746    19094769.840       -2767.939
     -2160.719
   -616789.548 9   -531574.026 9  20649565.937    20649571.358       -2274.015
     -1762.074
 -41574486.912 9  18226447.520 9  18622524.402    18622528.834        -452.258
      -337.433
 88  3 26  6 51 59.0800000  0  4G 3G 9G11G13
 -82947842.668 8 103652158.914 9  20814710.997    20814717.183        2007.353
      1575.493
 -15622428.818 8 -12299894.583 9  19110647.080    19110651.660       -2788.194
     -2169.412
   -548703.033 9   -478519.600 9  20662522.872    20662528.276       -2276.272
     -1771.090
 -41560881.639 9  18237049.042 8  18625113.110    18625117.548        -460.591
      -350.762
 88  3 26  6 52 29.0800000  0  4G 3G 9G11G13
 -83008307.312 9 103605043.636 9  20803205.559    20803211.951        2010.574
      1561.605
 -15538459.544 9 -12234463.993 8  19126626.423    19126631.297       -2821.973
     -2191.471
   -480581.507 9   -425437.885 9  20675485.847    20675490.134       -2268.983
     -1772.420
 -41546994.098 9  18247870.508 9  18627756.393    18627760.811        -468.677
      -364.103
 88  3 26  6 52 59.0800000  0  4G 3G 9G11G13
 -83068533.129 9 103558114.451 8  20791744.887    20791751.287        1995.176
      1566.340
 -15453989.894 9 -12168643.503 8  19142699.212    19142704.771       -2824.533
     -2200.612
   -412426.433 9   -372330.039 9  20688455.968    20688460.832       -2274.661
     -1763.851
 -41532825.725 9  18258910.807 8  18630451.824    18630456.422        -457.481
      -382.707
 88  3 26  6 53 29.0800000  0  4G 3G 9G11G13
 -83128520.036 9 103511371.424 9  20780330.169    20780335.434        1995.942
      1563.680
 -15369022.254 9 -12102434.981 9  19158868.489    19158874.070       -2849.740
     -2215.755
   -344238.769 9   -319196.792 9  20701430.996    20701435.595       -2261.926
     -1772.047
 -41518378.220 9  18270168.623 8  18633201.098    18633205.981        -481.157
      -367.315
 88  3 26  6 53 59.0800000  0  4G 3G 9G11G13
 -83188268.474 8 103464814.222 8  20768959.988    20768966.533        1979.498
      1528.752
 -15283559.212 8 -12035840.418 9  19175132.199    19175136.971       -2859.827
     -2227.505
   -276019.705 9   -266039.079 9  20714412.765    20714418.494       -2267.644
     -1780.342
 -41503653.946 9  18281642.086 7  18636002.914    18636008.593        -497.879
      -389.909
 88  3 26  6 54 29.0800000  0  4G 3G 9G11G13
 -83247778.637 9 103418442.717 9  20757635.789    20757642.123        1979.650
      1529.902
 -15197603.588 9 -11968862.024 7  19191489.950    19191493.407       -2871.805
     -2231.712
   -207770.505 9   -212857.892 9  20727399.979    20727405.434       -2267.181
     -1781.796
 -41488654.137 8  18293330.246 9  18638856.708    18638863.049        -506.093
      -399.099
 88  3 26  6 54 59.0800000  0  4G 3G 9G11G13
 -83307050.796 8 103372256.669 9  20746356.257    20746362.133        1980.503
      1539.136
 -15111158.405 9 -11901502.154 8  19207938.350    19207943.940       -2902.299
     -2247.333
   -139492.138 9   -159653.976 9  20740393.195    20740397.880       -2269.406
     -1777.186
 -41473380.516 9  18305231.779 8  18641764.402    18641768.382        -522.177
      -398.186
 88  3 26  6 55 29.0800000  0  4G 3G 9G11G13
 -83366085.601 9 103326255.555 8  20735122.493    20735128.191        1959.267
      1538.924
 -15024226.304 9 -11833762.883 9  19224481.363    19224486.280       -2899.484
     -2254.914
    -71186.227 9   -106428.580 9  20753390.819    20753395.839       -2273.609
     -1762.745
 -41457834.706 9  18317345.412 9  18644722.784    18644727.407        -525.638
      -399.621
 88  3 26  6 55 59.0800000  0  4G 3G 9G11G13
 -83424883.548 8 103280439.012 9  20723933.236    20723939.715        1970.559
      1525.807
 -14936810.297 9 -11765646.514 8  19241116.995    19241120.809       -2922.753
     -2278.570
     -2854.462 9    -53183.046 9  20766394.484    20766399.073       -2277.229
     -1767.704
 -41442018.623 9  18329669.631 9  18647732.122    18647737.297        -522.073
      -420.449
 88  3 26  6 56 29.0800000  0  4G 3G 9G11G13
 -83483444.661 9 103234807.010 9  20712789.665    20712797.097        1963.677
      1515.356
 -14848912.996 8 -11697155.125 8  19257842.939    19257846.721       -2936.692
     -2273.711
     65502.658 9        82.244 9  20779402.061    20779407.656       -2284.860
     -1761.546
 -41425933.861 9  18342203.222 8  18650792.349    18650797.911        -536.164
      -417.305
 88  3 26  6 56 59.0800000  0  4G 3G 9G11G13
 -83541769.628 9 103189359.007 8  20701691.028    20701697.262        1937.793
      1517.443
 -14760537.018 9 -11628290.745 8  19274659.701    19274665.488       -2958.438
     -2310.012
    133883.740 8     53366.200 9  20792414.256    20792419.988       -2267.859
     -1769.530
 -41409582.303 9  18354944.707 8  18653903.295    18653909.454        -538.365
      -430.708
 88  3 26  6 57 29.0800000  0  4G 3G 9G11G13
 -83599858.052 9 103144095.349 9  20690636.722    20690643.772        1935.647
      1496.590
 -14671685.159 9 -11559055.546 8  19291567.803    19291572.526       -2966.485
     -2311.385
    202287.615 8    106667.913 9  20805431.223    20805436.538       -2281.168
     -1781.287
 -41392965.876 9  18367892.579 9  18657067.108    18657071.782        -545.510
      -441.135
 88  3 26  6 57 59.0800000  0  4G 3G 9G11G13
 -83657710.549 9 103099015.532 9  20679628.876    20679634.188        1917.578
      1508.222
 -14582360.099 8 -11489451.620 8  19308565.511    19308571.002       -2981.389
     -2309.017
    270713.160 8    159986.520 8  20818452.542    20818457.875       -2283.975
     -1775.104
 -41376086.337 9  18381045.469 9  18660278.538    18660283.394        -559.537
      -446.547
 88  3 26  6 58 29.0800000  0  4G 3G 9G11G13
 -83715327.490 9 103054119.253 9  20668664.034    20668668.868        1917.665
      1514.044
 -14492564.750 9 -11419481.234 8  19325653.809    19325659.022       -2993.103
     -2340.254
    339159.463 9    213321.289 9  20831476.951    20831481.950       -2273.944
     -1781.765
 -41358944.156 9  18394403.022 9  18663540.329    18663545.330        -577.200
      -446.976
 88  3 26  6 58 59.0800000  0  4G 3G 9G11G13
 -83772709.449 9 103009406.057 8  20657744.574    20657750.541        1915.648
      1494.067
 -14402302.128 9 -11349146.730 9  19342829.274    19342835.548       -3014.115
     -2347.599
    407625.239 9    266671.246 9  20844506.624    20844511.010       -2278.393
     -1779.298
 -41341542.047 9  18407963.114 9  18666852.379    18666857.532        -577.056
      -455.004
 88  3 26  6 59 29.0800000  0  4G 3G 9G11G13
 -83829856.399 9 102964875.998 9  20646869.651    20646875.771        1915.927
      1481.596
 -14311574.754 9 -11278450.101 9  19360094.542    19360100.016       -3029.976
     -2359.467
    476109.441 9    320035.557 9  20857538.072    20857543.274       -2274.390
     -1777.155
 -41323881.564 9  18421724.537 9  18670212.897    18670217.575        -600.748
      -456.657
 88  3 26  6 59 59.0800000  0  4G 3G 9G11G13
 -83886768.988 9 102920528.558 8  20636039.524    20636045.367        1901.525
      1475.041
 -14220385.751 9 -11207393.753 8  19377447.167    19377452.807       -3067.902
     -2361.207
    544610.709 9    373413.160 9  20870573.068    20870578.871       -2273.449
     -1777.795
 -41305964.398 9  18435685.979 9  18673622.852    18673627.627        -600.046
      -467.475
 88  3 26  7  0 29.0800000  0  4G 3G 9G11G13
 -83943447.177 9 102876363.761 8  20625254.514    20625261.010        1898.678
      1476.700
 -14128737.875 9 -11135979.835 8  19394887.139    19394893.020       -3048.126
     -2397.887
    613128.081 9    426803.312 9  20883611.697    20883616.988       -2280.929
     -1770.879
 -41287792.147 9  18449846.174 8  18677079.981    18677084.969        -604.711
      -466.550
 88  3 26  7  0 59.0800000  0  4G 3G 9G11G13
 -83999891.831 9 102832380.942 9  20614513.407    20614518.505        1871.015
      1461.153
 -14036633.917 9 -11064210.545 9  19412413.890    19412418.927       -3075.948
     -2401.056
    681660.490 9    480205.187 9  20896653.816    20896658.644       -2279.573
     -1788.178
 -41269366.237 8  18464204.033 9  18680587.178    18680592.377        -620.381
      -477.989
 88  3 26  7  1 29.0800000  0  4G 3G 9G11G13
 -84056103.285 9 102788579.846 8  20603816.065    20603822.081        1879.077
      1458.400
 -13944076.903 9 -10992088.205 9  19430027.038    19430032.991       -3085.542
     -2422.674
    750206.840 9    533617.930 9  20909697.227    20909702.785       -2278.473
     -1785.245
 -41250688.659 9  18478758.000 8  18684140.947    18684145.414        -619.895
      -474.230
 88  3 26  7  1 59.0800000  0  4G 3G 9G11G13
 -84112082.001 8 102744960.152 9  20593163.964    20593170.077        1853.336
      1454.206
 -13851069.782 9 -10919615.149 8  19447726.053    19447730.736       -3104.170
     -2409.550
    818766.090 9    587040.713 9  20922743.436    20922748.707       -2273.114
     -1784.263
 -41231761.330 9  18493506.577 8  18687742.902    18687747.208        -636.625
      -484.576
 88  3 26  7  2 29.0800000  0  4G 3G 9G11G13
 -84167828.353 9 102701521.457 8  20582555.695    20582561.377        1846.741
      1440.858
 -13757615.409 9 -10846793.572 9  19465509.721    19465514.395       -3128.388
     -2434.057
    887336.906 9    640472.523 9  20935792.710    20935797.482       -2279.103
     -1781.989
 -41212586.208 9  18508448.242 9  18691391.485    18691396.216        -641.074
      -499.942
 88  3 26  7  2 59.0800000  0  4G 3G 9G11G13
 -84223342.547 9 102658263.664 9  20571991.508    20571997.150        1846.606
      1450.303
 -13663717.046 9 -10773626.043 8  19483377.655    19483383.685       -3134.034
     -2447.386
    955918.216 9    693912.500 9  20948843.293    20948847.786       -2293.058
     -1771.028
 -41193164.411 9  18523582.106 9  18695087.861    18695091.874        -643.531
      -515.396
 88  3 26  7  3 29.0800000  0  4G 3G 9G11G13
 -84278625.252 8 102615186.238 8  20561471.216    20561477.564        1839.517
      1430.662
 -13569377.622 9 -10700114.808 8  19501329.917    19501335.133       -3131.705
     -2459.552
   1024509.232 9    747360.054 9  20961894.999    20961901.163       -2290.187
     -1779.721
 -41173497.680 9  18538906.842 8  18698830.118    18698834.192        -654.758
      -512.221
 88  3 26  7  3 59.0800000  0  4G 3G 9G11G13
 -84333676.886 9 102572288.886 9  20550994.817    20551001.223        1832.188
      1433.116
 -13474600.112 9 -10626262.217 8  19519366.678    19519371.049       -3167.079
     -2468.159
   1093109.012 9    800814.429 9  20974948.851    20974954.470       -2297.213
     -1784.773
 -41153587.790 9  18554421.050 8  18702618.799    18702623.663        -674.288
      -529.365
 88  3 26  7  4 29.0800000  0  4G 3G 9G11G13
 -84388498.155 8 102529571.028 8  20540563.434    20540570.007        1842.523
      1430.537
 -13379387.290 9 -10552070.428 9  19537484.726    19537490.256       -3187.302
     -2483.625
   1161716.524 9    854274.836 9  20988004.391    20988009.881       -2291.399
     -1783.393
 -41133436.966 9  18570123.004 9  18706453.264    18706457.454        -680.268
      -531.204
 88  3 26  7  4 59.0800000  0  4G 3G 9G11G13
 -84443089.174 9 102487032.628 9  20530175.112    20530181.513        1806.949
      1419.862
 -13283742.610 9 -10477542.124 8  19555685.227    19555690.361       -3190.022
     -2493.679
   1230330.609 9    907740.348 9  21001062.046    21001065.922       -2292.205
     -1775.210
 -41113046.417 9  18586011.739 8  18710333.537    18710338.844        -682.222
      -520.081
 88  3 26  7  5 29.0800000  0  4G 3G 9G11G13
 -84497450.615 9 102444673.109 8  20519830.521    20519837.557        1811.885
      1409.118
 -13187668.891 9 -10402679.493 8  19573967.029    19573972.518       -3210.205
     -2493.206
   1298949.987 9    961210.007 9  21014119.989    21014124.922       -2295.985
     -1780.318
 -41092417.544 9  18602086.184 9  18714258.618    18714263.112        -696.967
      -549.000
 88  3 26  7  5 59.0800000  0  4G 3G 9G11G13
 -84551582.883 9 102402492.146 8  20509529.378    20509535.569        1797.492
      1407.975
 -13091168.821 9 -10327484.638 9  19592330.629    19592335.918       -3223.458
     -2507.411
   1367573.991 9   1014683.258 9  21027177.618    21027183.494       -2285.411
     -1781.007
 -41071552.739 9  18618344.485 8  18718229.104    18718234.715        -709.008
      -544.588
 88  3 26  7  6 29.0800000  0  4G 3G 9G11G13
 -84605485.953 9 102360489.804 8  20499271.842    20499278.517        1803.026
      1380.579
 -12994245.956 9 -10251960.334 9  19610774.680    19610779.874       -3236.217
     -2516.906
   1436201.431 9   1068159.183 9  21040237.301    21040242.204       -2291.838
     -1784.605
 -41050453.290 9  18634785.628 8  18722244.082    18722248.940        -703.386
      -545.750
 88  3 26  7  6 59.0800000  0  4G 3G 9G11G13
 -84659160.618 9 102318665.402 8  20489057.904    20489063.369        1792.986
      1396.567
 -12896903.024 8 -10176108.727 9  19629298.548    19629303.464       -3256.863
     -2538.666
   1504831.373 9   1121637.072 9  21053297.158    21053302.004       -2282.883
     -1780.025
 -41029120.861 9  18651408.299 8  18726303.823    18726308.636        -717.437
      -552.965
 88  3 26  7  7 29.0800000  0  4G 3G 9G11G13
 -84712607.340 8 102277018.655 8  20478887.241    20478893.684        1764.023
      1388.209
 -12799143.194 9 -10099932.259 9  19647901.457    19647906.597       -3255.276
     -2552.430
   1573462.997 9   1175116.275 9  21066357.052    21066362.640       -2281.376
     -1780.777
 -41007557.050 9  18668211.278 9  18730406.990    18730412.374        -717.541
      -551.330
 88  3 26  7  7 59.0800000  0  4G 3G 9G11G13
 -84765826.954 8 102235548.844 9  20468759.981    20468765.762        1754.486
      1374.197
 -12700969.742 8 -10023433.471 9  19666582.414    19666588.072       -3280.164
     -2555.152
   1642095.300 8   1228595.978 9  21079417.730    21079423.163       -2286.208
     -1783.493
 -40985764.013 9  18685192.862 8  18734554.036    18734559.015        -721.065
      -565.212
 88  3 26  7  8 29.0800000  0  4G 3G 9G11G13
 -84818819.910 9 102194255.672 8  20458674.782    20458681.894        1759.350
      1360.570
 -12602385.371 9  -9946614.502 8  19685341.999    19685347.298       -3291.208
     -2551.510
   1710727.282 9   1282075.447 9  21092477.646    21092483.239       -2291.057
     -1772.786
 -40963743.185 9  18702351.961 9  18738744.999    18738749.463        -738.417
      -563.864
 88  3 26  7  8 59.0800000  0  4G 3G 9G11G13
 -84871586.554 9 102153138.861 8  20448635.075    20448639.752        1777.037
      1364.516
 -12503393.442 9  -9869477.954 8  19704180.506    19704185.940       -3294.055
     -2582.492
   1779358.066 9   1335553.993 9  21105537.504    21105543.049       -2291.647
     -1787.171
 -40941495.811 9  18719687.578 9  18742978.719    18742982.962        -757.652
      -573.501
 88  3 26  7  9 29.0800000  0  4G 3G 9G11G13
 -84924127.327 9 102112198.027 8  20438636.384    20438642.252        1752.357
      1356.705
 -12403996.849 9  -9792026.083 9  19723095.115    19723100.414       -3309.741
     -2586.836
   1847986.597 9   1389030.754 9  21118597.473    21118602.549       -2273.082
     -1767.927
 -40919023.593 9  18737198.411 9  18747254.628    18747259.580        -746.384
      -574.017
 88  3 26  7  9 59.0800000  0  4G 3G 9G11G13
 -84976443.264 9 102071432.366 9  20428680.475    20428687.612        1753.146
      1355.400
 -12304199.257 9  -9714261.746 8  19742085.153    19742091.038       -3340.697
     -2588.116
   1916611.954 8   1442505.070 9  21131657.209    21131661.716       -2295.179
     -1772.836
 -40896328.614 9  18754882.804 8  18751573.183    18751579.451        -748.960
      -590.396
 88  3 26  7 10 29.0800000  0  4G 3G 9G11G13
 -85028534.381 8 102030841.912 9  20418769.036    20418774.262        1723.211
      1354.120
 -12204003.442 8  -9636187.094 8  19761151.941    19761157.333       -3332.627
     -2607.354
   1985233.138 9   1495976.114 9  21144714.717    21144719.451       -2293.856
     -1779.491
 -40873412.187 9  18772739.769 8  18755934.420    18755938.429        -767.412
      -589.029
 88  3 26  7 10 59.0800000  0  4G 3G 9G11G13
 -85080401.335 9 101990426.147 9  20408898.532    20408904.337        1726.640
      1342.034
 -12103412.718 9  -9557804.717 8  19780294.447    19780299.409       -3366.757
     -2612.387
   2053849.508 9   1549443.428 9  21157771.229    21157777.173       -2284.023
     -1787.289
 -40850276.480 9  18790767.602 8  18760336.575    18760341.911        -774.469
      -591.764
 88  3 26  7 11 29.0800000  0  4G 3G 9G11G13
 -85132044.868 9 101950184.505 9  20399071.172    20399077.300        1721.656
      1342.258
 -12002430.488 9  -9479117.290 9  19799509.870    19799514.707       -3375.091
     -2625.311
   2122459.844 9   1602906.021 9  21170827.987    21170833.075       -2291.495
     -1789.620
 -40826923.459 9  18808964.755 8  18764780.888    18764785.592        -772.747
      -618.309
 88  3 26  7 11 59.0800000  0  4G 3G 9G11G13
 -85183465.473 8 101910116.546 8  20389284.866    20389291.640        1710.611
      1325.947
 -11901059.686 9  -9400127.076 9  19818800.738    19818805.510       -3395.010
     -2643.307
   2191063.319 9   1656363.280 9  21183882.178    21183888.368       -2277.396
     -1773.215
 -40803354.429 9  18827330.241 8  18769266.120    18769269.642        -782.555
      -601.643
 88  3 26  7 12 29.0800000  0  4G 3G 9G11G13
 -85234663.737 9 101870221.874 9  20379542.642    20379549.124        1699.256
      1322.138
 -11799303.554 9  -9320836.592 8  19838164.865    19838169.963       -3383.073
     -2647.476
   2259659.043 9   1709814.490 9  21196936.305    21196941.068       -2282.899
     -1768.281
 -40779571.039 9  18845862.758 9  18773791.176    18773796.738        -810.242
      -617.911
 88  3 26  7 12 59.0800000  0  4G 3G 9G11G13
 -85285640.414 9 101830499.863 8  20369842.281    20369848.623        1687.454
      1325.661
 -11697165.400 9  -9241248.431 9  19857600.576    19857605.470       -3409.221
     -2657.418
   2328246.074 9   1763258.934 9  21209988.261    21209993.746       -2277.899
     -1787.252
 -40755574.836 9  18864561.108 9  18778357.654    18778363.263        -803.807
      -631.383
 88  3 26  7 13 29.0800000  0  4G 3G 9G11G13
 -85336396.209 8 101790949.926 9  20360184.473    20360189.983        1695.890
      1315.222
 -11594648.306 9  -9161365.005 8  19877109.063    19877114.244       -3418.774
     -2672.791
   2396823.727 8   1816696.064 9  21223037.890    21223042.781       -2290.474
     -1775.558
 -40731367.438 9  18883424.019 9  18782964.501    18782968.361        -813.424
      -624.473
 88  3 26  7 13 59.0800000  0  4G 3G 9G11G13
 -85386931.667 9 101751571.684 8  20350567.696    20350573.600        1680.564
      1322.181
 -11491755.516 9  -9081188.822 8  19896689.051    19896694.226       -3435.472
     -2679.912
   2465391.074 9   1870125.147 9  21236085.328    21236091.244       -2279.661
     -1782.064
 -40706950.579 8  18902450.143 8  18787610.742    18787615.875        -813.002
      -629.985
 88  3 26  7 14 29.0800000  0  4G 3G 9G11G13
 -85437247.428 8 101712364.643 9  20340992.037    20340999.167        1673.618
      1307.088
 -11388490.213 9  -9000722.374 9  19916338.528    19916344.394       -3445.967
     -2675.488
   2533947.276 9   1923545.560 9  21249131.415    21249136.995       -2262.046
     -1791.975
 -40682326.093 9  18921638.066 8  18792296.617    18792301.150        -814.126
      -631.787
 88  3 26  7 14 59.0800000  0  4G 3G 9G11G13
 -85487343.929 9 101673328.402 9  20331460.259    20331465.542        1657.542
      1302.900
 -11284855.643 9  -8919968.169 8  19936061.330    19936065.875       -3447.506
     -2702.903
   2602491.681 9   1976956.787 9  21262174.664    21262180.456       -2279.781
     -1768.760
 -40657495.899 9  18940986.282 8  18797021.644    18797026.647        -827.603
      -648.371
 88  3 26  7 15 29.0800000  0  4G 3G 9G11G13
 -85537221.337 8 101634462.892 8  20321967.340    20321975.070        1686.425
      1288.434
 -11180855.202 9  -8838928.880 8  19955851.764    19955856.170       -3460.966
     -2718.381
   2671023.160 8   2030357.921 9  21275215.938    21275221.126       -2283.441
     -1778.497
 -40632461.040 9  18960493.975 9  18801786.341    18801790.337        -839.795
      -648.390
 88  3 26  7 15 59.0800000  0  4G 3G 9G11G13
 -85586881.568 9 101595766.616 9  20312518.088    20312523.864        1658.355
      1290.883
 -11076492.749 9  -8757607.498 9  19975710.230    19975715.824       -3493.438
     -2714.293
   2739540.044 9   2083747.687 9  21288253.980    21288259.326       -2280.770
     -1777.385
 -40607224.019 9  18980159.180 8  18806587.739    18806591.772        -845.904
      -648.004
 88  3 26  7 16 29.0800000  0  4G 3G 9G11G13
 -85636325.112 9 101557239.216 9  20303109.604    20303115.108        1647.933
      1281.245
 -10971771.845 9  -8676006.816 8  19995638.886    19995644.290       -3502.919
     -2731.735
   2808041.663 8   2137125.554 9  21301289.359    21301295.208       -2286.272
     -1772.706
 -40581786.749 9  18999980.440 9  18811428.917    18811432.994        -836.717
      -662.874
 88  3 26  7 16 59.0800000  0  4G 3G 9G11G13
 -85685552.953 9 101518879.874 9  20293741.551    20293747.382        1628.076
      1283.960
 -10866695.745 9  -8594129.345 8  20015634.375    20015639.365       -3505.232
     -2733.450
   2876527.176 8   2190490.869 9  21314321.761    21314327.204       -2284.597
     -1790.601
 -40556151.396 9  19019956.048 9  18816307.371    18816312.057        -845.944
      -672.369
 88  3 26  7 17 29.0800000  0  4G 3G 9G11G13
 -85734565.064 9 101480688.662 8  20284415.042    20284420.127        1635.102
      1275.106
 -10761267.632 9  -8511977.571 9  20035695.931    20035701.239       -3507.569
     -2741.279
   2944996.044 8   2243843.225 9  21327351.223    21327357.812       -2270.251
     -1773.892
 -40530318.456 9  19040085.622 8  18821222.719    18821227.395        -865.919
      -672.530
 88  3 26  7 17 59.0800000  0  3G 3G 9G13
 -85783362.104 5 101442665.034 3  20275129.886    20275136.884        1609.225
      1258.770
 -10655490.484 9  -8429553.843 9  20055824.405    20055830.305       -3537.321
     -2753.284
 -40504289.594 2  19060367.854 2  18826176.351    18826178.904        -885.520
      -672.487
 88  3 26  7 18 29.0800000  0  3G 3G 9G13
 -85831944.028 9 101404809.052 9  20265884.415    20265889.489        1613.794
      1260.242
 -10549366.925 9  -8346860.170 8  20076019.289    20076025.511       -3536.412
     -2761.170
 -40478065.978 9  19080801.852 9  18831165.925    18831170.345        -859.691
      -685.430
 88  3 26  7 18 59.0800000  0  3G 3G 9G13
 -85880311.131 9 101367120.433 8  20256680.173    20256686.083        1616.785
      1251.363
 -10442899.439 9  -8263898.506 8  20096279.256    20096284.919       -3551.946
     -2756.217
 -40451648.253 9  19101387.095 9  18836193.832    18836198.568        -877.434
      -693.899
 88  3 26  7 19 29.0800000  0  3G 3G 9G13
 -85928463.326 9 101329599.278 8  20247516.701    20247523.162        1594.863
      1258.024
 -10336091.147 9  -8180671.273 9  20116604.553    20116609.431       -3558.868
     -2777.698
 -40425038.352 9  19122122.095 8  18841256.423    18841261.321        -895.106
      -696.373
 88  3 26  7 19 59.0800000  0  3G 3G 9G13
 -85976401.387 9 101292244.977 9  20238394.613    20238400.096        1596.713
      1240.669
 -10228945.441 9  -8097181.132 9  20136993.587    20136998.585       -3573.293
     -2795.886
 -40398237.793 9  19143005.662 9  18846356.834    18846361.902        -909.101
      -710.633
 88  3 26  7 20 29.0800000  0  3G 3G 9G13
 -86024125.459 9 101255057.389 8  20229313.260    20229318.215        1576.825
      1232.809
 -10121465.010 9  -8013430.165 9  20157447.060    20157451.340       -3592.942
     -2794.326
 -40371247.418 9  19164037.132 9  18851492.413    18851497.507        -895.464
      -706.594
 88  3 26  7 20 59.0800000  0  3G 3G 9G13
 -86071636.231 9 101218036.044 9  20220271.877    20220277.315        1585.462
      1226.160
 -10013653.314 9  -7929421.062 9  20177962.476    20177966.799       -3597.352
     -2795.364
 -40344068.252 9  19185215.721 9  18856665.097    18856669.669        -903.622
      -711.205
 88  3 26  7 21 29.0800000  0  3G 3G 9G13
 -86118934.175 9 101181180.512 8  20211271.010    20211277.028        1568.572
      1233.511
  -9905513.417 9  -7845156.219 8  20198541.042    20198545.521       -3604.002
     -2818.057
 -40316702.375 9  19206539.787 8  18861872.847    18861878.097        -914.372
      -707.874
 88  3 26  7 21 59.0800000  0  3G 3G 9G13
 -86166019.883 9 101144490.370 8  20202310.889    20202316.828        1573.069
      1217.846
  -9797048.702 9  -7760638.277 8  20219180.851    20219185.991       -3620.222
     -2831.708
 -40289151.153 9  19228008.283 8  18867115.223    18867119.450        -917.992
      -706.197
 88  3 26  7 22 29.0800000  0  3G 3G 9G13
 -86212894.018 9 101107965.109 8  20193390.789    20193397.475        1574.050
      1227.434
  -9688262.565 9  -7675869.876 8  20239881.897    20239887.209       -3626.666
     -2837.835
 -40261416.091 9  19249620.019 8  18872393.041    18872397.821        -931.772
      -727.330
 88  3 26  7 22 59.0800000  0  3G 3G 9G13
 -86259557.181 9 101071604.261 8  20184512.293    20184517.977        1542.567
      1203.883
  -9579158.133 9  -7590853.452 9  20260643.305    20260649.496       -3640.836
     -2839.196
 -40233498.623 9  19271373.904 9  18877705.468    18877710.765        -932.928
      -725.292
 88  3 26  7 23 29.0800000  0  3G 3G 9G13
 -86306010.031 9 101035407.293 9  20175672.839    20175676.953        1544.784
      1215.174
  -9469738.648 8  -7505591.542 9  20281465.786    20281471.108       -3643.428
     -2846.628
 -40205400.383 9  19293268.648 9  18883052.447    18883057.757        -935.097
      -731.083
 88  3 26  7 23 59.0800000  0  3G 3G 9G13
 -86352253.118 9 100999373.806 8  20166871.361    20166878.049        1534.402
      1206.729
  -9360007.644 9  -7420086.871 8  20302346.414    20302352.190       -3661.155
     -2855.433
 -40177122.794 9  19315303.146 9  18888434.103    18888438.673        -947.968
      -729.585
 88  3 26  7 24 29.0800000  0  3G 3G 9G13
 -86398287.753 9 100963502.690 9  20158112.465    20158117.516        1537.209
      1186.187
  -9249968.231 9  -7334341.882 9  20323287.645    20323292.191       -3678.961
     -2855.743
 -40148667.584 9  19337476.034 9  18893848.431    18893853.501        -955.631
      -742.038
 88  3 26  7 24 59.0800000  0  3G 3G 9G13
 -86444113.546 9 100927794.311 9  20149392.373    20149396.310        1526.467
      1182.812
  -9139623.742 9  -7248359.178 8  20344284.481    20344289.619       -3686.354
     -2880.089
 -40120035.890 9  19359786.448 8  18899296.778    18899302.835        -943.406
      -752.433
 88  3 26  7 25 29.0800000  0  3G 3G 9G13
 -86489731.323 9 100892248.030 8  20140709.751    20140716.404        1536.706
      1185.969
  -9028977.510 9  -7162141.350 8  20365340.269    20365345.022       -3694.966
     -2873.577
 -40091229.238 9  19382233.204 9  18904778.017    18904783.515        -958.948
      -751.874
 88  3 26  7 25 59.0800000  0  3G 3G 9G13
 -86535142.539 9 100856862.693 9  20132069.173    20132074.245        1500.279
      1183.154
  -8918032.995 9  -7075691.091 9  20386452.066    20386457.261       -3703.195
     -2891.839
 -40062249.362 9  19404814.925 9  18910293.378    18910297.789        -965.631
      -749.034
 88  3 26  7 26 29.0800000  0  3G 3G 9G13
 -86580347.577 9 100821638.007 9  20123467.035    20123472.775        1512.711
      1177.009
  -8806793.384 9  -6989010.877 9  20407621.023    20407625.635       -3724.782
     -2898.295
 -40033097.860 9  19427530.392 9  18915840.712    18915845.671        -975.240
      -764.967
 88  3 26  7 26 59.0800000  0  3G 3G 9G13
 -86625346.454 9 100786573.950 9  20114903.771    20114909.081        1506.252
      1166.228
  -8695261.905 9  -6902103.247 9  20428844.428    20428849.344       -3718.626
     -2898.737
 -40003775.845 9  19450378.718 9  18921420.717    18921425.398        -980.942
      -766.489
 88  3 26  7 27 29.0800000  0  3G 3G 9G13
 -86670140.240 9 100751669.719 9  20106380.646    20106386.060        1495.957
      1168.359
  -8583442.058 8  -6814970.910 9  20450122.594    20450128.567       -3722.286
     -2916.496
 -39974284.661 9  19473358.855 9  18927032.533    18927037.359        -977.353
      -756.951
 88  3 26  7 27 59.0800000  0  3G 3G 9G13
 -86714729.398 9 100716924.958 9  20097895.852    20097901.323        1471.253
      1152.067
  -8471337.143 9  -6727616.451 9  20471456.237    20471460.513       -3739.375
     -2920.100
 -39944625.681 9  19496469.761 9  18932676.075    18932680.739        -988.844
      -761.021
 88  3 26  7 28 29.0800000  0  3G 3G 9G13
 -86759114.455 9 100682339.189 9  20089449.038    20089454.395        1472.090
      1151.911
  -8358950.459 9  -6640042.425 8  20492842.680    20492847.071       -3753.857
     -2931.315
 -39914800.694 9  19519710.014 9  18938351.115    18938356.602        -983.780
      -777.761
 88  3 26  7 28 59.0800000  0  3G 3G 9G13
 -86803296.253 9 100647911.845 8  20081041.719    20081047.761        1471.580
      1146.393
  -8246285.194 9  -6552251.323 8  20514281.365    20514286.906       -3764.024
     -2931.023
 -39884810.963 9  19543078.639 9  18944058.247    18944063.218       -1010.782
      -778.053
 88  3 26  7 29 29.0800000  0  3G 3G 9G13
 -86847275.705 9 100613642.188 9  20072672.089    20072677.644        1470.320
      1147.462
  -8133344.905 9  -6464245.919 9  20535773.681    20535778.846       -3774.279
     -2931.172
 -39854658.007 9  19566574.454 8  18949796.145    18949801.304       -1007.863
      -772.678
 88  3 26  7 29 59.0800000  0  3G 3G 9G13
 -86891053.215 9 100579529.875 8  20064341.285    20064347.416        1448.366
      1135.364
  -8020132.829 9  -6376028.743 8  20557316.872    20557322.144       -3774.845
     -2942.705
 -39824342.869 9  19590196.638 9  18955564.840    18955569.914       -1004.522
      -789.188
 88  3 26  7 30 29.0800000  0  3G 3G 9G13
 -86934629.670 8 100545574.214 9  20056049.743    20056055.084        1446.540
      1129.902
  -7906652.186 9  -6287602.289 9  20578911.227    20578916.806       -3786.328
     -2956.394
 -39793867.213 9  19613943.906 9  18961365.215    18961369.381       -1016.388
      -795.806
 88  3 26  7 30 59.0800000  0  3G 3G 9G13
 -86978005.688 9 100511774.743 8  20047794.924    20047800.549        1437.258
      1115.219
  -7792906.651 9  -6198969.413 8  20600556.296    20600562.089       -3791.671
     -2959.899
 -39763232.099 9  19637815.427 8  18967194.431    18967198.657       -1030.949
      -795.221
 88  3 26  7 31 29.0800000  0  3G 3G 9G13
 -87021181.793 9 100478131.039 8  20039579.863    20039584.634        1437.944
      1128.318
  -7678899.268 9  -6110132.514 9  20622251.685    20622256.842       -3805.666
     -2964.447
 -39732439.323 9  19661809.811 9  18973053.680    18973058.621       -1039.705
      -800.149
 88  3 26  7 31 59.0800000  0  3G 3G 9G13
 -87064158.460 9 100444642.755 9  20031400.615    20031405.968        1435.591
      1112.149
  -7564633.436 9  -6021094.210 9  20643996.249    20644000.697       -3801.583
     -2984.381
 -39701490.204 9  19685926.017 9  18978943.110    18978947.587       -1038.716
      -797.191
 88  3 26  7 32 29.0800000  0  3G 3G 9G13
 -87106936.706 9 100411309.070 9  20023260.616    20023266.401        1427.689
      1115.853
  -7450112.339 8  -5931857.005 9  20665788.789    20665793.251       -3821.343
     -2966.560
 -39670385.578 9  19710163.395 9  18984862.896    18984867.905       -1039.170
      -819.567
 88  3 26  7 32 59.0800000  0  3G 3G 9G13
 -87149516.965 9 100378129.660 9  20015157.191    20015162.947        1425.911
      1113.815
  -7335339.425 9  -5842423.575 9  20687628.537    20687633.757       -3825.123
     -2969.686
 -39639127.220 9  19734520.541 8  18990810.301    18990816.140       -1040.231
      -818.436
 88  3 26  7 33 29.0800000  0  3G 3G 9G13
 -87191899.360 9 100345104.438 8  20007092.595    20007098.122        1404.396
      1094.707
  -7220317.700 8  -5752796.243 9  20709516.663    20709522.158       -3838.600
     -2983.275
 -39607715.817 9  19758996.964 9  18996788.339    18996792.469       -1034.737
      -811.719
 88  3 26  7 33 59.0800000  0  3G 3G 9G13
 -87234084.611 9 100312232.829 9  19999064.752    19999070.110        1405.680
      1103.096
  -7105050.412 8  -5662977.598 8  20731451.189    20731456.273       -3842.260
     -2989.327
 -39576153.267 9  19783591.162 9  19002793.773    19002799.335       -1054.314
      -822.543
 88  3 26  7 34 29.0800000  0  3G 3G 9G13
 -87276073.151 9 100279514.512 8  19991074.582    19991080.123        1400.959
      1092.557
  -6989540.727 9  -5572970.066 8  20753432.568    20753437.870       -3851.016
     -3002.420
 -39544440.276 9  19808302.574 9  19008828.964    19008833.845       -1061.243
      -829.174
 88  3 26  7 34 59.0800000  0  3G 3G 9G13
 -87317865.626 9 100246948.998 9  19983121.519    19983126.858        1392.562
      1082.168
  -6873791.614 9  -5482775.983 9  20775458.606    20775463.913       -3859.381
     -3012.592
 -39512577.955 9  19833130.360 9  19014892.484    19014896.845       -1054.808
      -820.959
 88  3 26  7 35 29.0800000  0  3G 3G 9G13
 -87359462.082 8 100214536.196 9  19975206.121    19975211.597        1373.033
      1091.085
  -6757806.417 9  -5392397.920 8  20797529.359    20797534.550       -3871.446
     -3004.856
 -39480567.395 9  19858073.659 8  19020983.740    19020988.555       -1061.076
      -838.724
 88  3 26  7 35 59.0800000  0  3G 3G 9G13
 -87400862.919 9 100182275.832 9  19967327.755    19967332.769        1383.431
      1085.592
  -6641587.552 9  -5301837.776 9  20819645.370    20819650.860       -3876.717
     -3024.628
 -39448408.816 9  19883132.295 9  19027102.541    19027107.530       -1078.277
      -839.911
 88  3 26  7 36 29.0800000  0  3G 3G 9G13
 -87442068.456 8 100150167.662 8  19959486.314    19959492.483        1377.849
      1064.744
  -6525138.476 9  -5211098.252 9  20841804.747    20841811.113       -3882.451
     -3031.960
 -39416103.579 9  19908305.210 9  19033251.072    19033256.201       -1075.765
      -852.419
 88  3 26  7 36 59.0800000  0  3G 3G 9G13
 -87483080.040 9 100118210.607 8  19951682.719    19951687.633        1355.186
      1065.993
  -6408462.886 9  -5120182.231 9  20864006.755    20864013.137       -3898.862
     -3027.697
 -39383653.595 9  19933590.908 9  19039425.237    19039431.507       -1082.654
      -844.677
 88  3 26  7 37 29.0800000  0  3G 3G 9G13
 -87523898.844 9 100086403.767 9  19943914.386    19943920.042        1356.861
      1055.113
  -6291564.577 9  -5029092.653 8  20886252.858    20886257.724       -3895.577
     -3030.518
 -39351060.203 9  19958988.351 9  19045627.859    19045632.465       -1092.774
      -846.373
 88  3 26  7 37 59.0800000  0  3G 3G 9G13
 -87564525.663 9 100054746.505 9  19936184.315    19936188.224        1361.725
      1058.580
  -6174446.959 9  -4937832.183 9  20908539.503    20908545.130       -3906.868
     -3041.666
 -39318325.511 9  19984495.908 8  19051856.979    19051862.151       -1079.752
      -853.469
 88  3 26  7 38 29.0800000  0  3G 3G 9G13
 -87604961.016 9 100023238.456 9  19928489.209    19928494.751        1340.729
      1045.991
  -6057113.643 9  -4846403.647 9  20930867.839    20930872.762       -3918.997
     -3049.210
 -39285450.639 9  20010112.691 9  19058113.847    19058116.891       -1098.779
      -857.446
 88  3 26  7 38 59.0800000  0  3G 3G 9G13
 -87645206.000 9  99991878.760 9  19920831.029    19920836.113        1347.060
      1052.721
  -5939568.269 9  -4754809.875 8  20953235.156    20953241.321       -3920.927
     -3061.457
 -39252437.313 9  20035837.362 8  19064394.684    19064400.157       -1086.410
      -856.533
 88  3 26  7 39 29.0800000  0  3G 3G 9G13
 -87685261.921 9  99960666.402 9  19913209.014    19913213.557        1318.600
      1040.330
  -5821814.272 9  -4663053.527 9  20975642.757    20975648.533       -3924.149
     -3060.643
 -39219286.224 9  20061669.379 8  19070703.846    19070708.670       -1101.410
      -860.914
 88  3 26  7 39 59.0800000  0  3G 3G 9G13
 -87725129.022 9  99929601.160 8  19905621.655    19905625.995        1325.665
      1032.308
  -5703854.960 9  -4571137.184 9  20998089.714    20998095.446       -3927.371
     -3064.321
 -39185999.065 9  20087607.428 9  19077037.861    19077042.777       -1108.156
      -868.960
 88  3 26  7 40 29.0800000  0  3G 3G 9G13
 -87764808.412 9  99898682.198 9  19898071.780    19898076.078        1319.852
      1035.061
  -5585694.315 9  -4479063.974 8  21020575.374    21020579.886       -3929.332
     -3061.239
 -39152577.572 9  20113650.143 9  19083398.042    19083402.645       -1110.222
      -864.903
 88  3 26  7 40 59.0800000  0  3G 3G 9G13
 -87804300.744 9  99867908.982 8  19890555.894    19890561.754        1311.136
      1032.973
  -5467335.553 9  -4386836.372 8  21043097.840    21043103.817       -3946.094
     -3078.545
 -39119022.957 9  20139796.601 8  19089782.864    19089787.637       -1114.664
      -875.093
 88  3 26  7 41 29.0800000  0  3G 3G 9G13
 -87843606.852 9  99837280.880 9  19883076.648    19883081.204        1306.088
      1027.785
  -5348782.086 8  -4294457.074 9  21065658.535    21065664.075       -3962.450
     -3081.099
 -39085336.540 9  20166045.750 8  19096193.755    19096198.100       -1128.204
      -886.533
 88  3 26  7 41 59.0800000  0  3G 3G 9G13
 -87882727.306 8  99806797.458 9  19875632.077    19875636.559        1294.724
      1005.807
  -5230037.106 9  -4201928.541 9  21088254.913    21088260.169       -3969.555
     -3089.059
 -39051519.135 9  20192396.979 9  19102628.718    19102632.444       -1131.864
      -873.099
 88  3 26  7 42 29.0800000  0  3G 3G 9G13
 -87921662.816 9  99776458.125 8  19868222.641    19868228.471        1289.517
      1008.827
  -5111104.194 9  -4109253.566 9  21110887.366    21110892.193       -3980.607
     -3084.790
 -39017572.125 9  20218849.194 9  19109088.344    19109093.391       -1138.611
      -887.030
 88  3 26  7 42 59.0800000  0  3G 3G 9G13
 -87960414.450 9  99746262.101 8  19860848.261    19860853.348        1278.337
      1010.622
  -4991986.688 9  -4016434.748 8  21133553.832    21133559.144       -3976.596
     -3094.458
 -38983496.880 9  20245401.335 8  19115572.597    19115577.779       -1135.572
      -884.402
 88  3 26  7 43 29.0800000  0  3G 3G 9G13
 -87998982.638 9  99716208.999 9  19853507.555    19853514.395        1292.420
       996.032
  -4872687.834 9  -3923474.622 8  21156255.947    21156261.569       -3982.194
     -3096.409
 -38949294.303 9  20272052.685 9  19122081.658    19122085.991       -1132.518
      -878.679
 88  3 26  7 43 59.0800000  0  3G 3G 9G13
 -88037367.894 9  99686298.436 9  19846204.320    19846209.187        1283.361
       992.888
  -4753211.041 9  -3830375.835 8  21178991.923    21178996.559       -3980.201
     -3123.607
 -38914965.239 9  20298802.610 8  19128613.849    19128618.465       -1139.360
      -895.357
 88  3 26  7 44 29.0800000  0  3G 3G 9G13
 -88075571.007 9  99656529.814 9  19838934.713    19838940.528        1275.530
       999.220
  -4633559.408 9  -3737140.803 9  21201760.994    21201765.674       -3992.003
     -3102.928
 -38880511.553 9  20325649.628 9  19135170.144    19135175.090       -1147.510
      -893.915
 88  3 26  7 44 59.0800000  0  3G 3G 9G13
 -88113592.782 9  99626902.500 9  19831699.335    19831704.882        1282.460
       970.606
  -4513737.007 9  -3643772.712 9  21224562.188    21224567.293       -3993.853
     -3116.070
 -38845934.466 9  20352592.822 8  19141750.273    19141755.317       -1157.239
      -905.852
 88  3 26  7 45 29.0800000  0  3G 3G 9G13
 -88151438.318 9  99597412.510 8  19824497.184    19824502.238        1258.967
       977.068
  -4393751.117 9  -3550277.234 9  21247395.275    21247400.417       -4013.175
     -3125.260
 -38811238.940 9  20379628.293 9  19148352.405    19148357.148       -1150.062
      -905.491
 88  3 26  7 45 59.0800000  0  3G 3G 9G13
 -88189113.209 8  99568055.486 8  19817327.696    19817334.055        1246.599
       981.784
  -4273609.946 9  -3456660.756 9  21270257.195    21270262.741       -4017.401
     -3114.976
 -38776431.109 9  20406751.286 8  19154976.678    19154980.424       -1158.363
      -898.644
 88  3 26  7 46 29.0800000  0  3G 3G 9G13
 -88226613.660 9  99538834.396 8  19810191.533    19810197.686        1260.833
       970.475
  -4153312.139 9  -3362922.238 9  21293148.960    21293153.964       -4013.988
     -3130.026
 -38741507.952 9  20433964.130 9  19161622.072    19161627.562       -1169.910
      -913.749
 88  3 26  7 46 59.0800000  0  3G 3G 9G13
 -88263937.441 9  99509750.961 9  19803089.925    19803094.809        1242.708
       971.395
  -4032858.552 8  -3269062.329 9  21316070.403    21316075.989       -4015.431
     -3128.889
 -38706467.993 9  20461268.003 9  19168289.689    19168294.292       -1164.296
      -906.566
 88  3 26  7 47 29.0800000  0  3G 3G 9G13
 -88301085.243 9  99480804.666 9  19796020.655    19796026.037        1232.269
       954.108
  -3912252.434 8  -3175083.548 9  21339020.826    21339026.786       -4018.430
     -3130.417
 -38671311.415 9  20488662.742 8  19174979.967    19174985.063       -1171.584
      -916.123
 88  3 26  7 47 59.0800000  0  3G 3G 9G13
 -88338057.465 9  99451995.181 8  19788984.497    19788990.480        1238.593
       961.583
  -3791496.301 9  -3080987.873 8  21362000.069    21362006.310       -4024.235
     -3138.713
 -38636039.046 9  20516147.697 9  19181692.173    19181696.285       -1174.096
      -906.417
 88  3 26  7 48 29.0800000  0  3G 3G 9G13
 -88374856.014 9  99423321.019 8  19781982.112    19781988.337        1233.984
       961.459
  -3670594.934 9  -2986779.028 9  21385006.489    21385012.016       -4024.642
     -3134.239
 -38600653.409 9  20543720.918 8  19188425.351    19188430.940       -1177.454
      -923.027
 88  3 26  7 48 59.0800000  0  3G 3G 9G13
 -88411482.570 9  99394780.875 8  19775013.575    19775018.429        1220.132
       948.926
  -3549552.848 8  -2892460.541 8  21408039.882    21408045.476       -4037.863
     -3157.323
 -38565157.042 9  20571380.429 8  19195180.287    19195184.981       -1168.849
      -917.558
 88  3 26  7 49 29.0800000  0  3G 3G 9G13
 -88447936.650 9  99366375.135 9  19768075.982    19768080.796        1196.321
       940.438
  -3428372.156 8  -2798034.054 8  21431101.127    21431106.152       -4036.675
     -3147.176
 -38529549.078 9  20599126.900 8  19201955.869    19201960.691       -1188.650
      -915.582
 88  3 26  7 49 59.0800000  0  3G 3G 9G13
 -88484217.330 9  99338104.512 9  19761171.960    19761177.297        1212.126
       944.352
  -3307054.788 9  -2703501.061 9  21454185.343    21454192.274       -4048.373
     -3143.814
 -38493829.509 9  20626960.331 9  19208753.663    19208758.005       -1195.842
      -923.729
 88  3 26  7 50 29.0800000  0  3G 3G 9G13
 -88520326.587 9  99309967.462 9  19754299.595    19754305.430        1212.246
       932.061
  -3185604.924 9  -2608864.820 8  21477297.084    21477303.251       -4043.437
     -3161.412
 -38458000.294 9  20654879.194 9  19215571.087    19215575.254       -1204.184
      -940.748
 88  3 26  7 50 59.0800000  0  3G 3G 9G13
 -88556265.105 9  99281963.455 8  19747461.144    19747466.757        1194.854
       928.010
  -3064026.448 9  -2514128.362 9  21500432.565    21500438.622       -4049.641
     -3153.924
 -38422062.955 9  20682882.325 9  19222409.519    19222413.991       -1185.300
      -931.117
 88  3 26  7 51 29.0800000  0  3G 3G 9G13
 -88592033.094 8  99254092.325 9  19740655.681    19740659.847        1198.115
       929.731
  -2942321.671 9  -2419293.494 9  21523593.656    21523598.253       -4066.738
     -3164.165
 -38386017.777 9  20710969.487 9  19229268.937    19229274.116       -1199.654
      -950.616
 88  3 26  7 51 59.0800000  0  3G 3G 9G13
 -88627631.693 9  99226353.187 8  19733880.532    19733885.668        1179.328
       937.026
  -2820494.523 9  -2324363.255 8  21546775.746    21546782.065       -4039.323
     -3174.299
 -38349865.971 9  20739139.724 9  19236148.832    19236153.599       -1197.461
      -935.280
 88  3 26  7 52 29.0800000  0  3G 3G 9G13
 -88663060.745 9  99198746.166 9  19727138.684    19727144.623        1165.285
       920.187
  -2698547.606 9  -2229339.705 9  21569981.353    21569987.170       -4076.276
     -3165.718
 -38313607.855 9  20767392.811 9  19243048.391    19243052.789       -1203.131
      -931.384
 88  3 26  7 52 59.0800000  0  3G 3G 9G13
 -88698321.593 9  99171270.223 9  19720429.193    19720434.331        1175.715
       916.943
  -2576484.505 8  -2134225.614 8  21593209.361    21593214.823       -4054.841
     -3181.694
 -38277245.274 9  20795727.288 9  19249967.890    19249972.681       -1200.141
      -930.657
 88  3 26  7 53 29.0800000  0  3G 3G 9G13
 -88733415.962 9  99143923.999 9  19713750.619    19713755.831        1160.652
       916.738
  -2454310.063 9  -2039024.768 8  21616458.799    21616463.482       -4064.896
     -3167.657
 -38240780.066 9  20824141.728 8  19256907.717    19256912.207       -1204.343
      -959.328
 88  3 26  7 53 59.0800000  0  3G 3G 9G13
 -88768344.256 9  99116707.164 8  19707103.468    19707108.810        1154.759
       913.905
  -2332026.864 8  -1943739.193 8  21639727.286    21639733.028       -4065.048
     -3169.434
 -38204213.168 9  20852635.413 9  19263864.933    19263870.630       -1217.429
      -950.485
 88  3 26  7 54 29.0800000  0  3G 3G 9G13
 -88803106.182 9  99089619.987 9  19700488.321    19700494.016        1162.223
       906.566
  -2209637.319 9  -1848370.730 9  21663017.756    21663023.669       -4073.780
     -3173.286
 -38167544.423 9  20881208.472 9  19270843.879    19270847.934       -1225.364
      -964.404
 88  3 26  7 54 59.0800000  0  3G 3G 9G13
 -88837702.684 8  99062661.708 9  19693905.379    19693910.370        1143.331
       894.580
  -2087144.880 8  -1752922.112 8  21686326.429    21686333.246       -4099.226
     -3188.237
 -38130774.434 9  20909860.403 8  19277841.070    19277845.170       -1233.681
      -948.049
 88  3 26  7 55 29.0800000  0  3G 3G 9G13
 -88872134.258 9  99035831.935 9  19687353.387    19687357.991        1159.152
       892.660
  -1964552.715 8  -1657395.794 8  21709655.232    21709662.116       -4087.320
     -3191.226
 -38093904.551 8  20938590.191 9  19284856.563    19284862.160       -1229.032
      -959.371
 88  3 26  7 55 59.0800000  0  3G 3G 9G13
 -88906401.681 9  99009130.075 9  19680832.234    19680837.317        1143.993
       888.211
  -1841864.387 8  -1561794.529 8  21733002.856    21733008.529       -4101.092
     -3185.397
 -38056936.166 9  20967396.725 9  19291891.689    19291896.731       -1232.206
      -951.790
 88  3 26  7 56 29.0800000  0  3G 3G 9G13
 -88940505.548 9  98982555.666 8  19674342.940    19674347.078        1130.899
       878.710
  -1719083.397 9  -1466121.061 8  21756367.207    21756373.795       -4106.076
     -3193.214
 -38019870.284 9  20996279.221 9  19298945.082    19298949.749       -1233.202
      -963.006
 88  3 26  7 56 59.0800000  0  3G 3G 9G13
 -88974446.357 9  98956108.301 9  19667884.225    19667888.613        1121.171
       880.537
  -1596212.727 8  -1370377.711 8  21779749.936    21779754.115       -4078.365
     -3188.019
 -37982706.693 9  21025237.865 9  19306016.637    19306021.614       -1250.259
      -967.778
 88  3 26  7 57 29.0800000  0  3G 3G 9G13
 -89008225.643 9  98929786.820 9  19661455.450    19661461.585        1123.778
       878.219
  -1473256.106 9  -1274567.380 9  21803147.545    21803152.318       -4119.090
     -3197.924
 -37945447.791 9  21054270.774 8  19313106.677    19313111.889       -1244.430
      -964.628
 88  3 26  7 57 59.0800000  0  3G 3G 9G13
 -89041844.308 8  98903590.487 8  19655058.944    19655063.694        1110.684
       866.450
  -1350216.783 8  -1178692.610 9  21826561.036    21826565.573       -4097.599
     -3200.608
 -37908093.946 9  21083377.665 8  19320215.385    19320220.149       -1245.977
      -980.367
 88  3 26  7 58 29.0800000  0  3G 3G 9G13
 -89075302.788 9  98877518.962 9  19648691.496    19648697.147        1104.688
       878.884
  -1227098.160 8  -1082756.042 8  21849988.325    21849993.912       -4106.770
     -3190.915
 -37870646.706 9  21112557.323 8  19327341.562    19327345.875       -1254.685
      -987.985
 88  3 26  7 58 59.0800000  0  3G 3G 9G13
 -89108600.870 9  98851572.443 9  19642354.457    19642360.699        1098.739
       869.644
  -1103902.782 9   -986759.648 9  21873432.530    21873438.011       -4104.234
     -3205.561
 -37833105.650 9  21141810.094 9  19334485.552    19334489.546       -1256.065
      -982.387
 88  3 26  7 59 29.0800000  0  3G 3G 9G13
 -89141739.671 9  98825750.017 7  19636049.214    19636054.288        1108.603
       869.750
   -980634.093 9   -890706.151 9  21896889.723    21896895.679       -4107.328
     -3202.560
 -37795472.013 9  21171134.990 8  19341646.149    19341651.158       -1252.843
      -966.691
 88  3 26  7 59 59.0800000  0  3G 3G 9G13
 -89174720.890 9  98800050.388 8  19629773.235    19629777.815        1104.217
       860.671
   -857296.317 8   -794598.817 9  21920359.632    21920366.170       -4128.364
     -3189.219
 -37757747.962 9  21200530.362 9  19348825.082    19348829.912       -1256.607
      -985.233
 88  3 26  8  0 29.0800000  0  3G 3G 9G13
 -89207544.422 8  98774473.632 9  19623526.637    19623531.262        1091.147
       848.797
   -733892.539 9   -698440.034 8  21943843.418    21943849.074       -4111.873
     -3199.571
 -37719933.676 9  21229996.033 9  19356020.941    19356026.206       -1267.867
      -976.322
 88  3 26  8  0 59.0800000  0  3G 3G 9G13
 -89240209.634 8  98749020.239 9  19617310.494    19617315.876        1077.942
       854.613
   -610424.066 8   -602230.843 8  21967339.301    21967343.710       -4116.650
     -3211.246
 -37682028.749 9  21259532.337 9  19363233.333    19363238.442       -1259.278
      -984.257
 88  3 26  8  1 29.0800000  0  3G 3G 9G13
 -89272718.433 9  98723688.733 8  19611124.805    19611128.821        1068.253
       838.824
   -486895.940 9   -505975.188 8  21990844.807    21990850.509       -4120.884
     -3203.007
 -37644034.968 9  21289137.873 9  19370464.268    19370468.471       -1268.967
      -988.886
 88  3 26  8  1 59.0800000  0  3G 3G 9G13
 -89305072.264 9  98698477.983 9  19604968.031    19604972.825        1078.284
       838.488
   -363311.514 8   -409675.653 8  22014362.669    22014367.749       -4102.902
     -3205.523
 -37605953.625 9  21318811.646 9  19377709.430    19377714.660       -1258.337
      -986.985
 88  3 26  8  2 29.0800000  0  3G 3G 9G13
 -89337271.713 8  98673387.530 9  19598840.425    19598844.949        1064.090
       828.826
   -239674.482 8   -313335.121 9  22037889.390    22037895.376       -4128.540
     -3216.634
 -37567785.978 9  21348552.659 9  19384973.642    19384978.289       -1274.557
      -992.609
 88  3 26  8  2 59.0800000  0  3G 3G 9G13
 -89369316.466 9  98648417.616 9  19592741.750    19592747.672        1064.816
       832.349
   -115986.851 8   -216955.171 9  22061425.488    22061432.107       -4136.961
     -3209.003
 -37529531.941 9  21378360.997 8  19392252.701    19392257.929       -1278.521
      -989.707
 88  3 26  8  3 29.0800000  0  3G 3G 9G13
 -89401207.188 9  98623567.712 8  19586672.647    19586678.794        1075.645
       830.994
      7748.212 8   -120538.261 9  22084972.724    22084978.651       -4121.722
     -3212.334
 -37491191.513 9  21408236.647 9  19399549.001    19399553.921       -1280.913
      -992.422
 88  3 26  8  3 59.0800000  0  3G 3G 9G13
 -89432944.057 9  98598837.713 9  19580634.315    19580639.624        1060.510
       826.638
    131527.683 8    -24086.762 9  22108527.070    22108532.629       -4128.667
     -3209.488
 -37452765.860 9  21438178.712 8  19406861.585    19406867.182       -1278.521
      -999.618
 88  3 26  8  4 29.0800000  0  3G 3G 9G13
 -89464529.356 8  98574225.802 8  19574623.446    19574628.495        1054.011
       824.718
    255346.862 8     72395.678 9  22132088.558    22132095.053       -4100.685
     -3212.147
 -37414257.112 9  21468185.521 8  19414188.917    19414193.421       -1289.270
     -1004.340
 88  3 26  8  4 59.0800000  0  3G 3G 9G13
 -89495963.617 8  98549731.603 9  19568641.922    19568647.058        1048.931
       817.231
    379203.016 9    168906.948 9  22155657.941    22155663.742       -4132.718
     -3212.644
 -37375665.557 9  21498256.860 9  19421533.062    19421537.849       -1292.683
     -1011.318
 88  3 26  8  5 29.0800000  0  3G 3G 9G13
 -89527246.303 9  98525355.506 9  19562688.254    19562694.426        1048.444
       809.737
    503093.667 9    265445.110 9  22179233.728    22179240.014       -4124.808
     -3211.110
 -37336991.675 9  21528392.344 9  19428893.033    19428897.755       -1279.063
     -1007.217
 88  3 26  8  5 59.0800000  0  3G 3G 9G13
 -89558378.649 9  98501096.549 9  19556764.692    19556770.436        1054.649
       814.876
    627015.042 9    362007.193 9  22202814.991    22202821.404       -4116.299
     -3212.048
 -37298236.034 9  21558591.547 9  19436267.829    19436271.740       -1294.126
      -999.966
 88  3 26  8  6 29.0800000  0  3G 3G 9G13
 -89589361.130 9  98476954.369 9  19550868.844    19550873.840        1045.550
       812.583
    750963.982 8    458590.765 9  22226402.234    22226407.946       -4127.623
     -3214.335
 -37259400.044 9  21588853.343 9  19443658.124    19443663.128       -1300.649
     -1011.331
 88  3 26  8  6 59.0800000  0  3G 3G 9G13
 -89620194.714 8  98452928.230 9  19545001.518    19545007.099        1028.477
       802.492
    874937.286 8    555193.328 8  22249993.187    22249998.747       -4145.764
     -3218.212
 -37220484.111 9  21619177.450 9  19451062.781    19451068.273       -1295.434
     -1003.302
 88  3 26  8  7 29.0800000  0  3G 3G 9G13
 -89650879.365 9  98429018.136 8  19539161.756    19539167.141        1027.384
       794.700
    998932.291 9    651812.830 9  22273588.776    22273594.642       -4130.477
     -3233.430
 -37181487.842 9  21649564.141 9  19458483.375    19458488.241       -1303.121
     -1025.038
 88  3 26  8  7 59.0800000  0  3G 3G 9G13
 -89681416.556 9  98405222.947 9  19533351.233    19533355.602        1015.909
       786.286
   1122945.433 9    748446.450 9  22297187.922    22297192.712       -4126.945
     -3235.350
 -37142413.271 9  21680011.859 9  19465919.051    19465924.091       -1301.782
     -1010.927
 88  3 26  8  8 29.0800000  0  3G 3G 9G13
 -89711806.585 9  98381542.423 8  19527568.448    19527573.422         997.815
       784.242
   1246973.272 8    845091.516 8  22320789.253    22320795.647       -4132.989
     -3236.934
 -37103260.948 9  21710520.151 8  19473370.007    19473374.250       -1297.795
     -1018.874
 88  3 26  8  8 59.0800000  0  3G 3G 9G13
 -89742050.506 9  98357975.742 8  19521813.256    19521817.998         990.806
       779.668
   1371012.283 9    941745.281 8  22344393.527    22344398.350       -4132.527
     -3226.787
 -37064032.024 9  21741088.138 8  19480834.948    19480839.653       -1288.090
     -1018.905
 88  3 26  8  9 29.0800000  0  3G 3G 9G13
 -89772149.139 9  98334522.273 8  19516085.239    19516090.788         996.507
       781.477
   1495059.230 9   1038405.247 7  22367998.873    22368004.140       -4130.398
     -3226.458
 -37024727.230 8  21771715.238 8  19488314.900    19488319.602       -1307.324
     -1024.467
 88  3 26  8  9 59.0800000  0  3G 3G 9G13
 -89802101.325 8  98311182.928 9  19510385.734    19510390.396         999.338
       780.868
   1619112.688 7   1135070.275 7  22391604.611    22391610.479       -4114.951
     -3215.615
 -36985345.029 9  21802402.664 9  19495808.104    19495813.344       -1315.131
     -1025.498
 88  3 26  8 10 29.0800000  0  3G 3G 9G13
 -89831907.813 8  98287957.109 9  19504713.375    19504718.851        1014.474
       778.171
   1743169.475 8   1231737.899 8  22415211.611    22415216.689       -4131.985
     -3239.861
 -36945886.751 9  21833149.366 9  19503317.329    19503322.672       -1300.649
     -1023.721
 88  3 26  8 10 59.0800000  0  3G 3G 9G13
 -89861570.909 9  98264843.022 8  19499069.320    19499073.928         984.044
       765.358
   1867224.508 8   1328404.166 8  22438818.884    22438824.916       -4148.157
     -3221.704
 -36906355.027 9  21863953.295 9  19510839.856    19510845.350       -1311.869
     -1029.512
 88  3 26  8 11 29.0800000  0  3G 3G 9G13
 -89891091.412 9  98241840.046 9  19493451.368    19493456.444         977.991
       765.631
   1991274.491 8   1425066.453 8  22462424.240    22462431.066       -4117.136
     -3222.450
 -36866750.455 9  21894813.989 9  19518375.882    19518381.383       -1321.415
     -1019.893
 88  3 26  8 11 59.0800000  0  3G 3G 9G13
 -89920469.175 9  98218948.299 9  19487861.385    19487864.708         973.190
       770.180
   2115317.137 8   1521723.050 8  22486030.752    22486035.599       -4151.211
     -3213.844
 -36827072.579 9  21925731.818 9  19525926.385    19525931.338       -1314.700
     -1027.213
 88  3 26  8 12 29.0800000  0  3G 3G 9G13
 -89949704.073 9  98196167.867 9  19482297.938    19482303.753         975.926
       755.379
   2239350.350 8   1618372.276 9  22509631.102    22509638.774       -4139.369
     -3228.993
 -36787321.665 9  21956706.545 9  19533491.188    19533495.649       -1321.199
     -1030.457
 88  3 26  8 12 59.0800000  0  3G 3G 9G13
 -89978797.613 9  98173497.589 8  19476762.276    19476766.545         967.608
       748.749
   2363369.695 9   1715010.709 9  22533233.306    22533237.831       -4128.540
     -3217.149
 -36747498.834 9  21987737.323 9  19541069.220    19541073.826       -1328.065
     -1023.777
 88  3 26  8 13 29.0800000  0  3G 3G 9G13
 -90007750.162 9  98150937.181 9  19471252.440    19471256.913         965.846
       757.249
   2487372.324 9   1811636.152 9  22556829.815    22556835.544       -4122.782
     -3206.835
 -36707604.890 9  22018823.500 9  19548660.653    19548665.137       -1327.563
     -1046.787
 88  3 26  8 13 59.0800000  0  3G 3G 9G13
 -90036561.366 8  98128486.894 8  19465769.400    19465774.774         963.773
       743.442
   2611355.845 9   1908246.686 9  22580423.316    22580429.328       -4129.225
     -3224.855
 -36667639.262 9  22049965.542 8  19556266.129    19556270.356       -1334.381
     -1030.103
 88  3 26  8 14 29.0800000  0  3G 3G 9G13
 -90065232.895 9  98106145.462 9  19460312.742    19460318.067         951.987
       739.117
   2735316.438 9   2004839.351 9  22604011.365    22604017.966       -4126.658
     -3211.899
 -36627603.490 9  22081162.243 9  19563885.049    19563889.155       -1340.952
     -1032.165
 88  3 26  8 14 59.0800000  0  3G 3G 9G13
 -90093766.846 9  98083911.230 8  19454883.753    19454889.256         962.258
       739.701
   2859249.707 9   2101410.703 9  22627596.156    22627601.638       -4125.661
     -3224.183
 -36587499.941 9  22112411.752 8  19571516.492    19571520.925       -1338.807
     -1038.535
 88  3 26  8 15 29.0800000  0  3G 3G 9G13
 -90122161.010 9  98061785.919 8  19449481.263    19449485.581         939.403
       733.761
   2983154.792 9   2197960.109 9  22651173.819    22651178.804       -4123.388
     -3204.051
 -36547326.735 9  22143715.537 8  19579161.105    19579165.886       -1336.000
     -1043.077
